GFSNW_sfc_wetblb_018.txt.gz
Wetbulb
56.92 56.93 56.56 56.39 55.80 54.41 47.01 42.07 39.40 51.79 53.77 43.46 45.13 43.27 45.29 45.82 46.63 48.86 46.32 45.77 42.69 38.48 40.76 39.57 39.82 38.68 42.39 47.01 45.88 39.50 38.42 33.89 31.81 33.04 37.04 37.86 34.98 34.91 34.55 30.56 27.48 26.40 25.99 29.89
56.30 56.42 56.20 55.98 55.46 52.76 42.76 39.47 41.66 51.14 49.96 41.59 41.72 45.44 45.51 46.81 46.05 46.65 45.46 43.46 45.04 43.52 39.80 38.38 42.29 42.76 45.95 46.55 44.76 42.28 40.72 34.26 30.48 30.67 34.53 36.63 34.30 33.98 33.85 33.30 31.23 26.63 26.55 30.31
55.60 56.03 55.81 55.53 55.28 53.67 44.23 40.04 37.58 45.04 46.49 45.09 43.13 43.15 43.66 43.77 47.66 46.60 47.07 45.39 45.71 43.24 40.80 43.27 41.21 42.01 44.83 46.20 45.95 47.43 45.03 36.01 32.58 30.55 32.20 36.34 33.72 34.48 33.95 34.20 28.90 28.91 29.07 32.06
55.23 55.76 55.55 55.03 55.05 54.20 44.92 38.98 36.91 39.49 38.58 40.73 42.25 43.09 44.07 42.59 43.32 46.59 46.72 45.53 43.76 42.23 38.68 40.54 40.22 40.51 42.18 44.33 46.49 43.48 42.37 35.25 34.74 34.35 37.37 36.38 36.05 36.04 34.43 33.48 33.12 32.48 33.85 33.57
55.24 55.26 55.25 54.74 54.66 52.33 42.82 38.16 37.05 38.32 39.74 39.97 40.48 40.30 40.08 41.58 40.64 43.29 43.83 43.82 42.94 43.14 41.08 40.74 38.99 40.37 39.93 39.41 40.88 41.41 40.77 35.42 34.74 32.53 34.18 34.67 34.36 36.26 34.74 34.18 34.05 32.58 34.21 34.15
55.00 54.81 54.97 54.69 54.45 50.55 41.87 40.31 40.90 40.11 39.13 37.91 37.94 38.47 41.00 41.84 42.20 42.75 44.45 42.99 42.35 39.22 39.56 40.28 41.01 41.48 41.45 42.38 40.91 38.56 37.70 35.30 32.79 28.90 31.83 31.30 29.69 33.18 35.34 34.89 35.40 36.59 33.57 36.92
54.50 54.36 55.01 54.94 54.25 50.79 44.21 42.20 41.19 36.97 35.71 37.69 37.51 39.75 40.72 40.65 40.29 40.03 41.34 42.64 40.96 41.44 42.15 42.55 43.37 42.23 41.22 39.93 38.11 38.98 35.60 33.51 32.04 27.98 29.07 22.08 32.79 36.21 36.55 35.49 35.68 36.09 37.04 38.56
53.95 54.20 54.88 54.96 54.38 52.77 44.07 43.10 41.05 37.15 33.49 36.06 36.33 37.72 37.92 37.81 37.17 36.68 38.16 38.64 39.58 41.81 40.19 39.61 37.06 36.98 36.54 36.48 36.22 36.03 37.22 34.99 30.97 28.34 27.34 31.26 34.21 35.51 36.04 36.05 35.02 38.72 39.00 39.92
53.44 54.13 54.44 54.63 54.42 53.17 45.99 43.94 43.03 39.02 36.48 35.27 37.53 36.12 36.45 36.33 34.53 34.79 35.30 36.36 38.55 40.19 39.95 37.32 32.03 31.90 33.10 32.28 32.51 35.70 36.03 36.23 33.94 29.71 28.75 27.21 33.87 38.55 40.38 40.80 32.95 40.01 40.32 39.02
53.60 54.07 53.85 54.09 54.17 53.26 48.28 44.69 45.09 41.17 36.22 37.93 37.18 35.45 35.97 36.35 35.25 33.66 33.63 34.76 36.12 38.74 36.20 33.33 32.68 31.69 33.83 30.66 31.38 30.01 30.35 30.20 29.23 30.44 28.51 31.05 37.01 38.73 39.55 31.79 33.08 39.44 39.52 38.83
53.94 53.94 53.62 53.76 54.03 53.24 50.34 45.50 45.70 44.06 38.31 39.92 41.67 40.52 36.22 36.30 36.15 35.57 36.04 37.43 36.75 35.65 34.73 33.28 32.22 31.52 32.24 31.56 32.09 30.03 30.30 27.54 28.27 29.21 26.20 27.01 37.85 38.50 35.10 36.64 37.92 39.24 38.75 38.77
53.37 53.40 53.52 53.70 54.00 53.41 52.19 45.46 46.71 46.40 41.99 41.28 44.52 44.84 44.37 41.40 40.66 36.82 35.63 37.08 35.85 37.41 35.23 34.00 33.03 31.61 30.54 31.70 30.75 32.79 31.72 34.00 32.02 32.75 32.27 37.22 37.69 37.83 38.74 39.81 38.84 38.26 38.11 38.53
52.87 52.99 53.28 53.64 54.09 53.88 52.40 48.72 46.96 44.32 42.11 41.96 42.20 42.08 46.26 47.31 45.70 43.09 39.02 37.73 38.78 38.97 39.03 34.90 33.96 32.39 31.74 30.23 30.87 30.49 32.65 35.71 34.27 34.21 35.28 36.56 38.15 38.95 39.57 39.83 39.23 39.14 39.04 38.76
52.54 52.86 52.99 53.65 53.93 52.97 51.95 48.88 49.18 47.71 44.10 39.73 42.54 46.33 42.63 45.99 46.69 44.53 43.46 42.08 42.30 41.64 40.68 38.05 36.97 35.00 34.54 31.51 33.59 33.01 34.37 35.55 34.28 33.84 34.88 36.78 37.35 38.20 39.06 38.83 38.55 37.89 36.68 35.49
52.34 52.69 53.27 53.48 53.15 52.58 51.05 49.81 49.79 49.74 45.31 41.17 42.43 45.25 44.52 45.77 45.18 44.37 44.20 42.71 40.71 39.09 37.95 39.73 37.86 38.80 37.18 33.39 33.32 32.56 35.06 34.88 33.84 33.07 36.93 36.82 36.49 38.54 38.41 37.93 36.84 36.98 35.97 33.37
51.74 51.94 52.65 52.91 52.57 51.72 48.01 43.20 48.36 48.78 48.91 42.46 35.55 43.93 43.26 45.67 46.58 45.23 43.76 42.98 41.09 39.42 37.51 35.62 37.27 39.10 36.23 31.19 29.56 34.87 35.80 37.04 37.88 36.76 37.20 36.57 36.96 36.72 35.32 35.76 34.41 33.57 33.65 33.07
50.82 51.87 52.12 52.51 51.29 47.41 42.05 40.18 43.79 48.68 48.92 41.82 36.44 37.55 42.23 43.53 45.14 44.31 44.14 44.50 43.23 42.24 39.87 37.06 37.43 38.62 37.76 32.76 27.93 35.13 35.36 37.24 37.08 37.12 37.04 34.68 33.51 34.10 33.07 34.22 34.26 36.15 33.12 32.89
51.50 51.74 51.12 50.26 49.42 47.83 42.41 45.87 48.64 47.46 44.65 40.82 33.01 34.99 38.60 42.85 40.93 40.13 43.59 41.65 42.48 41.50 40.09 40.12 37.99 39.39 38.40 33.19 34.30 32.97 35.47 35.59 34.70 33.97 33.90 34.49 32.44 31.76 32.01 32.92 35.05 34.06 33.53 33.80
51.32 50.36 50.12 47.03 44.11 42.79 44.04 47.35 48.13 44.62 41.91 35.39 35.09 32.78 30.35 41.73 40.30 40.94 40.14 40.95 36.29 40.87 38.36 38.31 38.57 36.46 32.81 34.40 34.52 34.97 35.90 35.81 34.24 32.20 33.27 31.69 30.73 32.83 33.58 34.01 33.09 31.82 32.00 32.28
50.11 46.37 41.76 37.80 41.47 46.41 45.38 40.80 39.31 38.48 38.91 39.37 34.88 35.37 35.39 37.78 38.31 36.08 36.18 36.14 34.30 32.43 36.00 39.13 35.29 33.81 36.49 35.29 35.83 36.59 36.91 35.38 33.46 30.08 27.43 30.58 30.34 31.12 30.44 29.69 29.83 30.09 30.93 31.31
44.51 39.13 36.77 41.33 44.60 41.25 35.36 33.89 35.28 35.06 32.93 37.03 36.45 34.83 34.85 38.52 34.23 33.74 34.90 31.84 31.58 27.99 31.02 33.87 28.07 27.22 29.47 31.16 31.93 32.98 32.91 33.99 33.00 32.44 31.54 31.30 30.81 29.01 29.52 29.56 30.31 30.78 32.47 30.24
42.64 40.67 42.28 40.93 35.90 33.77 27.94 27.76 30.28 32.77 31.10 34.19 35.37 35.37 36.05 36.11 37.27 33.36 31.76 30.13 24.48 26.22 32.91 31.13 21.50 25.66 30.06 30.14 28.15 28.22 31.94 33.18 32.91 31.24 31.64 30.70 31.18 30.37 30.28 30.03 29.44 29.50 29.06 28.32
42.02 38.07 35.10 35.54 32.55 26.76 28.31 26.61 28.11 25.83 28.89 33.67 33.87 32.75 35.50 35.85 35.77 31.27 28.77 28.02 26.69 30.70 28.04 26.65 25.05 25.22 28.59 28.79 28.67 28.36 29.43 31.30 31.33 30.29 29.94 30.15 30.52 30.08 29.33 29.34 28.80 27.35 27.20 26.52
34.58 31.97 27.89 30.02 26.42 28.14 28.10 24.28 25.24 26.64 33.02 34.56 35.27 32.48 33.68 34.25 32.53 32.47 27.77 28.82 29.83 24.86 21.70 19.18 22.20 26.66 28.46 28.10 28.25 28.37 28.85 29.74 29.36 29.18 28.31 26.80 27.06 27.33 27.65 28.69 27.90 26.68 25.49 25.05
32.04 32.11 27.95 27.21 22.85 24.91 21.25 24.16 30.34 32.16 36.41 33.76 31.90 30.89 32.04 30.09 29.66 27.71 23.64 25.64 23.00 24.68 18.21 22.45 24.44 27.45 28.31 28.25 28.05 28.30 27.28 26.67 26.36 25.86 26.11 26.29 25.86 25.10 25.16 26.30 25.51 24.12 23.31 22.03
31.84 29.39 25.42 25.99 23.43 24.71 26.28 28.44 30.55 32.68 34.20 32.31 32.07 27.87 26.31 25.49 26.56 26.06 19.07 16.60 15.49 19.98 21.24 21.31 21.75 27.02 27.12 27.49 27.82 27.42 26.91 26.23 25.72 25.46 25.61 26.02 25.48 24.79 23.60 21.70 20.68 20.33 20.44 17.49
30.74 29.03 28.37 21.24 16.27 21.04 28.11 30.50 32.52 33.47 32.64 26.93 25.46 23.57 24.51 26.93 24.66 24.04 20.82 18.79 21.31 21.49 20.46 23.36 25.13 25.98 26.25 27.24 28.69 28.84 28.10 27.27 25.94 24.93 25.21 25.04 25.54 23.28 21.21 20.22 17.55 15.23 18.64 16.68

GFSNW_sfc_wetblb_021.txt.gz
Wetbulb
56.45 56.63 56.62 56.51 56.22 53.19 48.79 40.97 37.67 52.37 52.78 42.48 40.73 38.08 39.63 43.23 44.38 44.53 41.19 42.49 39.58 35.25 35.80 37.15 37.42 36.80 40.48 44.14 44.67 38.17 38.88 35.59 31.83 35.19 38.31 41.55 38.76 36.67 36.51 32.70 29.35 28.78 29.77 33.01
56.01 55.91 56.25 56.23 55.76 52.86 42.36 38.42 44.35 52.50 50.90 38.57 38.53 40.19 42.82 45.68 43.90 44.69 43.45 43.13 43.09 41.09 37.87 34.38 38.95 39.82 44.23 45.59 44.22 39.02 39.50 34.31 30.70 34.16 38.77 37.99 36.38 35.30 35.83 34.58 33.17 28.63 29.52 33.23
55.49 55.35 55.63 55.69 55.42 53.22 44.24 38.77 38.93 45.36 46.84 45.52 42.69 43.14 43.08 42.03 48.06 46.25 46.81 44.41 42.55 40.92 40.40 41.62 39.56 40.72 44.12 45.44 46.13 47.37 44.23 35.50 33.71 30.86 33.38 36.57 34.16 34.67 34.75 37.36 31.09 31.09 30.84 34.80
55.47 54.96 55.11 55.35 55.00 53.93 44.68 38.41 37.00 40.87 37.32 41.15 41.83 44.26 44.20 42.86 43.47 46.99 47.00 43.43 40.81 40.54 38.06 39.68 39.19 40.66 42.14 44.99 47.04 44.08 41.99 35.50 34.99 34.35 36.54 36.84 36.20 35.98 34.47 34.38 36.34 34.88 35.91 33.77
55.38 54.69 54.74 54.98 54.65 53.41 42.96 37.88 35.75 37.15 39.00 39.99 40.75 41.26 41.59 42.78 41.17 42.62 43.66 42.03 42.66 41.81 39.16 40.46 38.95 40.05 41.49 41.21 42.08 41.64 39.95 35.27 34.80 32.16 35.12 36.24 35.44 36.24 35.93 35.64 34.32 35.01 35.49 35.52
55.30 54.67 54.35 54.60 54.32 50.91 41.57 39.97 39.71 37.90 39.84 38.09 39.35 39.71 42.28 43.10 42.83 43.27 43.85 43.24 41.50 38.33 38.57 41.82 42.03 43.43 42.34 43.69 40.30 38.05 38.75 34.87 33.54 30.65 32.51 33.00 31.73 34.47 34.95 35.54 35.74 38.03 34.28 39.90
54.84 54.41 54.15 54.62 54.53 51.00 44.97 41.23 40.26 36.31 36.04 37.72 38.22 39.88 42.84 41.44 41.56 42.62 42.55 41.73 41.20 39.86 41.46 42.91 44.13 43.00 41.37 43.41 38.38 40.20 39.90 36.11 34.95 29.32 29.90 24.59 35.13 36.83 38.41 37.42 36.26 37.63 37.12 37.43
54.41 54.10 53.97 54.66 54.81 53.43 46.28 42.53 41.28 36.62 35.22 38.10 38.47 39.17 37.56 37.58 38.00 38.45 40.22 39.65 39.40 42.08 41.42 41.86 39.44 38.50 38.99 37.09 36.59 37.44 37.00 36.46 31.88 29.54 27.27 31.83 34.17 35.90 35.45 36.04 35.10 39.21 38.25 38.63
53.66 53.51 53.71 54.53 54.77 54.02 46.78 43.56 42.64 38.43 37.42 37.09 39.13 37.39 37.66 34.60 33.36 35.92 36.81 39.38 40.80 41.47 41.08 38.04 34.49 33.58 35.85 32.12 33.95 36.62 36.48 37.14 35.71 29.71 28.29 26.79 34.73 38.40 40.18 40.47 32.98 40.21 40.07 39.01
53.25 53.13 53.58 54.11 54.31 53.46 48.48 44.47 44.75 40.60 36.82 38.35 36.33 34.92 37.29 37.26 34.00 33.66 35.12 36.42 38.35 40.25 38.62 34.65 32.80 31.41 35.42 31.34 30.29 31.64 32.26 30.97 29.95 31.29 29.92 32.06 38.11 39.57 40.44 32.72 34.73 40.23 40.51 39.94
53.26 53.38 53.78 53.71 53.95 53.64 50.32 45.82 45.53 43.07 38.74 39.30 40.35 38.91 36.03 36.89 36.72 34.51 35.00 37.78 37.09 37.47 36.87 34.93 34.02 33.00 32.90 32.51 32.71 31.43 31.57 29.26 29.23 29.71 28.14 27.59 38.62 38.62 36.08 37.50 38.64 39.64 39.39 39.60
53.10 53.61 53.78 53.70 53.94 53.70 52.12 46.65 46.34 45.43 41.52 41.39 43.25 43.61 42.89 40.75 40.79 36.81 35.64 36.39 35.27 36.76 34.75 33.50 32.85 31.08 30.51 31.94 30.69 33.70 31.55 34.23 32.43 33.03 32.61 37.19 37.67 38.29 39.02 39.89 38.90 38.83 39.05 38.99
53.12 53.52 53.59 53.74 53.97 54.24 52.53 49.19 45.22 43.57 41.48 43.38 42.08 41.60 45.26 46.25 44.86 44.25 38.79 38.27 38.57 38.15 38.51 34.73 33.72 32.73 32.36 30.49 30.87 31.26 32.93 35.80 33.69 33.88 35.52 36.20 37.55 38.71 39.59 40.02 39.44 39.53 39.45 39.44
53.24 53.21 53.27 53.51 53.74 54.02 52.03 48.92 49.25 46.11 42.09 40.11 42.03 45.89 42.47 45.51 45.65 43.68 43.15 41.37 41.97 41.04 39.83 36.90 35.25 33.63 33.63 31.45 33.09 32.94 34.35 35.63 33.84 32.96 35.01 36.72 37.89 37.97 38.87 38.35 38.56 38.11 37.51 37.45
52.90 52.99 53.03 53.13 53.42 52.92 51.12 49.99 49.85 49.75 45.68 40.78 42.15 44.88 44.87 45.03 44.45 43.77 43.54 42.35 40.71 38.90 37.99 37.08 35.87 35.72 34.98 33.31 32.80 31.95 34.58 34.35 33.71 33.23 37.26 37.23 37.56 38.42 38.70 37.81 37.47 37.30 36.24 35.00
52.11 52.22 52.33 52.81 52.61 51.70 48.87 45.48 48.27 48.87 48.72 42.96 36.48 43.79 43.20 45.00 45.47 44.14 43.29 42.14 40.39 38.97 36.98 34.68 37.25 40.73 36.54 30.32 29.63 34.81 35.28 36.41 37.62 36.71 36.96 36.01 36.64 36.90 37.00 36.21 35.62 35.46 35.48 35.00
51.67 51.80 52.14 52.39 51.40 47.80 44.01 40.74 43.98 48.84 48.65 41.75 36.17 37.35 42.15 43.44 44.92 44.11 43.83 44.28 42.89 41.07 38.31 36.05 35.98 37.01 37.82 33.97 27.53 34.71 35.47 36.57 36.03 36.15 37.14 35.29 34.48 35.15 34.64 34.99 34.89 35.91 33.38 33.62
51.48 52.05 52.02 50.59 49.53 47.99 44.35 47.05 48.19 47.94 43.62 40.94 33.10 34.81 38.92 43.02 41.01 40.30 43.34 41.70 42.37 41.42 40.01 40.10 38.74 39.02 38.33 33.55 35.31 33.44 35.06 34.73 34.45 33.56 33.41 35.63 32.96 32.37 32.22 33.51 35.77 34.55 34.19 34.72
51.51 50.56 49.98 47.22 44.61 42.97 44.21 47.84 47.24 45.95 43.03 34.27 34.25 32.70 31.99 41.94 40.31 40.93 39.90 40.83 36.55 40.71 38.35 38.50 38.97 36.38 30.28 34.82 33.60 33.88 34.09 35.34 33.50 32.49 32.14 32.00 32.16 32.15 33.12 34.00 34.06 31.52 29.80 31.71
50.00 46.58 42.30 38.40 41.98 46.88 45.41 41.13 39.25 37.75 39.02 38.92 33.72 35.25 35.37 38.85 38.32 35.97 36.49 36.51 34.64 32.69 36.31 39.27 35.50 34.81 36.48 36.12 37.04 37.40 36.50 35.00 34.44 32.83 31.94 32.52 32.27 32.76 32.85 30.83 29.97 29.86 29.66 31.48
44.32 39.16 36.92 41.59 44.80 40.83 35.95 34.19 30.22 34.40 29.32 36.75 36.51 34.64 34.65 38.17 34.28 34.00 35.05 32.03 31.15 29.68 32.55 34.06 30.67 29.07 31.18 32.19 33.02 33.83 33.99 35.33 34.49 34.67 33.86 34.20 33.48 30.29 29.35 29.22 29.77 29.95 30.11 31.99
42.54 41.16 42.38 40.87 35.92 32.23 27.75 25.11 32.23 32.11 27.08 35.49 35.36 34.95 35.21 35.47 33.47 33.39 32.19 26.08 21.12 18.26 32.72 31.62 26.39 26.76 29.82 29.66 29.53 31.24 33.27 33.59 32.73 31.68 30.65 30.57 30.59 30.01 30.04 29.77 29.39 29.56 30.03 29.96
42.17 38.80 34.85 34.46 32.03 27.97 23.46 25.98 27.60 28.61 31.40 33.72 33.90 32.85 35.18 34.77 31.34 26.45 24.86 19.11 19.41 28.81 28.00 27.40 26.19 26.15 28.54 28.22 28.39 29.16 31.58 32.51 30.66 29.48 29.55 29.87 30.16 29.65 29.49 29.46 29.11 28.54 27.85 27.53
34.95 32.16 29.50 30.92 28.06 27.78 26.18 25.24 26.00 28.23 32.68 34.73 34.62 32.84 33.47 33.70 27.11 31.25 27.15 26.10 28.64 23.30 19.59 18.21 23.00 25.83 27.72 27.39 27.57 28.27 28.54 29.43 29.24 28.79 28.77 28.93 28.61 28.22 27.88 28.95 28.11 27.41 26.80 26.91
32.09 32.33 28.90 27.84 24.78 25.39 20.32 23.30 30.60 32.73 37.10 34.33 32.02 27.99 30.74 29.51 29.37 29.64 28.08 25.55 23.18 24.77 18.42 21.37 23.37 27.18 27.70 26.97 27.46 27.81 27.86 27.30 26.89 26.11 26.41 26.54 26.21 25.81 25.61 26.18 26.17 25.60 25.28 24.68
31.91 29.46 25.11 25.77 23.45 24.22 26.69 26.62 31.46 33.13 35.20 32.52 29.96 23.68 21.12 23.89 24.88 25.82 17.10 19.65 18.37 20.62 22.23 22.01 22.94 27.64 28.18 28.06 28.24 27.32 26.61 26.07 25.80 25.61 25.69 26.14 25.73 25.35 24.53 22.39 21.78 22.01 22.32 19.11
30.85 28.09 27.25 22.19 16.47 23.32 28.13 28.55 32.60 34.37 32.95 26.78 23.76 22.20 22.60 24.13 19.47 23.07 19.76 18.52 22.39 22.77 22.63 24.27 25.93 27.48 27.66 27.69 27.62 27.28 26.78 26.09 25.30 24.87 24.95 24.79 25.12 23.51 22.47 20.63 17.93 15.08 18.45 16.23

GFSNW_sfc_wetblb_024.txt.gz
Wetbulb
56.35 56.46 56.59 56.67 56.83 54.38 50.39 47.21 40.98 52.11 52.39 39.60 40.29 35.19 39.18 41.80 41.80 43.84 40.83 40.86 38.92 37.68 38.34 37.11 37.57 37.40 41.16 45.72 45.21 40.10 43.77 42.14 37.68 36.58 41.36 46.04 46.63 43.84 44.26 39.48 35.68 38.72 38.52 40.91
55.92 56.23 56.20 56.44 56.42 52.62 45.75 43.83 45.85 52.03 49.61 37.73 36.42 39.22 39.82 41.52 39.69 42.05 40.23 39.39 41.45 41.71 38.44 35.99 38.96 40.92 44.85 46.31 45.52 43.88 45.01 40.53 35.29 35.98 40.33 40.29 40.62 41.50 45.93 43.96 41.27 38.84 37.50 40.41
55.62 55.71 55.55 55.79 56.06 54.19 47.78 44.86 41.29 45.63 45.85 45.48 41.56 38.59 38.10 37.82 43.85 42.72 41.40 43.33 43.73 40.37 38.28 41.39 39.00 41.16 44.29 46.96 46.55 47.77 45.72 41.91 40.85 36.17 39.35 42.67 39.55 42.60 42.14 43.49 39.95 40.18 39.91 42.93
55.62 55.33 55.06 55.27 55.56 53.68 47.49 44.54 42.72 45.40 38.78 39.80 41.61 41.85 43.23 38.83 40.20 44.49 44.94 42.61 41.87 39.48 36.27 38.60 39.63 43.07 44.39 46.11 46.64 46.23 45.61 39.89 41.47 42.79 43.38 42.78 42.27 41.64 43.33 39.55 42.49 39.96 43.05 41.91
55.56 55.00 54.58 54.74 55.04 53.62 46.31 42.72 41.33 42.23 43.55 44.88 42.65 41.64 41.78 42.61 42.74 43.57 43.52 41.59 43.04 43.39 39.54 39.35 40.04 43.63 43.48 43.24 45.97 44.84 45.74 40.53 40.95 38.36 40.43 42.29 40.42 42.52 44.01 42.99 43.23 43.72 43.88 43.18
55.44 54.74 54.19 54.41 54.72 51.99 45.53 44.40 45.13 43.68 43.16 42.10 41.36 41.91 42.80 43.97 43.49 43.93 44.08 45.43 43.87 43.52 46.07 47.18 49.07 49.39 48.81 47.76 44.97 43.57 43.71 41.95 40.02 37.43 38.70 39.33 36.42 41.15 41.59 42.84 44.31 43.76 40.53 45.73
53.95 54.61 54.23 54.27 54.36 52.10 47.55 44.70 46.54 42.30 39.46 41.18 40.64 40.70 44.06 43.03 43.47 42.76 42.39 46.52 45.30 44.68 47.25 48.46 49.33 47.79 47.19 48.05 46.15 46.97 43.76 42.65 41.08 36.67 37.15 30.93 42.15 42.61 45.55 43.40 44.78 45.51 45.21 44.70
52.83 54.55 54.26 54.22 54.62 52.88 48.67 45.80 46.72 43.74 40.03 42.18 40.21 39.96 40.40 40.00 40.48 39.65 41.32 40.36 41.57 45.05 44.99 43.89 40.31 39.67 39.55 39.11 40.30 40.03 43.87 41.92 36.36 36.18 35.03 39.36 38.82 39.82 40.52 41.01 42.24 44.55 44.57 44.15
53.40 54.10 53.96 53.90 54.46 54.40 48.77 46.24 48.37 44.80 40.37 41.18 41.67 39.17 41.23 38.92 37.31 38.30 38.81 41.73 42.65 44.97 44.93 43.15 36.31 33.80 36.37 34.04 36.77 38.96 39.01 39.30 40.01 35.36 32.92 33.02 40.21 42.18 44.70 45.33 38.83 44.48 44.76 44.40
54.18 53.61 53.32 53.44 54.17 53.85 49.41 47.20 49.05 46.19 41.16 42.70 41.06 41.34 40.98 42.36 40.70 36.99 36.98 39.20 41.59 43.07 41.15 37.94 36.70 34.50 40.04 33.95 33.29 35.02 34.66 34.74 35.61 36.14 34.71 38.43 41.59 43.17 45.14 36.62 40.13 44.59 45.38 45.30
53.04 53.38 53.05 53.42 53.95 53.73 50.74 48.01 49.27 48.15 42.85 44.15 44.69 43.18 40.73 40.67 41.82 39.85 38.16 39.68 39.59 39.97 38.23 38.30 37.58 37.39 39.32 37.30 38.95 37.80 36.28 35.63 35.04 36.26 33.79 33.93 43.96 42.30 40.91 43.28 45.22 45.20 45.47 45.17
50.89 53.21 53.13 53.63 53.85 53.73 52.15 47.29 49.13 49.22 46.06 45.23 47.00 47.47 47.02 43.46 43.65 40.91 38.34 41.85 40.29 43.06 39.06 39.75 38.78 36.69 36.73 38.75 34.24 38.27 36.59 42.40 39.77 40.19 39.79 41.35 42.71 43.05 44.00 47.09 44.98 44.56 44.62 44.50
50.22 53.25 53.65 53.98 54.05 54.32 52.44 48.90 48.39 48.10 46.77 46.35 46.01 45.19 48.41 48.36 47.46 47.92 43.52 43.07 42.93 42.74 44.56 41.56 39.78 38.91 39.69 37.14 38.02 37.80 38.51 40.44 39.48 38.46 39.69 40.53 41.87 42.89 44.56 45.83 44.46 44.48 44.59 44.15
50.34 53.75 53.97 53.67 53.79 54.21 52.78 49.15 48.82 49.66 47.08 43.11 43.74 48.25 46.27 48.47 47.64 46.31 46.27 45.23 45.36 45.30 45.78 43.91 42.13 40.25 39.12 39.32 39.56 39.96 40.78 40.80 38.97 37.19 39.07 40.72 41.86 43.73 43.66 43.00 43.49 42.95 43.09 43.30
51.38 53.53 53.38 53.29 53.17 53.68 51.83 50.47 50.20 50.51 47.90 42.63 43.20 46.08 47.14 48.02 47.10 45.70 46.39 45.92 45.31 45.32 44.67 44.50 42.48 40.73 40.58 38.80 39.77 39.39 41.19 41.12 40.61 41.05 43.39 44.18 43.47 43.68 43.75 42.78 42.56 42.94 41.50 40.34
52.46 52.62 52.63 52.63 52.80 51.99 49.54 45.81 48.67 49.64 49.11 45.15 40.02 45.44 44.59 47.04 47.70 46.82 46.09 45.70 44.52 43.81 44.33 41.90 42.57 42.79 41.99 40.77 39.90 41.72 42.53 42.43 43.00 43.74 45.32 42.44 45.06 44.19 44.09 42.96 42.34 41.75 42.33 41.84
52.16 52.09 52.00 52.28 51.91 49.27 45.32 44.05 46.95 49.38 49.08 42.18 37.01 39.95 43.29 44.97 46.34 45.96 46.24 46.62 45.44 45.75 42.61 42.00 42.03 42.34 42.73 40.32 39.97 41.70 42.19 43.03 41.69 42.59 42.35 39.72 42.25 41.24 41.75 41.33 40.41 39.81 38.80 39.27
51.84 51.78 52.02 51.08 49.85 48.52 46.08 48.77 48.47 48.98 43.89 41.90 33.57 36.34 40.41 44.44 42.20 42.19 44.91 44.40 45.37 43.50 42.76 42.71 41.89 41.39 41.35 37.85 41.84 40.16 41.33 40.92 40.50 39.31 39.36 43.39 40.47 39.49 38.61 38.98 38.46 37.46 37.37 37.54
51.48 51.32 50.21 47.78 45.72 43.69 45.50 48.10 47.76 47.73 44.74 36.20 36.51 35.00 34.59 42.80 40.88 41.64 40.92 42.28 38.20 41.87 40.41 40.96 41.82 40.07 36.31 41.95 41.34 39.57 39.58 40.79 38.95 36.47 36.97 37.96 36.87 34.59 35.17 36.36 36.76 36.46 35.81 35.92
50.05 48.01 43.37 39.41 43.23 47.47 46.70 45.00 43.81 39.37 40.18 40.13 37.26 39.29 36.94 39.73 38.97 36.82 37.77 37.67 36.00 33.59 37.54 40.48 37.12 37.73 42.01 40.99 41.20 42.33 40.81 39.09 38.19 35.11 33.25 33.82 33.08 33.90 35.02 36.17 37.02 36.64 35.09 34.87
44.79 39.79 38.29 42.69 45.46 42.51 39.24 36.37 37.90 36.99 34.37 38.62 38.13 38.37 36.91 40.30 36.32 35.44 36.83 34.35 34.33 32.67 34.70 35.52 34.24 32.98 37.36 38.88 38.66 39.99 38.72 38.78 39.89 41.14 40.31 39.62 38.57 36.68 35.90 34.38 34.68 34.45 34.64 34.62
43.00 41.97 42.76 41.30 37.88 36.17 34.31 32.97 33.55 33.12 31.98 36.43 36.13 36.95 38.34 37.51 38.27 35.46 34.48 32.19 31.45 29.31 35.77 33.29 30.35 34.64 33.29 36.15 36.15 37.14 37.81 38.17 37.19 38.57 38.89 38.21 38.38 36.89 35.58 34.82 34.37 34.66 35.04 35.05
43.44 39.85 36.69 36.85 33.64 30.16 29.23 27.22 29.41 31.92 34.77 34.62 34.90 34.11 36.96 36.31 37.20 32.29 32.72 29.99 29.97 33.44 31.17 29.65 32.73 31.31 32.52 33.29 35.07 35.57 37.20 35.56 34.66 33.99 34.50 34.78 33.84 34.72 35.09 34.62 34.79 35.17 34.61 34.50
35.38 32.57 31.45 32.34 30.07 32.09 30.76 31.50 32.17 34.34 35.18 35.74 36.44 34.15 34.75 35.17 34.26 33.51 29.45 29.60 30.55 26.37 23.95 25.83 30.55 31.28 31.67 32.19 33.46 35.50 34.27 33.35 33.04 32.99 33.85 33.72 33.83 33.59 33.75 34.32 34.15 33.74 33.26 32.51
32.68 33.70 30.59 31.24 28.15 27.31 26.62 29.60 32.94 35.00 38.09 36.23 34.54 34.13 34.37 31.43 30.96 32.17 29.72 26.95 25.13 26.47 25.51 29.36 30.31 31.43 31.15 31.23 33.24 34.34 32.45 31.69 31.91 32.82 32.65 32.20 31.74 31.87 31.27 32.12 32.38 32.61 31.80 31.17
32.28 31.14 27.64 27.45 27.91 26.55 28.93 31.06 32.88 34.84 37.45 35.51 35.15 30.62 29.17 27.45 30.10 26.87 25.55 25.01 23.77 28.13 30.90 31.17 31.16 31.50 31.28 31.21 32.59 32.43 31.95 31.99 31.43 31.23 30.71 30.73 30.54 30.42 30.16 28.54 29.19 29.47 29.33 27.88
31.51 28.86 29.25 27.04 27.68 28.12 29.74 32.03 34.64 36.31 35.92 31.87 31.74 29.90 28.40 29.30 26.53 26.12 26.53 26.35 29.77 30.02 28.81 30.25 32.64 31.74 31.12 31.02 30.38 30.28 30.30 30.38 30.39 30.14 29.78 29.44 28.78 28.10 27.54 27.64 24.24 23.73 24.11 23.34

GFSNW_sfc_wetblb_027.txt.gz
Wetbulb
53.37 55.93 56.29 56.45 56.68 56.46 51.17 45.54 39.04 51.19 51.66 40.09 40.08 35.77 37.67 40.94 39.91 42.21 41.09 40.34 38.47 36.56 38.78 37.35 37.94 36.88 40.80 44.81 44.71 39.14 42.42 40.27 34.69 36.92 41.87 47.38 47.16 44.09 45.04 40.35 37.72 41.16 40.67 39.84
52.08 55.23 55.99 56.26 56.61 53.82 47.19 42.77 45.14 51.01 49.19 35.52 36.12 38.96 39.05 39.95 40.24 40.81 40.25 38.01 41.10 41.61 39.60 35.76 39.47 40.59 44.81 45.86 43.87 42.01 44.63 40.60 35.13 35.17 40.33 43.61 42.95 45.48 46.18 45.98 44.06 40.57 38.27 40.71
51.65 53.12 55.49 55.60 56.04 53.62 49.44 43.86 40.49 45.60 45.81 44.28 41.48 38.27 38.00 37.26 42.34 40.69 41.81 39.72 42.27 40.76 39.34 41.56 38.79 40.49 44.17 46.23 45.11 47.40 47.15 42.35 40.28 37.27 40.14 42.58 40.85 42.89 45.33 44.93 40.56 41.41 42.12 43.19
51.38 51.81 55.22 55.18 55.46 53.86 48.75 43.24 42.76 45.14 37.80 39.35 40.84 41.53 40.34 39.37 35.92 41.48 42.39 40.06 40.82 40.42 37.15 38.57 39.24 42.26 43.35 45.73 46.41 45.73 45.43 40.38 42.55 43.66 44.70 45.05 44.18 43.10 42.91 42.75 44.09 41.38 44.22 43.70
50.80 51.64 54.81 54.75 55.12 53.99 47.20 41.28 40.93 46.26 44.09 42.80 41.13 40.36 39.49 39.04 39.35 40.40 38.99 39.39 41.02 42.83 38.95 39.78 39.27 42.59 43.06 42.53 44.88 44.32 45.85 41.11 42.41 40.84 43.10 44.02 42.04 44.42 44.98 44.47 44.35 44.49 45.43 45.21
50.61 51.36 54.41 54.35 54.88 52.23 46.97 45.81 45.69 44.87 44.09 44.25 42.81 42.36 41.14 42.42 44.05 44.12 44.43 41.32 42.75 41.88 42.04 44.77 47.47 48.04 47.89 47.62 44.24 42.91 42.97 42.00 40.16 37.28 41.20 41.30 37.81 42.51 43.74 45.13 47.17 45.95 42.06 46.56
49.27 50.41 53.50 54.25 54.68 53.25 48.94 45.48 46.03 42.04 38.22 41.71 42.64 43.87 43.40 43.49 43.92 42.80 44.25 45.34 44.21 47.01 50.07 48.74 48.28 48.60 47.93 48.12 47.56 47.70 42.87 42.03 41.01 37.67 39.65 31.60 42.83 45.56 46.71 45.17 46.60 48.36 48.18 49.18
49.50 50.27 50.70 54.25 54.68 53.90 49.13 46.70 45.45 43.55 39.77 42.84 43.80 41.83 41.75 41.91 41.76 40.82 43.78 44.46 44.86 50.98 48.57 43.23 40.39 40.26 40.45 40.53 44.25 46.09 46.95 43.78 39.10 35.93 36.16 41.11 43.58 42.63 43.18 43.31 43.58 48.11 47.46 48.73
48.51 49.65 51.42 54.14 54.43 54.14 50.47 47.27 48.76 45.35 42.08 41.73 44.71 40.33 42.21 39.75 39.45 40.61 41.39 44.31 46.30 47.02 46.31 42.23 35.32 33.95 36.74 35.42 36.85 39.92 44.48 45.87 40.99 39.19 34.88 32.20 41.93 44.06 46.56 47.82 39.91 49.43 49.32 47.94
48.00 49.16 53.53 53.86 53.92 53.97 50.89 48.19 48.85 46.64 42.90 45.78 44.44 41.34 40.58 44.53 41.97 38.49 39.79 42.68 44.56 46.61 43.82 40.32 38.43 36.47 40.26 34.71 35.00 35.35 35.66 37.56 37.49 37.04 35.66 40.38 44.11 45.15 47.24 37.79 41.29 46.73 48.10 48.21
47.76 48.89 50.21 53.54 53.49 53.84 51.16 48.14 48.60 48.02 45.68 46.38 45.85 44.95 43.60 42.68 44.42 40.47 40.03 41.87 42.46 42.38 40.72 40.98 40.65 39.80 40.59 40.17 40.90 39.80 35.96 34.26 34.52 36.51 34.68 33.49 45.69 43.88 41.08 44.59 46.62 46.78 47.86 48.13
47.71 48.99 49.64 53.38 53.46 53.57 52.35 47.33 49.34 51.18 48.35 46.96 48.65 48.43 48.29 45.48 43.87 42.25 39.81 40.64 41.84 44.08 40.73 41.03 41.80 39.02 40.62 41.40 35.76 42.98 39.23 43.36 39.93 41.41 40.59 43.71 46.64 45.16 46.71 48.74 47.19 47.27 47.31 47.10
47.78 49.33 49.97 53.41 53.94 54.06 52.43 48.21 48.82 48.36 47.02 47.54 46.66 45.78 49.51 50.29 48.63 48.57 42.38 42.64 44.69 43.54 44.67 42.69 42.39 40.02 42.93 39.08 40.32 41.17 42.02 42.66 42.35 41.09 42.50 43.35 44.59 44.94 46.65 48.83 47.45 47.89 47.23 46.13
48.07 49.16 50.49 53.35 53.83 54.01 52.56 48.53 48.80 50.18 49.46 44.28 45.08 49.68 48.03 50.56 49.22 47.72 48.03 46.05 47.18 46.23 45.64 44.08 42.86 41.78 41.97 41.48 42.19 42.36 42.57 42.33 42.34 40.55 41.39 42.39 43.57 45.85 46.57 46.24 46.23 45.44 45.89 45.79
47.79 49.10 50.57 53.46 53.40 53.52 52.96 50.81 49.83 51.12 49.16 43.90 43.75 47.86 48.45 49.49 48.51 47.10 47.49 47.89 47.24 46.34 44.74 45.34 43.90 42.22 41.93 41.52 41.95 41.42 42.93 42.64 40.67 41.16 45.44 45.46 44.99 46.24 46.20 44.55 44.05 44.53 43.66 43.09
48.18 49.26 51.95 52.93 52.66 52.03 50.05 45.70 49.12 50.57 51.04 46.69 39.96 46.65 45.99 48.23 49.14 48.25 47.44 47.16 47.16 47.78 47.41 45.15 44.74 44.35 44.22 42.15 41.33 45.38 45.40 45.89 45.33 44.96 47.06 46.41 46.31 45.58 46.46 44.74 44.45 44.68 44.25 43.49
49.06 49.86 52.38 52.23 51.90 50.84 45.97 44.39 47.51 50.56 49.80 44.11 39.33 40.60 44.38 46.57 47.72 47.68 47.69 48.55 46.78 47.84 45.41 45.15 45.02 44.13 44.49 42.39 41.40 45.22 45.00 45.55 44.77 45.73 45.70 43.70 44.65 43.31 45.81 44.66 43.89 44.30 43.59 43.29
49.77 52.16 51.97 51.70 50.40 49.07 46.46 48.78 49.32 49.45 44.72 42.99 34.07 37.91 41.27 45.51 43.46 42.90 46.32 45.92 47.03 45.29 44.91 44.22 44.19 42.90 43.54 40.10 44.54 44.59 45.07 44.51 43.99 43.82 43.59 46.06 45.60 44.26 42.71 42.16 41.38 40.32 39.95 39.69
51.74 51.54 50.42 48.85 46.86 44.46 45.99 48.00 48.46 48.32 44.93 36.98 37.75 35.51 36.14 43.98 41.45 42.60 42.77 44.61 42.02 44.26 42.76 43.43 43.18 42.82 37.37 42.43 44.05 42.77 43.77 43.01 41.74 40.71 41.42 41.81 40.01 38.45 39.01 39.85 40.58 39.59 38.52 38.98
50.32 49.01 44.13 40.18 43.70 48.23 47.49 46.27 44.82 42.77 40.75 41.46 39.69 42.53 37.26 40.66 39.51 37.66 39.29 38.72 38.03 34.96 38.93 41.84 39.13 39.19 44.97 44.42 44.58 45.58 44.44 43.63 39.80 35.95 33.94 34.42 34.38 34.98 36.38 38.63 39.90 39.83 38.06 36.77
45.11 40.81 39.06 43.16 46.49 43.58 41.64 37.25 40.66 38.56 36.33 40.18 39.65 41.32 37.92 41.19 37.22 36.40 37.68 35.40 35.66 34.29 36.71 37.33 36.20 35.38 40.12 42.59 42.68 44.67 44.15 41.84 42.16 44.10 41.63 41.12 39.35 38.28 38.36 38.17 37.28 36.63 36.62 36.13
43.44 42.61 43.40 42.07 39.00 36.85 34.75 36.01 35.12 33.33 34.30 38.20 37.31 39.03 40.87 38.94 39.82 36.76 35.99 34.05 34.72 30.36 37.98 34.80 31.83 37.27 36.23 38.84 40.37 41.57 41.28 41.41 40.99 42.49 41.65 41.41 40.66 40.23 37.92 36.62 35.89 36.18 36.50 35.91
44.12 40.54 35.75 38.03 35.02 32.04 31.06 28.33 31.37 32.49 36.13 36.23 36.50 35.38 38.04 38.23 39.04 34.81 35.34 32.09 32.74 36.07 31.78 30.36 34.80 34.24 36.06 37.95 38.67 38.81 38.61 38.36 38.77 38.26 39.77 38.14 36.42 37.11 36.71 35.76 36.64 36.89 36.47 36.12
35.24 33.22 31.48 33.44 30.76 33.57 33.89 34.90 35.14 38.18 36.80 36.42 37.45 35.56 35.72 37.73 36.04 35.73 31.82 32.14 32.18 28.86 26.88 28.52 34.39 34.61 35.13 37.10 37.71 36.36 34.57 35.03 34.66 34.83 35.27 34.89 34.93 34.92 36.08 36.04 36.60 36.08 34.81 33.93
32.44 34.58 32.04 32.13 31.47 30.44 31.42 34.39 34.84 37.17 39.50 38.06 36.83 37.09 35.81 33.30 32.31 34.00 29.87 27.97 26.77 28.72 28.62 32.37 33.07 34.25 34.31 35.37 36.45 33.44 32.66 33.30 33.96 35.31 34.81 34.33 34.55 34.26 33.47 34.29 34.79 34.59 33.67 32.73
32.24 32.42 30.03 29.93 30.63 28.60 30.15 32.14 33.58 37.81 39.14 38.73 39.63 33.27 32.26 28.83 31.96 27.92 27.90 27.50 26.79 31.17 34.04 34.15 34.16 33.79 34.74 36.02 35.43 33.06 33.02 33.16 33.44 33.87 33.53 33.05 32.74 32.55 31.24 31.91 31.86 31.21 31.38 30.00
31.86 30.41 32.77 31.89 32.82 31.35 31.80 34.66 35.73 40.00 38.20 35.79 35.74 31.99 31.31 32.03 28.27 28.49 31.52 29.55 32.92 33.55 32.84 35.03 34.75 33.49 34.80 34.98 31.56 30.97 31.65 32.28 32.18 31.77 32.06 31.04 30.88 30.62 29.79 27.64 25.46 26.13 26.59 25.28

GFSNW_sfc_wetblb_030.txt.gz
Wetbulb
51.23 50.99 52.12 54.59 56.17 55.89 52.47 45.93 39.64 50.92 51.95 40.06 39.53 35.00 37.30 40.15 39.48 41.57 39.21 39.66 38.32 37.05 36.38 34.12 35.04 34.70 38.96 43.76 42.10 37.08 39.88 38.31 33.60 35.04 41.29 45.48 44.08 42.83 41.29 34.82 33.34 35.79 34.20 32.99
50.68 50.70 51.50 52.19 56.19 54.65 48.72 43.22 44.56 51.06 49.16 34.98 35.68 38.48 38.25 39.47 38.82 38.90 38.29 37.45 39.28 40.08 37.06 33.71 36.80 38.57 43.11 44.28 42.49 39.37 41.75 37.17 32.41 33.71 39.39 43.54 41.85 43.31 43.98 42.14 40.03 35.11 31.80 32.97
50.37 51.07 51.11 51.60 55.52 54.21 49.73 44.12 39.64 44.29 45.04 43.31 39.60 36.88 36.89 37.17 41.31 39.28 40.49 39.17 40.78 39.49 37.13 39.75 36.47 38.09 42.81 44.52 43.89 46.87 45.66 40.63 36.08 33.77 37.06 41.18 39.96 41.98 42.89 40.61 35.52 35.65 35.24 35.40
48.91 49.78 50.22 51.62 54.87 53.40 49.04 43.96 41.17 43.53 36.61 38.19 40.04 40.65 40.20 38.14 35.40 40.26 41.00 37.93 38.67 38.66 35.51 37.00 36.81 39.52 41.86 44.20 44.96 44.66 43.39 37.93 40.09 40.93 41.97 42.61 42.16 42.00 40.68 40.03 40.74 35.76 38.42 39.13
48.40 48.81 49.25 50.18 54.96 53.07 47.45 40.41 40.12 44.10 42.46 41.65 39.97 39.65 38.50 38.24 39.00 38.71 37.95 38.04 39.28 40.51 37.30 38.01 36.58 39.08 40.75 38.72 41.42 40.88 43.40 38.35 40.21 38.89 42.13 42.69 40.51 42.06 41.41 41.36 42.61 41.51 41.45 40.57
48.25 48.41 50.04 50.03 53.10 52.65 47.17 46.22 45.20 43.09 42.33 41.36 39.75 39.60 39.86 40.79 42.97 42.03 42.05 40.63 40.87 39.10 41.47 42.67 43.27 44.55 44.54 43.88 41.46 39.74 40.18 39.18 37.35 32.57 38.69 38.63 34.27 39.86 41.80 42.15 43.38 42.49 38.95 43.30
48.45 48.22 49.53 50.43 54.45 53.24 49.55 46.18 45.99 41.60 36.59 39.32 39.91 42.42 43.98 42.81 43.10 41.67 42.36 43.21 41.27 44.95 48.05 45.32 46.11 45.44 44.31 45.59 43.21 43.65 39.57 38.58 38.90 34.07 34.85 25.40 37.58 41.34 43.48 42.84 44.71 45.78 46.02 45.96
48.18 47.94 49.15 49.93 50.74 53.87 49.70 46.65 46.02 43.52 38.46 41.24 40.80 41.23 42.08 42.51 42.83 41.58 44.08 44.29 46.25 48.85 46.26 38.57 37.15 38.97 40.01 39.88 40.17 42.13 42.44 40.35 35.57 32.55 31.52 36.98 38.53 39.90 39.79 39.57 40.61 44.51 44.52 46.60
47.74 47.54 48.45 49.49 52.82 53.72 50.67 47.76 49.58 45.48 40.78 39.22 43.27 41.89 42.23 40.77 40.57 41.10 40.46 44.13 45.34 45.55 44.80 41.01 32.68 31.70 36.56 35.42 37.12 41.30 42.07 42.66 38.66 34.19 30.61 28.25 36.90 41.13 44.05 43.47 34.93 42.98 44.92 44.34
47.37 47.51 48.44 49.27 50.19 54.05 51.42 48.87 50.11 46.85 41.63 43.90 43.10 40.52 40.82 44.23 42.15 38.70 39.96 42.43 42.70 45.05 42.81 38.20 34.67 34.42 38.94 34.21 35.12 35.45 37.35 38.29 35.99 35.75 33.73 35.40 40.24 41.02 43.18 33.71 36.15 42.90 43.99 44.28
47.16 47.81 48.35 49.46 49.95 53.83 52.05 48.55 49.69 47.63 43.94 44.70 45.75 44.32 42.79 42.18 44.18 40.91 40.94 41.78 42.62 41.28 40.49 39.41 39.12 37.55 38.18 38.13 39.14 37.52 36.10 33.84 33.54 36.37 33.40 30.11 42.40 40.87 37.54 40.74 41.85 42.69 43.80 44.00
46.84 47.58 48.34 49.49 51.10 53.68 52.72 47.48 49.11 50.12 46.25 46.33 48.12 48.34 48.37 45.67 44.77 43.11 41.13 41.19 41.85 43.92 40.12 39.14 39.29 37.87 38.28 37.69 35.72 42.41 36.71 39.78 36.55 37.99 37.63 42.01 42.41 41.16 43.23 45.28 43.13 43.37 42.40 42.94
46.76 47.40 48.33 49.43 50.90 53.87 52.67 48.15 48.84 48.01 45.66 46.41 45.77 44.93 48.68 49.61 47.70 49.04 42.69 42.68 45.27 44.17 43.67 42.71 40.88 37.11 38.91 34.73 35.61 38.58 40.72 44.20 38.36 38.21 39.90 41.06 42.73 41.76 42.74 44.49 43.87 43.96 43.38 43.01
46.60 47.15 48.12 49.10 50.28 53.57 51.99 48.38 49.07 49.25 47.61 42.46 43.85 49.31 47.00 49.90 48.51 47.60 47.74 46.69 46.89 46.03 46.28 43.55 42.01 40.52 40.22 39.38 38.48 38.16 38.86 39.89 38.33 37.30 39.31 40.42 40.58 41.86 43.27 42.78 42.83 42.44 42.70 42.57
46.24 46.60 47.70 48.71 50.13 53.16 52.27 50.75 49.83 50.82 48.15 42.80 43.33 47.22 47.67 48.63 47.75 46.22 46.63 46.11 44.84 44.39 43.75 43.01 41.54 42.61 40.66 39.91 39.75 38.27 39.68 39.12 38.08 37.73 42.14 41.26 40.47 43.00 43.34 42.10 41.65 41.96 41.94 40.91
45.80 46.21 47.72 49.23 51.15 52.86 50.25 45.35 49.51 50.60 49.87 46.06 38.32 46.40 45.46 46.19 47.02 46.19 46.01 46.10 45.74 45.62 45.01 43.32 43.02 43.38 41.17 36.81 36.78 43.39 42.50 42.77 43.52 41.83 42.91 42.83 42.91 42.81 43.22 41.96 41.56 41.32 40.66 40.57
45.75 46.67 48.07 49.38 52.32 51.24 46.51 44.37 47.45 51.00 50.23 43.87 38.12 39.84 44.08 45.70 46.05 45.67 45.48 46.93 45.39 45.17 43.44 42.54 42.06 41.27 41.55 39.83 37.80 42.29 42.22 42.16 42.24 43.53 43.18 40.06 41.00 40.28 42.09 41.86 41.92 42.40 39.87 39.40
46.06 47.27 49.24 51.89 50.90 49.42 46.45 48.22 50.19 49.94 45.41 43.36 34.27 36.85 40.61 44.77 42.82 41.12 44.14 43.89 44.82 43.34 42.59 42.32 41.50 40.37 40.91 36.10 42.26 41.34 41.73 41.37 41.09 39.94 41.75 42.20 41.64 40.73 39.14 39.01 39.17 37.60 36.75 36.84
47.26 49.01 51.13 49.25 47.05 44.21 45.54 48.33 49.28 47.95 45.27 36.70 36.24 34.43 34.45 43.61 41.32 42.42 41.86 42.07 39.17 42.34 41.43 41.58 41.07 39.85 34.76 39.95 41.85 40.41 40.32 39.66 38.37 38.85 38.87 38.99 37.36 36.37 36.48 37.03 36.91 35.92 35.15 34.92
49.24 49.40 44.38 39.56 43.96 48.10 47.60 44.89 42.53 40.17 40.68 40.68 38.08 41.51 36.82 40.32 39.45 37.48 38.86 38.63 36.83 32.28 38.08 39.50 37.73 37.41 42.19 42.64 41.89 41.43 40.93 38.95 38.12 35.11 34.29 35.35 35.12 35.00 35.49 36.26 36.57 36.27 35.04 34.25
45.51 41.51 38.41 43.59 47.69 43.91 41.14 36.88 37.77 37.90 33.99 39.13 39.15 39.91 37.24 40.97 36.80 35.60 36.65 33.94 33.35 32.26 34.50 35.41 34.37 34.24 37.67 38.39 40.05 40.46 39.10 38.87 38.28 38.75 37.43 37.50 36.74 36.27 36.50 34.51 34.51 34.28 33.68 33.00
43.99 42.54 43.40 42.16 39.17 36.78 34.32 33.94 34.01 33.99 31.78 37.71 36.95 38.69 39.53 36.11 39.27 34.58 34.94 32.76 33.01 30.22 35.62 33.53 30.51 32.78 34.49 37.02 37.94 38.72 39.03 39.30 39.28 39.34 38.36 37.84 37.89 37.14 34.80 33.32 32.94 33.09 33.36 33.30
43.84 40.32 36.39 37.06 33.58 32.02 29.57 27.65 29.67 31.08 35.33 35.46 35.61 34.39 35.95 35.43 35.75 31.90 31.03 29.48 29.13 32.82 30.86 29.95 30.99 30.89 34.54 35.06 36.21 34.92 37.28 39.31 39.31 38.56 38.22 35.66 34.27 34.19 33.89 32.93 33.37 33.57 32.64 32.46
35.50 32.71 30.96 33.23 31.14 30.53 30.64 30.80 31.47 33.83 35.51 36.05 35.70 34.17 34.18 33.84 31.40 30.77 22.79 29.44 29.41 25.77 24.30 22.68 29.18 31.01 33.37 36.76 34.24 33.23 34.00 35.59 34.48 33.91 33.67 33.18 33.31 32.69 33.10 33.13 33.38 32.84 31.50 30.52
32.16 33.34 31.41 31.59 31.34 30.85 31.79 33.31 34.12 36.27 38.49 36.18 34.48 33.74 32.51 30.36 26.80 29.66 28.40 27.05 22.19 25.33 24.81 27.84 29.31 31.17 32.79 32.93 32.02 33.01 33.20 33.57 33.47 33.00 32.50 31.93 31.76 31.61 30.97 31.28 31.46 31.20 29.87 29.19
32.06 31.97 29.76 30.58 30.60 28.76 31.27 32.62 33.55 36.82 38.33 35.53 33.47 30.90 27.03 28.30 27.32 24.85 20.37 20.82 20.81 25.69 27.55 27.13 27.25 30.83 33.31 32.72 32.11 32.10 32.92 33.13 32.42 32.20 31.34 30.88 30.42 29.78 28.89 27.91 27.77 28.25 27.43 26.31
31.65 29.77 32.10 31.66 32.42 30.79 32.06 34.08 34.69 40.00 36.43 32.59 31.94 26.16 24.14 30.79 27.49 21.72 25.05 24.42 26.81 25.53 25.75 27.16 29.28 30.82 33.05 31.65 31.16 31.13 31.07 30.80 30.65 29.26 28.25 27.52 27.09 26.35 24.69 22.16 22.02 23.20 23.27 22.24

GFSNW_sfc_wetblb_033.txt.gz
Wetbulb
49.13 50.30 50.57 51.77 52.00 55.05 53.35 46.96 40.36 50.23 50.31 39.22 38.51 35.33 36.33 39.94 38.71 41.61 39.10 38.36 37.03 35.85 37.10 35.60 33.65 32.25 35.33 41.12 41.12 35.73 39.13 36.56 31.47 35.09 40.31 43.15 41.08 40.38 41.48 33.17 32.29 32.36 29.69 30.96
48.91 50.03 49.66 51.24 51.73 53.10 48.88 44.22 44.09 50.08 48.53 34.65 35.21 38.34 37.74 39.20 38.47 39.04 37.88 36.15 38.45 39.33 37.40 34.73 35.16 35.75 40.53 43.01 40.51 37.68 39.63 35.03 30.45 34.22 38.43 41.82 38.10 41.53 42.67 41.34 38.90 34.45 28.40 30.71
48.65 49.67 49.07 49.79 50.17 51.17 50.07 44.16 38.62 44.12 45.22 43.51 38.66 36.83 36.86 36.37 41.76 39.84 39.32 38.19 39.25 38.08 37.01 38.22 34.85 35.35 40.34 42.34 42.13 45.71 43.64 39.51 34.78 32.26 35.17 40.50 38.31 40.54 41.15 40.26 35.37 34.35 31.82 34.29
48.40 49.44 48.68 49.29 50.48 51.96 49.06 44.58 40.82 42.18 36.65 38.63 39.61 39.72 38.80 36.97 36.34 40.21 40.47 36.32 37.63 37.35 36.28 36.11 34.63 37.24 38.50 42.31 44.94 43.61 41.75 35.21 37.45 37.62 39.34 39.58 41.29 41.06 40.32 39.16 39.35 34.87 33.86 36.20
48.06 48.97 48.53 49.21 49.93 53.37 47.90 40.98 40.83 42.81 40.08 40.21 39.22 39.12 38.15 37.47 38.50 38.10 36.11 35.44 37.80 39.06 37.17 36.09 34.48 37.62 37.77 37.32 41.29 40.57 41.74 36.25 39.14 38.13 42.04 41.64 39.86 41.71 40.58 39.27 41.56 40.80 39.34 38.22
47.93 48.52 48.55 48.88 49.21 49.88 47.43 45.95 45.49 43.88 42.31 39.95 38.43 38.13 38.28 38.05 40.99 42.13 40.92 38.92 38.19 38.06 39.05 41.75 42.11 41.51 41.62 41.28 39.16 39.06 39.80 38.35 37.66 33.34 39.21 39.84 35.27 39.48 40.07 39.74 39.97 41.50 37.24 41.69
47.90 48.14 48.62 48.70 49.37 50.99 49.31 46.79 45.74 41.04 37.90 39.84 39.50 40.93 41.13 39.41 40.74 41.25 42.52 42.15 39.87 44.36 45.03 43.66 44.33 40.50 42.50 43.13 41.48 42.04 37.99 37.87 38.70 34.26 34.48 26.35 36.95 40.19 43.33 41.85 42.27 42.43 43.22 45.12
46.99 47.81 48.23 48.24 49.46 49.82 48.46 46.62 46.48 43.18 38.44 40.93 40.84 40.82 39.97 41.72 43.00 41.60 42.67 43.30 45.37 44.75 41.84 35.75 35.85 37.38 37.07 38.84 40.79 38.11 39.79 38.39 35.10 31.80 29.85 34.11 36.78 38.80 38.28 39.04 39.05 42.92 43.86 44.61
46.99 47.48 48.01 47.91 49.22 50.08 50.74 47.55 49.17 45.74 40.78 39.57 42.85 39.60 41.21 39.43 39.27 40.93 40.88 43.97 44.23 43.59 40.75 35.71 28.87 31.43 32.07 32.78 36.41 41.59 40.53 39.43 37.89 34.26 27.84 26.95 36.54 39.79 41.47 40.99 33.49 41.12 41.14 42.61
46.37 47.27 47.77 47.80 48.94 49.75 49.73 48.37 50.08 46.64 40.88 43.68 44.28 39.73 40.12 43.34 42.21 39.09 39.95 41.82 41.98 44.65 37.57 33.65 32.11 33.87 36.21 32.74 33.49 35.83 37.25 37.31 35.18 34.69 33.76 33.97 40.73 40.69 41.72 33.07 34.36 40.81 40.97 42.34
45.82 47.16 47.58 47.90 48.89 49.80 51.04 48.12 50.09 47.81 43.40 44.46 45.63 43.82 41.93 42.28 42.49 40.07 41.39 41.32 41.76 41.81 37.39 37.45 35.77 35.63 37.53 35.40 36.83 36.70 34.54 35.23 34.47 35.06 31.76 30.58 40.98 38.88 35.74 38.93 40.43 40.71 40.36 40.60
45.62 46.94 47.34 47.72 48.97 50.21 52.16 46.69 49.57 50.58 46.33 45.92 48.43 47.36 46.96 46.36 45.31 44.60 42.05 40.79 41.28 42.96 41.46 40.34 37.81 37.86 36.66 35.86 34.24 38.58 34.85 38.04 35.34 37.88 37.36 40.74 39.95 39.93 42.05 43.73 41.74 40.32 40.06 40.81
45.76 46.81 47.20 47.77 48.70 50.06 52.68 47.85 48.74 48.08 45.24 45.20 45.84 43.59 47.57 48.56 46.82 48.88 42.89 43.13 44.61 43.70 42.28 41.26 39.24 35.80 37.62 34.43 35.58 37.06 39.32 41.64 38.13 38.86 40.29 39.88 40.94 41.05 42.24 42.95 42.32 41.83 42.08 41.32
46.19 46.63 46.86 47.22 48.38 49.58 51.14 48.28 49.27 48.93 46.53 41.00 42.68 48.24 46.01 48.52 47.92 48.05 48.39 46.63 47.50 46.25 44.55 42.15 40.69 38.33 39.06 36.76 36.78 37.03 38.71 40.80 38.16 37.19 37.68 38.26 39.63 40.23 41.91 41.32 41.78 41.04 41.00 40.63
45.87 46.03 46.35 47.11 47.98 49.39 51.73 50.08 49.59 50.87 47.56 42.28 42.57 45.48 46.23 47.33 46.42 46.18 47.43 46.79 45.27 45.27 43.64 42.52 40.19 42.52 40.18 39.47 38.27 37.03 38.94 38.57 36.88 36.54 40.52 39.78 39.86 41.36 41.86 41.37 40.60 41.09 40.30 39.15
45.20 45.71 45.90 46.72 47.88 49.21 50.15 45.01 49.51 50.53 49.96 45.17 37.34 45.82 44.56 45.17 45.13 44.91 45.06 46.03 44.36 45.31 44.55 43.42 43.93 43.60 41.82 38.03 36.78 41.96 41.59 41.41 42.53 41.43 41.44 41.29 41.33 41.73 42.04 40.92 40.56 40.78 40.41 40.31
45.37 45.37 45.82 46.72 48.09 49.60 46.64 44.26 46.77 51.05 50.56 43.53 36.99 39.23 43.76 45.69 46.04 44.98 44.94 45.76 44.59 44.76 42.70 41.33 41.25 40.58 41.52 39.23 36.48 42.82 40.85 41.02 40.90 41.67 42.57 39.64 39.80 38.96 40.62 40.74 40.28 40.27 38.32 38.17
45.24 45.59 46.41 47.13 49.31 49.72 46.80 48.32 50.24 50.87 46.26 43.74 33.82 36.54 40.23 44.48 42.10 39.41 42.43 41.78 42.83 42.31 41.72 40.81 40.21 39.73 40.09 35.49 40.70 39.05 40.07 40.07 39.46 40.21 40.73 41.18 40.05 39.53 38.74 38.94 38.52 36.82 36.06 35.91
45.61 46.52 47.27 48.32 47.29 44.50 45.41 49.21 48.50 48.12 45.49 37.35 36.01 34.36 34.20 43.40 40.48 41.59 40.20 40.02 38.43 40.47 40.34 40.55 40.25 38.91 33.97 39.07 40.75 39.06 38.95 39.17 37.68 37.75 38.64 39.13 37.69 36.75 36.69 36.35 35.78 35.01 33.77 33.58
47.06 46.44 44.65 40.02 44.50 48.51 48.26 45.26 42.35 40.34 40.78 40.68 37.56 41.09 36.88 40.24 39.20 36.86 36.31 37.73 35.80 32.59 37.43 38.90 37.28 36.81 41.38 40.80 41.42 41.20 40.08 38.59 38.15 36.05 33.86 34.69 34.58 35.46 35.03 34.98 35.18 35.27 34.41 33.95
45.46 41.78 38.38 44.50 48.22 44.04 41.31 36.52 37.14 38.12 34.78 38.90 39.50 39.78 37.16 40.93 36.57 35.73 36.81 33.19 33.75 32.34 33.56 35.68 33.43 34.13 36.94 37.49 38.32 38.42 38.46 38.47 38.16 37.96 37.27 37.63 37.76 36.80 35.54 34.42 34.15 34.04 33.46 32.32
44.40 42.57 43.89 42.72 39.27 36.31 34.54 33.50 33.57 33.83 32.78 36.95 37.02 38.22 38.52 37.71 39.36 34.95 33.53 31.49 31.90 29.01 34.40 32.22 30.10 33.67 34.26 35.88 34.78 35.60 36.75 37.77 37.31 37.60 37.20 37.40 37.10 35.80 34.74 33.46 32.42 31.83 32.21 30.57
44.37 40.36 36.96 36.99 33.57 31.24 29.90 28.50 29.10 30.46 34.90 34.00 34.36 34.01 35.17 35.02 33.33 29.10 29.30 27.86 26.66 31.19 30.08 28.74 30.17 31.20 34.36 34.20 34.27 34.45 36.10 37.75 37.96 37.44 37.70 36.78 34.42 34.62 33.66 31.87 32.04 32.06 30.92 29.70
34.68 32.04 31.03 32.51 30.02 31.49 31.59 27.87 27.82 31.16 34.61 35.20 35.34 32.77 30.66 31.29 30.29 29.41 19.98 30.64 28.15 21.92 23.02 22.28 27.62 29.97 32.88 35.19 32.70 34.05 33.78 35.70 35.09 34.68 34.50 33.47 33.28 32.06 32.23 32.13 32.02 31.50 29.89 28.52
32.08 32.01 30.70 31.40 30.38 30.31 31.28 31.78 34.60 34.64 37.46 35.31 32.80 30.82 30.16 24.44 24.47 26.64 28.01 26.48 22.98 24.02 23.43 27.12 27.58 30.26 32.62 31.96 31.07 33.09 32.92 33.39 33.16 33.64 33.05 32.49 32.17 31.46 30.14 30.29 30.36 30.36 29.39 28.57
31.83 29.53 29.03 30.80 29.71 28.37 31.10 32.39 33.39 34.52 36.68 33.07 31.45 29.38 24.43 24.69 22.63 23.24 16.05 18.55 18.42 24.09 26.92 24.25 25.98 29.86 29.75 29.25 30.88 31.13 32.61 32.84 32.49 32.33 31.70 31.29 30.56 29.64 28.16 28.12 27.99 27.16 26.36 24.49
30.70 27.40 31.02 30.64 27.76 28.24 31.50 33.22 34.03 38.52 32.31 28.85 29.73 20.59 21.04 27.20 20.62 16.93 20.47 20.13 24.74 25.18 23.04 24.38 28.11 29.89 29.18 29.54 31.38 31.57 31.41 30.88 30.32 29.55 28.83 27.59 26.63 26.59 26.05 22.90 21.54 22.11 21.97 21.50

GFSNW_sfc_wetblb_036.txt.gz
Wetbulb
48.85 48.83 49.47 49.61 50.46 51.19 51.12 47.42 35.76 49.53 50.64 38.74 38.01 34.50 36.86 39.63 38.96 41.42 38.93 38.18 36.45 36.05 36.92 35.14 35.25 33.31 34.52 39.16 38.56 33.92 36.28 34.13 30.03 32.01 38.12 40.56 39.85 37.24 36.79 31.32 30.19 31.65 30.64 31.32
48.92 48.20 49.00 49.76 50.23 51.08 45.68 42.98 43.30 49.28 48.38 32.66 33.90 38.14 37.20 38.92 37.92 38.32 37.87 36.87 38.01 38.56 36.11 33.69 35.16 35.76 39.75 40.34 38.15 35.50 37.95 34.54 28.05 30.18 35.67 39.72 37.01 38.89 37.39 35.60 36.47 32.79 28.48 30.70
48.54 48.50 48.66 49.45 49.84 50.40 47.75 44.15 37.10 42.53 44.84 43.38 37.78 35.82 36.14 35.64 41.05 39.21 40.10 38.31 39.04 37.13 35.97 38.18 35.56 35.12 38.57 40.50 40.96 44.30 42.51 36.22 33.23 28.92 33.46 36.42 34.32 36.29 36.08 32.99 34.00 33.16 31.74 32.45
47.36 48.64 48.98 49.51 49.10 49.92 49.10 44.63 39.82 41.25 35.13 36.67 38.88 38.80 38.55 36.26 35.60 40.01 40.72 36.74 37.00 35.68 34.21 35.70 34.69 35.86 37.21 40.86 43.26 42.28 40.14 34.29 36.01 35.21 35.36 37.00 36.68 38.11 40.54 38.87 39.75 34.68 33.78 36.27
46.52 48.24 48.75 49.24 48.54 49.65 47.60 41.69 41.45 42.57 39.79 40.69 39.18 39.02 37.58 37.01 38.72 38.94 36.86 36.43 37.05 37.39 35.30 36.55 33.43 35.71 36.27 36.51 40.97 40.53 40.82 34.28 35.31 33.39 38.65 40.27 39.26 41.50 41.81 39.92 41.77 40.48 39.60 37.37
46.06 47.25 48.82 49.26 48.55 48.97 46.75 45.78 44.76 43.47 40.10 39.05 37.61 37.29 37.79 38.37 40.30 41.25 41.59 39.15 37.27 36.00 37.47 40.86 39.92 39.82 39.96 39.45 39.81 38.61 38.82 36.39 35.28 32.75 38.41 38.99 34.48 38.44 39.52 38.04 39.57 41.48 38.22 39.10
45.50 46.50 48.18 48.64 48.28 48.44 45.67 46.02 45.35 42.02 38.18 39.03 38.42 40.17 40.07 39.24 40.08 38.59 41.82 42.73 38.30 41.50 45.57 43.35 42.07 41.46 40.56 40.31 40.31 41.25 37.70 36.40 37.76 34.34 34.83 27.73 37.79 40.24 42.32 41.55 41.48 41.14 41.77 40.91
45.20 46.05 47.13 48.44 48.37 48.67 46.70 47.84 45.53 41.83 38.23 40.75 40.38 40.42 40.20 41.18 41.71 40.67 42.12 43.18 45.35 46.29 42.04 35.61 34.09 36.08 37.47 37.52 40.28 39.39 40.22 37.49 35.53 32.34 30.36 32.88 35.42 37.37 37.94 39.15 40.10 41.19 41.95 41.79
45.00 45.64 46.78 48.15 48.07 49.01 47.87 48.05 48.54 45.76 40.87 39.62 43.36 40.18 40.58 39.13 38.59 39.13 42.05 44.66 44.32 44.99 39.47 33.56 27.69 30.27 30.19 32.38 35.04 38.47 37.98 37.87 36.19 33.95 26.84 26.09 34.30 38.69 39.65 39.24 32.74 39.75 39.75 40.70
44.98 45.29 46.66 47.79 47.72 48.92 48.12 48.22 49.49 45.59 41.17 43.68 43.88 40.32 39.94 43.40 40.47 38.16 40.16 41.63 41.58 43.89 38.82 30.85 27.67 32.57 34.15 31.25 32.18 34.75 33.89 34.34 31.22 32.24 33.28 33.63 39.46 40.05 40.54 31.54 33.57 39.20 39.50 40.64
44.57 45.12 46.42 47.66 47.53 48.56 48.19 48.66 49.55 47.60 43.35 44.31 45.52 44.49 42.22 42.44 42.14 38.03 39.83 40.95 40.33 40.06 35.97 33.21 34.99 33.08 34.46 32.53 34.26 36.47 35.96 31.04 30.38 32.41 31.97 27.53 40.17 38.66 34.50 38.32 38.81 39.46 38.98 39.00
44.23 45.06 46.87 47.32 47.38 48.11 49.19 46.91 50.08 50.74 46.22 45.18 48.60 48.40 47.76 46.35 46.40 43.12 42.80 40.60 38.97 41.33 37.83 36.83 37.96 36.47 34.30 33.06 29.86 37.51 34.85 36.47 33.84 35.29 34.24 39.66 38.75 39.05 41.06 42.02 40.46 39.00 38.60 40.05
44.11 45.34 47.01 46.87 47.18 48.31 48.57 47.89 49.03 48.41 45.18 44.46 44.60 44.23 48.04 48.45 48.14 49.31 42.84 43.41 44.28 44.01 43.65 42.51 40.50 36.94 36.57 33.82 33.33 32.74 36.66 39.38 36.42 37.69 39.37 39.80 38.80 40.14 41.53 41.57 40.71 40.74 40.67 40.49
44.31 46.06 46.34 46.53 46.85 47.92 48.64 48.31 49.33 48.09 45.88 40.72 42.42 48.01 45.35 48.40 48.15 48.09 48.38 46.95 47.76 46.40 45.39 42.94 40.77 38.24 38.20 36.39 35.91 36.70 39.06 40.37 38.20 37.24 38.18 37.29 39.03 39.68 41.34 40.47 41.30 40.13 39.75 39.73
45.14 45.76 45.90 46.26 46.48 47.46 48.22 49.76 49.47 50.61 46.97 41.74 42.34 45.82 46.11 46.80 46.78 46.54 48.01 47.17 45.89 45.38 43.57 41.41 39.47 42.33 39.17 38.14 37.02 35.40 38.91 40.00 38.84 38.56 41.79 40.66 39.91 40.95 41.08 40.57 39.59 39.45 38.49 37.20
44.88 45.41 45.80 45.86 46.23 47.22 46.88 45.21 49.27 50.49 50.25 43.81 37.27 45.49 44.65 44.44 44.81 45.01 44.97 46.02 45.21 44.91 44.21 42.66 42.05 42.47 40.38 36.44 36.13 42.37 41.29 41.47 44.36 42.49 41.06 40.08 40.41 40.87 41.02 40.27 39.85 39.69 38.93 38.50
45.27 45.45 45.55 45.67 46.25 46.29 45.45 43.95 46.42 50.72 50.47 43.97 36.68 38.77 43.80 45.40 45.08 44.45 44.85 45.29 44.67 44.73 43.40 42.49 41.89 40.91 41.90 38.46 35.28 41.61 40.48 41.78 40.88 41.74 41.85 39.52 39.53 39.06 39.97 40.50 39.98 40.03 38.36 37.91
45.35 45.52 45.56 45.87 46.85 47.49 46.30 48.69 50.82 50.60 46.56 44.08 33.59 36.50 40.19 44.40 41.89 40.16 42.85 42.49 43.32 41.88 41.77 40.73 39.80 39.37 39.36 35.04 39.70 39.21 39.41 39.50 39.64 39.33 40.13 40.74 39.59 39.28 37.95 38.76 38.71 36.90 35.75 35.35
45.37 46.35 46.24 46.17 44.95 44.61 45.36 49.15 49.10 48.45 45.53 37.82 35.98 34.32 33.92 43.35 40.59 41.46 39.74 40.83 38.52 40.76 39.65 40.01 39.44 37.51 34.11 38.80 40.14 38.26 38.79 38.97 37.28 37.48 38.31 38.81 37.45 36.40 36.58 36.75 36.34 35.20 33.90 33.71
47.11 45.75 42.49 40.17 44.83 48.89 48.26 45.89 43.07 40.61 41.18 40.78 37.67 40.84 37.26 40.64 39.34 37.05 37.74 37.77 35.93 32.90 37.80 39.05 36.92 36.01 40.07 40.94 40.27 40.28 39.21 38.01 37.68 35.93 33.55 34.81 34.47 34.94 34.76 35.01 35.46 35.75 34.42 33.38
44.44 41.65 39.00 44.56 48.62 44.58 41.64 37.00 37.02 37.87 34.75 39.06 39.92 39.77 37.32 41.06 36.31 34.32 35.46 33.47 33.72 31.81 31.74 35.89 32.89 33.55 35.81 35.98 37.59 38.29 38.83 38.24 36.68 37.90 37.81 38.16 37.65 35.82 34.36 33.72 33.73 33.15 32.91 33.52
44.35 42.94 44.34 43.18 39.45 36.44 34.84 34.14 33.86 34.10 32.69 37.30 37.66 38.67 39.50 38.27 39.40 36.47 33.72 32.46 32.97 29.76 33.45 32.38 30.45 33.40 32.77 34.36 34.02 34.43 36.18 37.12 37.03 36.91 37.21 37.13 36.70 36.32 34.93 34.00 33.29 32.40 32.09 31.55
44.55 40.38 37.45 37.44 33.92 31.66 31.94 29.36 29.87 30.74 33.54 34.55 35.50 34.27 36.21 36.21 35.31 30.08 29.27 25.76 29.01 31.29 30.19 28.68 30.13 30.25 32.83 32.66 33.31 34.11 35.21 36.12 35.73 35.71 35.75 35.34 34.60 35.10 34.00 32.48 33.00 31.99 30.16 28.38
34.60 31.90 31.62 32.46 29.87 32.61 31.49 29.92 29.16 30.54 33.87 34.98 36.26 33.87 33.80 33.72 31.78 29.91 23.74 29.06 28.66 21.78 19.26 24.22 26.78 29.38 31.91 32.46 32.70 34.03 33.58 35.47 35.74 34.32 34.40 33.87 33.51 32.72 33.18 33.34 32.14 30.33 27.94 25.86
31.96 32.02 31.00 31.57 30.72 30.72 31.56 29.99 34.15 34.65 37.48 34.80 33.16 32.10 29.69 24.49 24.93 26.38 28.53 26.44 24.15 23.95 24.11 26.72 26.77 29.69 31.36 30.57 30.96 31.68 32.63 33.21 33.96 34.11 32.67 32.16 31.65 30.82 29.80 30.29 29.99 29.02 27.72 26.73
31.75 30.43 29.46 30.90 30.38 29.24 31.51 32.40 32.92 34.65 35.56 30.57 29.98 26.94 20.94 21.11 22.99 21.41 18.52 20.14 19.41 24.78 25.86 22.49 22.19 29.09 31.32 30.92 31.02 31.70 33.12 33.33 33.10 32.92 32.36 31.97 31.25 30.00 28.32 27.99 27.08 26.33 26.26 24.29
30.07 27.53 31.05 30.10 29.85 29.85 31.80 33.07 34.22 37.33 32.72 28.50 26.28 22.24 22.76 23.21 19.15 19.39 19.98 20.42 23.97 23.00 22.10 22.11 26.14 27.75 28.36 29.08 29.81 30.33 31.11 31.24 31.53 30.79 28.99 28.08 28.07 27.37 26.04 22.29 20.52 21.72 21.96 21.89

GFSNW_sfc_wetblb_042.txt.gz
Wetbulb
47.56 47.48 47.99 47.92 49.04 49.77 47.19 43.80 35.27 49.25 50.76 37.15 33.21 33.31 35.84 39.28 38.42 39.63 37.04 36.63 34.52 32.20 33.71 32.67 33.73 31.98 33.66 37.63 37.33 34.23 36.72 33.99 26.38 27.65 35.24 37.84 35.59 33.05 32.55 26.86 24.58 29.08 27.43 26.76
47.34 47.32 47.55 47.39 48.94 49.67 44.55 40.20 41.49 49.29 44.86 30.22 32.24 37.56 36.38 37.88 37.61 37.10 35.63 34.62 36.48 36.34 34.23 31.83 34.96 36.11 40.42 39.48 36.39 33.60 36.38 32.53 21.59 23.45 31.46 34.93 33.46 35.07 35.47 34.74 33.11 27.82 25.02 27.37
47.18 47.01 47.10 46.79 48.35 49.63 45.81 39.45 35.53 37.67 42.23 40.65 35.66 35.69 34.56 33.68 38.52 37.99 38.10 36.51 37.61 35.93 34.52 36.90 33.66 34.57 39.55 39.30 38.44 41.32 39.57 33.75 27.55 21.83 26.15 33.98 31.85 34.13 35.29 33.42 28.52 30.02 29.91 31.35
47.03 46.82 46.70 46.81 48.06 49.11 45.50 40.42 36.40 37.56 31.81 34.83 37.84 37.88 36.44 34.27 33.83 37.52 38.97 36.52 36.17 36.05 32.84 33.62 33.39 35.23 36.56 39.44 39.58 39.53 37.40 30.35 32.50 33.58 35.22 35.77 34.82 34.17 34.81 32.34 33.38 29.65 32.35 34.40
46.85 46.54 46.53 46.56 47.81 48.74 43.39 39.56 39.38 40.89 37.28 38.28 37.35 37.66 34.24 34.49 35.95 36.25 35.47 34.05 37.20 37.33 33.80 34.17 33.58 36.01 36.35 34.43 36.26 35.23 36.32 31.10 33.55 32.51 35.86 35.79 33.12 35.26 35.20 35.31 35.05 33.77 34.95 34.70
46.67 46.36 46.35 46.11 47.83 47.95 40.42 42.21 43.88 42.66 39.47 37.40 36.25 36.02 36.65 37.07 38.90 39.10 40.25 38.94 37.63 36.68 37.93 40.30 40.86 41.73 40.02 38.75 37.47 35.34 34.97 32.99 32.89 29.17 34.91 33.82 31.92 36.71 38.80 36.05 36.34 35.43 32.55 36.93
46.46 46.23 45.97 45.84 46.97 48.21 44.51 43.22 42.90 41.09 35.70 38.07 37.12 38.25 39.92 38.73 38.95 37.22 41.69 41.54 39.26 41.85 44.93 43.22 41.92 40.76 39.74 38.87 37.57 38.70 35.27 34.47 35.57 31.52 33.35 27.99 37.07 41.80 43.42 41.22 42.12 38.64 40.84 39.39
46.26 46.14 45.79 45.73 46.81 48.63 44.76 45.35 43.33 42.33 36.66 38.95 38.71 39.52 38.94 39.78 40.27 40.34 40.62 42.47 44.20 45.72 42.62 36.48 34.03 34.41 34.94 34.73 37.08 37.06 37.78 36.14 34.12 30.37 31.95 34.47 35.57 37.31 39.78 39.41 39.69 40.18 41.75 40.19
45.89 45.88 45.69 45.39 46.73 48.38 45.60 44.88 47.33 44.92 40.14 37.68 41.42 38.69 40.24 39.14 39.02 39.81 41.40 44.58 46.27 44.91 40.06 35.39 29.25 26.84 29.34 30.13 33.69 36.52 37.02 37.93 35.19 32.42 28.90 25.32 33.53 37.47 38.29 38.00 33.90 40.65 40.85 40.89
45.65 45.79 45.28 45.32 46.62 47.82 45.89 44.98 47.24 45.24 39.78 41.73 42.73 39.87 39.40 42.34 40.53 38.11 39.71 40.12 41.73 44.17 37.35 30.72 29.00 31.78 32.29 29.98 31.24 33.59 32.31 34.85 33.19 30.99 31.79 30.81 36.97 39.74 39.67 29.85 33.15 38.08 38.92 39.73
45.46 45.65 44.61 45.24 46.83 47.43 45.85 44.57 46.97 46.17 40.44 41.33 43.53 44.49 41.92 42.27 41.42 37.63 39.66 38.04 40.87 39.36 36.23 32.31 29.87 30.19 33.73 31.81 32.62 33.71 31.65 31.12 28.09 29.76 30.09 25.05 38.02 38.31 34.55 37.22 38.89 39.54 39.39 39.43
45.41 44.82 44.66 45.14 46.92 46.99 46.93 43.55 47.69 50.64 45.06 42.67 47.84 46.76 46.46 47.18 46.63 43.22 41.31 39.61 40.10 40.86 37.03 32.62 33.04 31.52 31.86 30.51 29.76 33.47 31.58 33.37 31.16 32.22 32.34 37.87 38.91 38.03 39.77 40.71 39.35 38.82 37.51 37.63
44.17 44.54 45.28 46.17 46.45 46.92 46.32 44.15 46.05 48.18 44.93 43.40 43.28 42.94 47.30 49.93 48.69 49.71 41.40 43.15 44.39 42.73 39.98 36.44 35.85 33.34 33.65 30.16 30.86 31.15 34.14 37.41 34.94 35.26 36.31 38.27 39.53 39.10 39.31 39.77 38.16 38.52 37.67 36.89
44.19 45.43 45.98 46.11 46.31 46.60 46.41 43.67 46.09 45.59 44.75 38.55 39.99 47.99 46.26 49.07 49.71 49.10 48.33 46.30 46.42 46.66 42.18 38.47 36.53 34.98 36.81 34.68 33.85 33.40 35.25 37.10 35.73 35.11 38.23 38.24 38.89 39.06 39.14 38.30 38.65 37.64 37.06 36.07
44.76 45.31 45.69 45.96 46.14 46.43 45.59 45.11 46.04 47.85 45.45 41.24 42.32 45.99 47.04 47.62 48.13 46.98 47.06 45.98 44.62 45.23 43.11 39.75 36.88 39.68 39.43 38.53 37.05 33.26 37.38 36.80 35.85 35.05 40.07 39.50 38.85 39.50 39.75 38.84 37.96 37.44 36.33 34.70
43.69 44.07 44.85 45.74 46.23 46.18 43.73 42.94 48.54 49.79 49.67 43.35 37.04 45.34 44.79 45.02 46.64 45.76 45.40 45.69 45.79 44.67 42.99 41.40 43.11 43.28 41.39 36.87 32.33 38.99 38.25 39.58 41.15 40.69 39.38 39.28 39.13 39.94 39.86 38.70 38.30 37.76 36.84 35.30
44.26 44.91 45.38 46.08 46.23 44.67 40.19 42.25 45.48 48.43 50.21 43.59 37.08 37.64 43.61 44.46 44.24 44.11 44.48 45.45 44.85 44.56 43.76 42.23 41.60 41.19 40.86 37.74 31.36 39.73 40.12 40.07 39.28 39.62 39.77 38.44 38.89 38.41 39.04 39.17 38.61 37.79 35.47 34.98
44.93 45.57 46.33 46.29 46.21 45.75 42.92 46.59 48.82 48.97 46.52 43.85 33.68 36.35 39.37 44.28 42.06 41.28 43.81 43.04 43.91 43.11 42.17 41.76 40.92 40.61 39.19 33.98 38.43 38.98 38.27 38.27 38.60 38.19 39.39 39.75 38.89 38.56 37.28 37.04 36.90 34.93 33.08 32.52
46.48 46.57 46.51 44.92 43.36 41.52 45.49 49.62 49.47 48.77 45.29 37.80 36.25 34.24 32.59 43.22 41.21 41.59 41.25 41.84 38.54 41.54 39.76 40.29 40.16 37.79 34.07 37.83 38.33 38.33 38.19 37.48 37.54 37.13 37.61 38.02 37.12 36.41 36.20 36.16 35.34 33.93 32.23 31.73
46.85 45.06 41.50 38.34 43.73 48.93 48.99 46.68 44.23 41.68 41.97 40.83 37.98 40.57 36.47 39.36 39.50 37.52 37.82 37.97 35.76 32.70 37.48 38.12 36.47 36.44 39.21 39.74 40.02 39.19 38.41 37.54 37.25 35.71 32.71 33.93 33.96 35.13 35.14 35.27 34.91 34.40 32.70 31.64
43.77 40.84 39.41 45.05 48.71 45.56 41.86 36.85 37.54 38.23 35.02 39.27 38.30 39.43 37.55 40.18 36.27 36.13 36.31 33.69 33.61 31.28 31.49 33.69 30.84 30.59 33.44 34.52 36.25 37.17 37.49 37.37 36.71 37.96 38.29 38.19 38.21 36.14 34.45 33.40 33.17 33.00 32.51 31.28
41.39 41.26 44.04 44.15 39.88 36.98 35.60 34.26 34.30 35.33 33.60 37.65 38.18 38.76 39.68 38.33 39.80 35.21 34.50 33.05 32.99 28.56 31.30 32.60 29.61 31.41 32.23 33.48 33.87 35.30 36.41 37.30 36.84 36.65 37.11 36.77 36.24 35.56 34.30 33.54 32.57 31.09 30.55 30.27
43.70 39.62 36.92 37.16 34.44 32.75 31.84 29.87 31.82 32.06 30.10 34.69 35.34 34.44 37.24 37.31 37.21 33.37 32.63 31.01 31.01 29.99 29.59 28.45 28.89 29.70 31.79 31.74 32.74 33.32 34.52 35.84 35.75 35.04 35.25 35.25 34.28 34.88 34.32 32.30 31.88 31.23 29.47 28.60
34.51 31.90 31.58 32.33 31.45 32.91 32.50 28.53 27.30 28.97 33.10 35.04 36.09 33.85 34.44 34.91 33.70 32.45 29.79 29.14 29.43 26.69 22.13 21.21 26.13 27.29 30.10 31.14 31.66 32.98 31.98 32.85 32.89 33.14 33.72 33.38 32.76 31.40 31.86 31.75 31.45 30.20 27.76 27.51
32.23 31.90 29.99 31.55 31.45 31.69 31.89 32.10 32.46 34.15 36.78 34.76 33.95 33.04 33.66 31.17 29.94 27.74 28.82 27.03 25.13 25.42 23.12 23.83 24.88 27.57 29.00 29.45 30.43 31.36 31.11 31.18 31.17 31.71 31.44 30.72 30.53 29.75 29.04 30.13 29.69 28.61 27.32 25.93
32.21 30.72 26.59 29.14 28.88 30.04 31.52 32.22 32.68 34.84 35.82 33.77 34.02 30.84 30.20 28.75 28.78 22.18 22.51 19.37 20.75 25.89 25.05 22.12 17.44 27.57 28.12 28.42 29.84 29.98 30.22 30.31 30.76 31.23 30.89 30.51 29.70 28.53 26.93 26.60 27.08 26.61 25.62 23.80
27.07 22.34 29.46 26.44 26.85 27.33 29.63 32.55 33.53 37.71 34.13 32.78 30.84 29.39 29.61 24.33 22.46 19.99 20.28 23.16 27.11 21.96 20.43 20.74 23.02 25.09 27.49 27.86 28.85 29.32 30.10 30.02 30.04 29.78 28.80 27.58 27.98 27.94 26.63 22.87 20.91 22.13 22.26 21.85

GFSNW_sfc_wetblb_045.txt.gz
Wetbulb
47.59 47.57 47.76 47.94 47.62 48.58 46.48 40.29 35.03 47.92 49.02 36.76 35.16 32.90 35.23 40.18 37.84 38.65 36.99 36.02 33.95 32.12 32.75 31.22 32.01 31.42 33.36 37.93 37.62 34.58 37.13 34.31 28.58 29.44 34.81 36.82 35.35 32.44 32.28 26.09 23.88 28.93 26.96 26.04
47.30 47.41 47.49 47.57 47.41 48.35 44.23 36.36 38.89 49.05 45.91 30.30 32.18 37.38 35.92 38.93 37.71 36.15 35.71 34.62 36.12 36.05 33.61 30.88 34.70 36.06 39.09 38.86 36.73 33.73 36.57 32.95 24.16 23.02 31.55 34.39 32.87 34.31 34.60 33.59 32.48 26.82 24.01 26.86
47.10 47.16 47.18 47.13 47.26 48.17 45.27 36.53 32.89 37.60 42.07 40.22 35.83 35.41 35.05 34.89 39.59 37.98 37.53 36.08 37.05 34.93 34.03 36.28 33.55 34.94 39.33 39.94 38.57 40.96 39.87 32.73 25.31 21.72 25.72 33.19 30.52 32.77 34.39 32.86 28.17 28.67 28.67 30.40
47.10 47.11 46.94 46.94 46.81 47.89 44.90 40.06 36.16 37.87 31.75 35.64 37.11 38.05 35.82 33.84 33.83 37.81 37.69 35.55 35.18 34.11 31.57 33.65 33.75 35.98 36.73 38.94 39.75 39.77 37.42 30.99 31.64 32.79 33.94 34.18 33.57 33.72 34.66 31.47 32.19 28.93 31.66 32.14
46.88 46.84 46.71 46.47 46.82 47.87 40.99 36.00 37.49 39.81 37.05 38.37 36.72 37.36 35.58 34.30 35.59 35.54 34.17 33.37 36.51 36.13 32.85 33.28 32.71 35.31 35.65 34.97 36.85 36.89 37.54 31.41 32.94 30.81 34.51 34.87 32.80 35.15 35.80 35.63 35.59 34.26 34.38 33.96
46.81 46.71 46.52 46.21 46.48 47.07 40.14 41.07 41.88 40.24 38.25 37.69 36.78 36.33 35.17 35.18 37.11 37.39 38.14 37.12 36.03 35.09 37.12 38.87 39.94 41.70 40.57 39.27 36.73 33.09 34.97 33.23 31.21 27.73 34.83 34.58 31.44 35.84 37.61 37.58 37.37 35.93 33.16 36.42
46.38 46.44 46.49 46.17 46.13 47.00 44.65 42.56 40.91 37.25 35.34 36.87 36.59 37.46 38.60 37.75 37.34 36.85 39.84 39.62 37.12 41.44 44.87 43.58 42.02 41.59 40.75 39.62 38.83 39.55 36.01 33.43 34.08 31.11 33.18 27.43 37.98 42.05 41.67 41.44 42.09 38.47 38.09 39.23
45.70 46.22 46.37 46.14 45.96 47.29 44.95 44.62 41.88 40.18 36.58 39.12 38.32 37.71 38.64 40.20 40.81 39.53 39.96 42.38 43.86 45.55 41.76 36.19 33.23 33.16 34.29 35.41 37.75 37.23 38.34 35.02 33.39 30.73 30.49 33.52 36.73 38.63 39.89 39.88 38.95 40.19 39.93 40.14
45.38 45.87 46.13 45.52 45.83 47.24 45.33 43.88 46.40 43.07 38.88 37.68 40.92 38.44 40.00 37.91 37.32 39.01 39.78 44.52 46.36 44.84 38.65 34.57 28.18 24.16 28.01 28.93 31.90 35.90 35.73 36.86 34.70 32.29 28.43 25.67 35.60 38.31 40.17 42.12 35.94 42.46 40.47 40.84
45.41 45.77 45.89 44.91 45.68 47.42 45.46 43.63 46.84 43.14 38.53 40.14 41.20 38.04 38.51 41.77 40.60 38.54 39.66 40.40 40.60 43.54 35.87 32.86 30.21 29.43 30.94 28.83 30.06 32.00 32.20 34.02 31.18 33.01 31.25 31.40 37.48 39.86 39.63 31.23 34.22 40.54 40.91 40.92
45.55 45.69 44.71 45.25 45.86 47.08 45.74 42.90 46.61 44.10 42.62 41.18 43.24 43.59 41.21 42.25 41.92 38.13 39.70 38.38 38.45 38.20 33.23 33.23 31.31 28.91 31.02 31.35 32.48 32.18 31.37 30.85 31.57 32.60 29.77 25.41 37.41 38.27 34.84 38.29 39.62 40.22 40.63 40.60
44.36 44.23 45.07 45.75 46.43 46.84 47.13 41.57 45.53 47.26 44.26 41.39 46.07 46.01 46.40 45.58 45.67 42.99 41.13 39.48 39.50 39.61 36.95 33.29 33.53 30.92 32.61 32.62 28.86 34.18 31.04 33.17 30.45 31.28 31.58 37.44 37.88 39.36 40.55 41.17 39.56 39.43 39.18 40.23
43.55 44.09 45.34 46.11 46.64 46.88 46.08 43.14 44.42 44.99 45.01 41.30 42.15 41.56 46.41 48.87 48.76 49.61 41.21 42.07 44.21 42.64 40.44 37.32 36.29 34.10 34.25 30.10 30.33 31.16 34.09 36.41 34.38 35.06 37.12 37.88 39.54 40.29 40.00 39.82 39.22 39.20 38.21 37.35
44.71 44.75 45.22 45.27 45.93 46.56 46.38 42.68 44.31 43.18 43.17 37.13 38.86 47.19 45.91 49.09 49.73 49.23 48.48 46.37 46.64 45.76 43.92 39.36 36.77 34.92 36.45 32.54 33.17 32.76 34.88 36.59 35.64 35.12 37.93 38.16 39.70 39.27 39.72 38.87 38.05 36.81 35.98 35.66
43.89 43.53 44.14 44.53 45.41 46.24 45.67 44.54 44.55 45.15 42.57 40.82 41.95 46.02 46.96 47.71 48.53 47.52 47.54 46.17 44.44 43.77 42.78 40.85 36.09 37.54 36.67 36.35 36.27 32.17 36.41 36.28 35.03 34.66 39.33 39.27 39.09 38.67 39.63 38.84 37.56 36.66 35.06 33.33
44.18 44.18 44.44 45.15 45.47 46.38 43.35 40.57 46.65 46.50 48.06 43.57 36.98 45.33 44.76 45.53 47.12 46.33 45.70 45.68 45.48 45.06 43.11 41.84 42.02 41.07 39.42 37.38 35.88 38.15 38.01 39.35 40.79 40.30 39.68 39.46 39.32 40.28 40.49 38.57 37.84 37.02 35.07 34.06
44.24 44.96 45.20 45.51 46.31 43.96 39.24 40.73 44.63 46.57 46.40 43.61 37.27 38.12 43.55 44.76 44.67 44.29 44.25 45.28 44.38 44.41 43.56 42.29 39.09 39.61 40.68 37.38 32.35 39.63 39.63 39.68 39.97 39.50 39.97 38.42 39.05 39.23 39.44 38.51 37.37 36.25 34.13 33.51
45.31 45.79 45.93 46.57 46.55 45.01 41.91 45.34 47.35 46.96 46.38 44.06 33.76 36.26 38.95 43.85 41.94 41.23 44.10 43.00 43.80 43.34 42.02 42.23 40.84 39.84 38.45 35.80 38.94 38.60 37.89 37.69 37.58 38.57 38.99 39.30 38.41 37.89 36.64 36.48 35.69 33.70 32.10 31.77
47.48 47.03 46.68 44.81 42.92 40.53 43.62 49.63 49.34 49.30 45.63 37.75 36.26 33.98 33.23 42.30 41.33 41.79 41.47 42.00 38.50 41.81 39.80 40.63 40.12 38.64 34.68 37.75 37.99 37.83 38.14 37.65 37.82 37.31 37.96 37.98 37.66 36.44 36.08 35.76 34.70 33.05 31.83 31.43
47.11 44.43 40.92 38.04 42.62 47.63 49.13 47.25 44.08 41.56 41.83 40.97 37.39 39.66 35.94 39.12 39.05 37.59 37.88 38.07 35.79 32.71 37.34 38.75 36.58 36.98 38.81 38.31 38.30 38.21 38.21 37.65 37.21 36.22 33.47 35.27 35.00 35.49 35.38 35.51 35.40 34.17 32.81 31.40
42.91 40.59 38.97 44.77 48.78 45.81 41.89 37.12 37.61 38.39 35.12 39.00 38.65 37.53 37.54 38.77 36.30 36.24 36.60 33.65 33.50 31.36 32.68 33.96 32.99 31.04 33.28 34.75 36.28 37.15 37.48 37.60 37.47 37.54 38.33 38.09 37.97 36.20 34.57 33.08 32.80 32.47 31.76 29.98
41.27 41.05 43.01 43.72 40.39 37.08 35.28 33.75 34.34 34.44 33.58 37.47 38.22 38.69 39.51 38.00 39.38 32.86 34.62 32.98 32.74 28.39 31.08 32.25 29.41 32.11 33.25 33.62 33.75 34.63 36.15 36.83 35.44 35.99 36.68 36.37 36.15 35.47 34.29 33.09 31.72 30.17 29.47 28.98
43.27 39.28 35.85 37.26 34.62 32.55 32.13 29.87 31.96 32.02 34.24 34.74 35.45 34.67 37.74 37.91 37.59 33.74 33.23 31.58 30.62 32.19 29.74 28.73 29.00 31.05 32.25 32.06 32.66 33.15 34.03 35.38 34.87 34.62 34.81 34.73 34.26 34.78 33.51 31.04 31.05 30.53 29.21 28.60
34.74 32.24 32.11 32.53 31.72 32.98 32.33 28.74 26.98 28.87 32.81 34.52 36.16 33.81 34.61 35.25 34.09 32.73 31.52 30.75 30.24 26.68 24.45 21.29 26.94 27.78 30.30 31.02 31.55 32.91 32.13 33.36 33.41 33.30 33.46 33.22 32.76 31.57 31.39 31.10 30.93 29.69 27.87 27.28
32.55 32.24 28.40 31.69 31.42 31.95 31.84 32.22 32.71 33.56 36.26 34.90 33.92 33.28 33.89 31.91 31.77 29.49 29.29 26.66 25.34 25.54 23.97 24.98 25.05 26.46 29.09 30.01 30.76 31.01 30.71 30.82 30.96 31.80 31.48 30.85 30.94 30.27 29.34 30.26 30.29 29.25 27.73 26.19
32.07 26.65 25.24 27.90 29.29 30.70 31.65 32.08 32.42 34.91 36.21 33.82 33.87 31.41 30.17 28.65 25.57 22.84 25.00 20.89 21.58 25.80 25.22 23.22 18.21 26.55 27.92 28.63 30.00 29.99 30.04 29.93 29.99 30.00 29.81 29.88 29.61 28.42 26.68 27.13 26.97 26.62 25.81 24.71
28.68 26.50 30.00 26.61 28.60 29.33 30.46 31.90 33.40 37.66 34.26 32.71 31.89 28.07 25.87 25.04 23.10 20.39 22.17 24.36 29.07 23.16 20.57 20.19 22.87 23.80 27.28 27.61 28.61 28.99 29.19 29.05 28.97 28.66 27.96 26.48 26.52 26.49 25.61 23.50 22.20 22.92 23.01 22.48

GFSNW_sfc_wetblb_048.txt.gz
Wetbulb
47.78 47.78 47.80 48.07 48.10 48.42 46.47 40.39 33.11 48.48 50.34 35.62 37.38 34.01 34.74 39.27 39.05 41.00 39.13 38.98 37.07 35.62 36.19 34.54 34.81 34.56 37.13 41.56 41.01 35.46 38.48 34.91 30.52 32.43 39.10 40.61 38.96 35.74 35.26 28.40 27.41 30.60 29.40 29.17
47.71 47.64 47.69 47.83 47.91 47.86 44.00 37.65 35.64 46.83 46.52 32.24 34.24 37.22 35.66 39.69 38.91 38.22 38.03 37.19 38.84 39.15 36.17 32.71 36.18 37.29 41.43 41.62 40.27 37.69 38.47 33.55 28.47 29.78 33.54 36.84 34.09 36.53 36.72 35.75 34.51 29.34 26.21 30.66
47.45 47.45 47.52 47.43 47.37 47.98 44.71 37.32 32.39 38.63 40.94 41.07 36.67 34.74 34.47 36.32 40.89 38.99 39.55 38.34 40.31 38.61 36.10 38.08 35.39 36.05 39.29 41.41 41.03 42.08 41.22 34.85 32.05 29.56 31.39 35.70 31.65 34.53 36.43 34.43 29.71 30.96 31.62 33.13
47.32 47.28 47.22 47.28 46.93 47.93 44.82 38.73 34.07 38.38 32.67 37.08 38.19 38.55 37.16 36.06 35.70 39.65 40.50 37.48 38.40 37.47 34.08 35.24 34.99 37.44 38.48 40.02 41.03 40.42 38.19 32.74 34.30 34.78 35.74 35.86 34.88 34.25 34.74 32.57 33.86 29.74 33.96 34.64
47.22 47.06 46.90 47.11 46.61 47.73 41.71 35.74 34.85 38.70 38.13 39.33 38.53 37.42 36.70 36.64 36.48 37.76 36.37 37.13 38.57 38.69 36.18 36.79 34.80 37.23 36.72 35.38 38.39 37.93 38.67 32.39 34.25 32.49 36.09 35.89 33.89 35.58 35.94 35.53 35.21 34.41 34.59 33.86
46.88 46.43 46.60 46.96 46.25 46.87 40.84 41.60 41.19 37.93 38.73 37.65 37.15 36.78 37.00 37.50 39.55 39.31 40.26 39.90 39.07 37.58 38.78 41.26 42.43 42.48 40.98 40.64 37.97 36.70 36.48 33.77 31.27 29.60 35.56 35.59 31.95 36.14 37.16 38.19 39.15 37.48 34.86 39.53
46.68 46.09 46.44 46.83 45.98 46.63 44.84 43.07 40.90 36.08 34.90 37.33 36.90 38.33 39.48 38.68 39.80 38.36 41.15 41.74 39.73 42.63 46.51 45.22 43.74 41.70 40.47 40.21 39.52 40.05 36.49 34.84 34.37 30.72 34.32 28.18 38.30 41.94 41.20 39.27 41.17 44.00 42.25 43.36
46.27 46.16 46.30 46.60 45.69 46.90 45.51 44.39 40.74 37.32 35.91 38.49 38.39 39.65 39.89 41.01 41.61 40.30 40.71 42.98 45.01 47.11 42.05 36.77 34.04 34.09 34.77 36.12 38.24 38.36 38.93 36.77 33.07 30.53 30.54 34.65 37.72 38.98 39.09 37.32 40.48 44.07 42.97 44.34
45.71 45.95 46.15 45.63 45.80 46.72 46.72 43.92 44.92 42.29 38.64 37.58 41.44 40.02 41.22 38.54 38.90 38.71 41.26 45.97 47.71 45.25 39.01 34.00 30.36 28.21 31.79 29.88 33.30 39.22 38.72 38.82 34.23 32.86 28.56 26.79 38.38 41.64 43.60 43.05 36.89 44.94 43.95 42.00
45.81 45.72 45.28 45.32 45.99 46.99 46.55 44.29 45.94 42.11 39.59 43.31 43.75 40.68 39.92 43.19 40.77 39.32 40.94 41.76 42.69 44.47 36.11 33.63 32.51 31.96 35.74 31.32 30.31 31.88 33.00 34.11 30.55 30.71 30.58 35.36 42.31 42.58 42.88 34.65 36.28 42.42 43.10 43.89
44.18 44.37 44.55 45.48 46.55 46.96 46.34 43.30 46.53 42.04 40.05 44.06 45.43 46.04 43.61 43.61 43.34 39.04 40.36 39.47 39.08 39.38 34.11 34.48 35.35 34.17 36.04 35.84 37.62 33.49 32.06 31.17 31.44 32.24 30.23 29.25 43.17 42.25 38.64 42.69 44.58 43.92 44.45 42.97
43.87 43.94 44.27 45.21 46.38 46.98 47.19 42.03 45.89 45.67 41.65 44.93 48.35 48.79 48.83 47.59 47.43 44.14 41.85 40.19 38.99 40.05 36.64 36.62 38.04 35.71 37.17 37.13 32.78 39.62 33.43 37.57 36.30 36.60 36.67 44.26 44.01 44.58 46.35 45.61 44.17 43.83 41.99 43.73
44.09 45.05 44.60 45.17 45.22 46.25 46.41 43.90 44.66 44.40 43.89 46.00 45.87 44.20 48.86 50.51 50.28 50.49 41.35 42.02 43.84 42.49 44.60 41.24 40.69 37.62 40.25 35.59 36.47 38.28 40.03 41.37 38.76 38.74 43.47 43.12 45.07 45.26 45.22 44.30 43.75 42.59 41.07 41.29
44.11 44.16 44.27 44.03 44.53 45.46 45.97 43.62 44.89 42.61 40.45 40.28 42.15 49.02 47.52 49.65 50.37 49.66 48.85 46.71 47.03 45.79 45.17 42.20 41.66 39.25 41.24 38.95 38.44 38.33 41.48 40.88 40.59 40.44 43.35 45.30 45.91 44.85 45.16 42.36 41.41 39.56 38.68 39.07
43.94 44.35 44.70 43.99 44.26 45.63 46.36 46.05 45.28 45.08 41.17 39.72 42.48 46.82 47.91 48.08 48.99 48.34 48.32 47.08 45.01 43.68 42.71 41.63 40.37 42.64 41.11 41.37 40.33 38.78 41.40 41.75 40.03 39.77 44.69 44.59 44.72 43.68 43.71 42.48 40.02 38.51 37.41 36.71
43.75 44.07 44.46 44.91 45.29 45.65 44.32 41.45 45.68 46.30 45.13 42.89 38.11 45.86 45.39 46.53 47.44 46.74 45.57 45.75 45.00 44.77 44.05 43.18 44.49 44.99 43.04 39.70 37.84 44.06 44.38 45.06 46.60 45.20 45.19 44.29 43.54 43.63 43.02 40.92 39.43 38.59 37.54 36.41
44.92 45.33 45.38 45.44 45.64 46.05 39.94 40.60 44.61 46.69 45.28 43.51 37.94 39.13 44.54 45.65 45.24 44.81 44.54 45.59 44.41 44.46 44.02 42.72 42.82 42.87 43.01 40.84 37.78 44.68 44.60 45.22 45.65 45.36 44.33 43.26 42.65 42.84 41.92 40.26 38.29 37.21 35.79 35.83
46.71 47.20 46.55 46.30 46.58 46.08 41.98 45.22 46.68 46.77 44.69 44.86 34.90 37.88 39.71 44.76 42.03 41.42 44.68 43.28 44.06 44.03 42.73 43.05 42.54 41.64 41.13 37.86 42.54 44.47 43.86 43.52 43.20 43.77 43.92 43.10 42.05 40.68 38.62 37.79 36.75 34.66 33.40 33.80
47.70 47.30 46.87 46.03 43.75 40.54 43.45 48.80 48.13 48.82 46.14 38.98 38.23 35.66 35.46 44.19 42.19 42.43 42.22 42.42 38.57 42.49 40.38 41.19 40.77 39.35 36.48 41.43 42.92 43.22 43.18 42.38 42.28 40.94 41.19 40.94 40.65 38.39 37.10 36.64 36.24 34.33 33.49 33.48
47.29 45.32 40.48 38.61 43.14 47.48 48.63 46.39 44.07 44.51 42.90 42.63 39.37 41.87 37.88 41.38 41.24 39.25 39.22 39.01 36.93 33.39 38.16 39.57 36.93 37.89 43.44 42.41 42.12 42.38 42.02 41.85 40.81 38.70 37.16 37.95 37.56 37.22 36.48 37.43 37.78 35.82 34.50 33.14
43.18 40.23 38.80 43.49 48.45 46.09 42.21 37.47 38.80 38.96 37.33 41.04 39.80 39.95 38.87 41.70 38.71 38.19 38.04 35.45 35.17 33.25 35.43 35.68 35.84 35.49 38.11 38.11 39.19 40.40 40.90 41.14 41.29 41.37 41.89 41.84 41.24 38.87 37.62 36.13 35.86 34.63 33.86 32.41
41.50 40.99 43.09 43.23 40.78 38.09 35.51 35.29 35.58 35.59 35.42 38.97 38.99 39.82 40.34 39.75 41.56 38.00 36.42 34.60 34.65 31.37 34.33 33.61 31.76 37.06 36.68 36.69 37.27 38.29 39.35 40.42 40.22 39.82 40.38 41.11 40.60 39.75 37.96 36.08 34.98 34.17 32.47 31.24
43.79 39.68 37.04 37.90 35.23 32.68 31.60 30.07 32.84 33.96 36.04 36.55 36.62 36.82 38.95 39.32 39.58 34.92 35.21 32.27 32.29 34.80 31.98 31.07 34.28 35.90 35.13 35.70 36.20 37.23 37.88 38.81 38.38 37.76 38.52 38.88 37.90 37.77 36.66 34.36 33.65 32.89 31.90 31.99
36.39 33.26 32.43 33.10 32.18 34.25 32.82 32.22 32.76 33.04 34.53 35.28 37.40 35.47 35.72 36.34 35.02 34.20 32.31 32.04 31.62 29.16 27.02 30.05 34.96 33.10 32.86 34.94 35.45 36.32 36.32 37.14 37.06 36.57 36.91 36.68 36.33 35.20 34.97 34.22 33.89 32.65 30.67 29.90
33.26 32.70 30.90 32.13 32.74 33.45 33.51 34.10 34.52 35.77 37.30 36.17 35.34 34.92 35.38 34.49 33.48 31.51 31.46 28.99 27.94 29.57 31.21 34.02 32.84 31.06 32.71 34.29 35.00 35.42 35.40 35.46 35.38 35.66 35.27 34.35 33.92 33.40 32.56 33.31 33.49 31.97 30.30 29.81
32.85 31.91 30.39 31.03 32.16 32.43 32.92 33.08 33.50 36.05 37.07 34.84 34.91 33.56 32.64 32.81 32.09 29.16 29.17 28.44 28.87 33.42 33.90 33.83 29.31 30.90 32.82 33.48 34.16 33.89 33.96 34.21 33.76 33.70 33.61 33.17 32.56 31.84 30.44 30.96 30.78 30.16 29.00 27.66
30.85 29.61 31.32 30.80 30.85 31.62 32.49 32.99 34.23 37.26 34.91 33.05 33.00 31.46 32.54 29.45 27.66 27.32 29.14 30.06 33.51 31.87 31.57 29.24 28.75 30.73 32.05 32.46 32.75 32.79 32.88 32.61 32.27 32.10 31.89 30.60 30.37 30.46 29.25 26.82 27.26 28.03 28.05 27.30

GFSNW_sfc_wetblb_051.txt.gz
Wetbulb
48.41 48.19 48.13 48.33 48.45 48.21 46.38 40.78 33.65 47.08 48.45 35.89 37.47 33.99 37.19 39.13 39.84 41.71 39.96 40.49 38.36 36.76 37.15 35.06 35.42 35.46 38.70 43.77 43.03 36.67 39.41 36.17 31.76 32.71 40.39 41.90 38.74 35.47 35.03 29.02 28.57 31.64 30.36 29.39
48.19 47.94 47.97 48.08 48.29 48.04 44.14 37.38 35.65 44.36 46.72 32.27 33.67 37.09 36.87 39.25 38.74 38.93 39.36 38.29 40.36 41.24 37.92 34.40 37.81 38.60 42.38 43.31 42.04 38.87 39.43 34.85 29.65 31.52 35.87 38.89 35.62 37.60 37.14 36.02 34.87 29.62 26.81 30.61
48.07 47.74 47.67 47.69 47.80 48.20 45.78 37.26 32.76 37.55 41.60 40.09 36.81 35.96 34.85 36.33 41.46 39.62 41.09 40.30 41.45 39.98 37.86 40.22 37.09 36.81 40.47 42.91 42.55 42.96 42.35 35.63 33.48 31.52 33.13 36.43 32.51 35.26 37.29 35.25 30.40 30.83 31.66 33.65
47.93 47.42 47.18 47.42 47.28 48.02 45.33 37.79 34.51 39.34 33.58 36.70 38.24 38.55 37.85 36.75 36.31 40.76 41.94 39.36 40.24 39.24 35.86 37.57 37.09 38.31 39.37 41.30 41.67 40.87 39.48 32.83 35.44 36.20 37.08 36.99 35.95 34.87 35.28 33.41 34.52 30.29 33.68 34.26
47.59 47.22 46.75 47.28 46.88 47.96 42.27 36.34 35.04 37.42 39.35 40.18 38.69 38.41 37.07 37.43 38.17 38.82 37.93 38.75 40.69 41.19 38.22 39.00 36.78 39.15 38.35 37.56 40.34 38.79 39.36 33.36 35.14 33.03 36.41 35.77 33.67 35.99 36.32 36.65 36.21 35.25 35.57 34.39
47.08 46.84 46.70 47.06 46.63 47.38 41.77 42.37 41.35 37.90 39.13 38.49 37.95 37.34 38.56 38.85 41.24 41.12 41.93 41.72 40.45 39.34 40.33 42.86 43.94 44.50 43.54 41.63 39.27 37.63 36.82 34.61 32.12 29.14 36.43 35.76 32.19 36.48 37.29 37.70 38.55 37.16 33.82 38.65
46.59 46.34 46.61 46.91 46.18 46.70 45.97 43.41 40.76 36.29 35.66 37.40 37.67 39.16 40.58 40.04 41.24 39.72 42.31 43.01 41.08 43.67 47.23 46.11 44.78 43.20 41.84 41.38 40.48 41.33 36.61 34.95 33.75 29.85 34.08 27.96 39.55 42.91 41.28 39.43 40.64 42.25 41.56 43.95
46.56 46.41 46.56 46.30 46.17 46.88 46.53 45.07 40.76 37.45 34.56 39.39 38.84 40.10 40.47 41.52 42.55 41.31 41.88 43.35 46.43 48.08 43.43 37.81 34.26 34.14 34.58 36.66 38.81 38.53 39.79 37.04 32.75 30.01 30.43 35.88 38.51 40.79 39.72 38.18 40.10 44.98 44.80 45.01
45.10 45.50 45.50 45.45 46.47 47.18 46.93 44.77 45.28 41.31 36.16 38.73 42.24 40.42 41.27 38.88 39.07 40.00 41.82 46.76 48.62 45.94 39.91 36.40 31.37 29.28 32.81 30.03 32.80 39.14 38.60 38.16 35.13 32.33 28.46 26.73 38.03 43.57 45.98 44.41 36.72 45.65 45.98 44.91
44.01 43.98 44.41 44.96 46.01 47.13 46.93 44.88 45.73 41.62 36.57 43.30 44.19 40.65 40.67 43.67 42.25 40.76 41.70 42.59 42.84 45.20 37.41 33.34 31.80 31.68 37.58 31.90 30.79 31.57 33.51 34.49 30.86 31.16 29.61 34.02 43.05 44.37 44.81 35.14 37.19 45.60 45.46 45.52
44.34 44.50 44.76 44.74 45.67 46.87 46.73 44.03 46.47 40.89 38.91 42.94 46.20 46.61 44.03 44.12 43.98 39.34 41.83 40.38 40.48 39.81 34.60 34.52 35.00 35.03 37.07 36.22 38.02 34.23 32.33 30.72 30.67 31.08 29.06 28.50 45.39 42.95 38.99 43.53 46.81 45.97 45.42 44.14
44.47 44.30 45.07 45.22 45.33 45.68 46.45 42.41 46.49 46.07 40.03 42.99 48.67 49.56 50.73 49.32 48.87 45.68 43.33 41.54 40.72 41.25 37.26 36.74 38.52 36.41 38.85 37.35 32.47 40.64 33.04 37.20 35.79 36.16 36.51 44.81 46.31 45.29 47.64 47.95 46.17 46.13 44.69 45.70
44.39 44.41 44.50 44.86 44.58 44.83 45.18 44.02 45.21 43.65 42.07 46.74 47.15 45.97 50.34 51.73 51.20 51.68 42.41 42.94 43.77 42.02 45.07 41.61 40.37 37.26 41.25 35.49 36.85 39.10 41.44 43.48 38.35 39.30 43.35 44.48 46.53 48.46 48.00 47.53 45.87 44.84 43.57 42.92
44.55 44.63 44.87 44.74 44.69 44.35 45.00 43.68 45.52 42.96 40.24 39.62 43.76 50.50 48.48 50.97 51.06 50.46 49.52 46.89 46.67 46.12 44.46 40.78 40.41 38.54 43.67 40.60 40.69 40.50 42.18 42.80 40.47 40.31 43.37 45.57 46.84 46.60 46.28 45.17 43.97 41.93 41.34 41.94
44.34 44.30 44.56 44.78 44.89 44.83 45.40 46.16 46.31 45.42 40.40 38.65 42.37 47.88 49.41 49.28 49.12 48.48 48.89 47.08 45.29 43.33 40.34 40.56 39.07 44.44 43.09 44.11 42.68 40.22 43.30 42.04 40.34 39.84 46.04 46.05 45.74 45.91 45.82 44.73 42.30 41.10 40.41 40.13
43.64 44.44 44.85 45.25 45.13 45.51 43.78 40.62 45.66 46.26 44.74 41.22 38.32 46.30 46.34 46.93 47.88 46.60 45.41 45.58 45.26 44.33 41.74 42.66 44.68 46.83 44.26 40.22 38.36 44.07 46.24 46.75 47.19 44.72 47.25 46.80 46.08 45.82 45.24 43.03 41.39 41.04 39.88 39.88
44.76 45.42 45.68 45.77 45.58 45.63 40.30 40.61 44.23 47.15 45.58 42.27 38.44 40.15 45.12 46.14 45.74 45.30 44.43 45.71 44.74 44.24 43.65 42.16 43.19 44.97 44.95 41.40 37.23 43.79 46.56 47.23 47.61 48.75 47.29 45.80 44.88 44.92 43.82 41.37 39.60 39.42 38.66 38.47
46.62 47.89 47.39 46.74 46.19 45.78 42.33 45.18 46.80 46.78 43.20 44.84 34.77 38.86 41.43 45.01 42.27 40.85 44.86 42.98 43.42 43.77 42.92 43.27 42.63 43.70 43.36 39.06 43.27 45.44 46.66 46.82 46.44 47.23 47.68 45.66 44.50 42.82 40.20 39.05 38.02 35.99 35.40 35.78
47.37 47.73 47.11 46.17 43.97 40.59 44.09 48.68 48.58 47.33 45.92 39.74 39.11 36.87 36.12 45.06 43.14 42.99 42.50 42.56 38.61 42.95 40.40 41.20 41.67 40.10 36.97 41.83 43.60 44.94 44.96 44.25 44.35 43.49 43.75 43.49 42.83 40.50 38.53 37.99 37.44 34.57 34.72 35.39
46.82 45.83 40.76 38.35 43.37 47.63 47.69 46.25 43.59 43.09 43.97 42.60 39.15 42.75 38.80 42.77 42.47 40.33 39.63 39.36 37.33 33.28 38.45 39.81 37.39 38.42 43.96 45.51 44.12 44.54 44.89 44.13 43.52 40.90 39.08 40.59 39.85 38.80 38.15 37.72 37.54 37.89 36.11 35.16
43.60 40.44 39.28 43.83 46.97 46.06 42.81 38.38 39.40 40.44 37.58 42.17 41.05 40.41 39.62 42.99 39.22 39.59 38.72 35.85 35.35 32.87 35.93 35.66 36.24 36.33 40.69 41.03 41.07 42.59 43.74 43.64 43.42 43.78 43.16 43.25 42.89 40.21 37.66 37.60 37.25 36.74 35.81 34.18
41.22 40.69 42.83 43.03 41.60 39.18 36.02 35.31 36.67 35.73 36.11 40.15 39.23 40.03 41.22 41.29 42.65 38.80 37.99 34.79 35.83 32.07 36.91 34.31 32.04 39.12 38.90 38.71 39.08 39.95 41.20 42.17 42.54 41.97 41.98 42.67 43.34 42.26 39.79 37.81 36.16 35.54 34.32 33.18
43.88 40.40 36.67 38.97 37.11 32.85 32.12 31.53 33.61 34.73 37.19 36.47 36.79 37.43 39.67 41.14 40.65 35.95 36.29 32.83 33.09 36.41 32.97 32.22 36.59 38.21 36.61 37.08 37.99 38.87 39.88 40.37 40.37 39.90 40.78 42.25 41.96 41.67 39.52 37.33 36.60 34.36 33.30 33.26
37.32 33.79 32.74 34.01 32.63 34.48 33.81 34.25 34.29 34.81 36.27 36.56 37.59 36.46 36.06 37.82 35.77 35.21 32.78 33.29 32.55 30.40 29.04 31.86 37.54 34.78 34.97 37.10 37.48 37.73 37.83 38.54 38.77 38.42 38.77 38.72 38.76 38.20 37.75 36.50 35.37 34.32 32.79 32.09
34.17 33.17 32.02 32.35 35.25 36.12 35.71 36.34 36.34 37.08 37.88 37.45 36.79 35.70 36.03 35.49 34.34 32.55 32.75 30.91 29.63 31.79 33.62 36.34 34.71 33.24 34.64 35.99 36.35 37.45 37.64 37.71 37.40 37.82 37.66 37.37 36.92 35.91 34.97 35.67 35.39 33.44 31.86 31.49
33.36 32.88 32.04 33.60 33.72 33.34 34.59 34.42 35.42 37.54 38.28 36.64 35.19 34.01 33.39 34.28 34.97 31.19 30.55 31.47 31.91 33.60 34.24 34.39 33.21 32.93 34.81 34.94 35.67 35.79 36.05 36.71 36.47 36.73 36.38 36.07 35.38 34.61 34.25 34.28 33.23 32.55 30.95 28.69
31.83 31.87 33.24 33.45 34.16 34.82 34.85 34.89 35.28 37.33 35.72 34.12 33.76 31.56 32.88 31.88 31.26 29.95 32.93 32.39 32.15 31.76 31.79 32.47 32.39 31.81 32.29 33.03 34.62 34.84 34.82 34.95 35.11 34.98 35.01 34.46 33.87 33.63 32.01 29.77 29.56 29.99 29.91 28.97

GFSNW_sfc_wetblb_054.txt.gz
Wetbulb
48.65 48.76 48.43 48.50 48.57 48.58 46.54 40.69 32.92 44.85 48.32 35.04 35.86 32.87 36.55 39.52 37.14 41.77 40.24 40.73 38.40 35.10 36.34 34.77 34.57 34.23 38.21 42.21 42.03 36.24 38.64 35.53 29.30 31.04 38.26 39.38 37.20 33.81 33.32 25.88 20.92 25.49 21.33 24.36
48.42 48.43 48.10 47.99 48.50 48.26 44.39 36.94 36.14 45.32 46.05 30.35 32.36 36.72 36.81 38.68 38.22 39.15 39.53 38.33 40.42 40.02 36.63 33.02 36.74 37.71 41.68 43.05 40.67 37.66 38.24 32.68 27.67 29.99 34.63 38.28 34.73 36.86 36.45 34.57 32.75 22.53 21.91 25.49
48.29 48.03 47.76 47.59 48.10 48.15 45.09 37.77 32.08 38.34 40.10 38.39 35.45 34.09 34.38 35.38 41.33 39.82 41.64 39.99 41.58 38.98 37.21 39.35 36.21 36.29 40.52 42.09 41.99 44.00 41.46 35.23 29.63 27.15 31.48 34.79 29.10 33.77 35.92 33.82 25.57 26.32 27.67 29.92
48.00 47.56 47.39 47.52 47.60 47.94 45.11 38.16 34.62 37.90 31.74 33.75 35.24 37.93 37.11 36.27 36.24 40.70 42.20 39.91 39.62 38.40 35.62 36.30 35.38 37.82 38.36 40.85 42.21 40.80 37.66 30.99 33.58 34.39 35.59 35.68 35.34 34.07 33.91 30.73 31.93 28.04 30.40 31.52
47.76 47.18 47.12 47.45 47.04 48.31 42.45 36.11 34.96 36.71 36.66 39.08 37.33 37.79 35.67 36.00 37.75 39.06 38.37 38.38 40.69 40.76 37.03 38.47 35.09 37.20 37.35 35.80 38.29 37.94 38.42 31.16 34.40 31.88 35.14 34.96 31.92 34.34 34.43 34.23 34.28 34.08 33.46 32.57
47.24 47.18 46.88 47.22 46.72 47.41 42.12 43.16 41.84 37.90 37.66 37.69 36.64 36.75 37.64 37.61 40.28 41.00 42.07 41.55 39.93 38.13 39.51 42.27 42.64 42.90 41.93 40.94 37.51 36.88 35.92 33.70 32.17 26.49 34.58 33.89 27.67 33.93 34.76 35.41 37.00 36.02 32.26 37.09
46.46 46.70 46.81 46.42 46.59 46.89 44.76 43.36 40.88 36.29 34.95 37.68 37.18 38.89 40.07 39.07 40.65 39.22 42.07 42.87 41.35 42.60 45.83 44.74 43.14 41.66 40.79 39.90 40.14 40.75 35.23 34.69 33.72 25.73 29.61 21.85 37.26 41.64 41.66 39.49 40.46 40.78 40.19 41.57
45.17 45.05 45.51 45.65 46.41 47.40 45.07 44.79 41.05 37.40 33.64 37.22 38.69 38.97 39.31 40.56 42.08 41.16 41.56 43.65 45.08 45.98 42.49 37.49 34.30 34.05 34.22 35.79 38.66 38.20 39.12 35.88 31.86 25.28 25.56 31.76 36.11 40.21 39.12 38.25 38.93 43.49 42.19 44.03
45.24 44.81 44.63 45.01 45.66 47.00 45.70 44.73 45.07 40.56 35.60 37.34 40.03 39.59 40.55 38.12 37.93 39.81 42.12 46.23 46.72 44.54 39.76 36.18 29.88 28.19 30.56 29.89 32.87 38.97 38.23 37.91 33.83 30.24 24.95 25.05 35.21 43.02 43.97 42.51 35.28 45.42 45.49 45.00
45.15 45.06 45.12 45.53 45.51 46.52 45.39 44.76 45.23 40.82 35.94 39.36 43.30 39.56 40.21 42.90 41.39 39.32 41.53 42.12 42.40 43.85 37.54 33.60 31.09 30.70 35.18 28.38 28.74 31.08 32.88 33.95 29.50 27.56 28.08 30.33 39.23 43.08 43.17 33.46 34.72 44.03 45.77 45.03
45.13 45.13 44.95 45.14 45.66 45.78 44.58 43.92 46.04 40.82 36.98 38.63 45.02 46.45 43.47 43.27 42.69 39.03 41.32 39.27 40.01 39.25 35.32 34.05 32.64 32.91 34.25 31.66 34.18 31.38 30.85 29.49 29.43 29.73 27.42 22.67 41.94 40.66 36.25 40.25 42.78 43.78 43.94 43.68
45.09 44.91 44.76 45.07 45.10 45.07 45.12 42.15 46.00 45.92 39.18 39.56 46.59 48.57 49.49 48.83 48.11 44.43 43.24 41.45 39.56 41.25 37.22 36.46 36.56 35.51 34.87 33.58 30.44 35.50 29.41 32.97 29.99 31.37 30.68 39.20 43.08 41.51 43.80 44.07 42.66 42.47 41.34 42.46
44.50 44.45 45.01 45.05 45.19 44.96 43.57 42.48 44.18 43.38 40.11 43.08 45.37 45.37 49.38 50.97 50.11 50.27 41.65 42.65 43.76 41.49 44.01 40.32 38.33 35.37 37.12 32.23 32.25 34.08 36.70 38.20 33.20 36.40 38.95 40.61 42.67 43.72 43.85 43.42 41.56 41.41 40.87 40.07
44.94 44.81 44.93 45.04 45.29 45.38 44.15 41.58 44.85 43.02 39.25 38.07 43.02 49.62 47.29 50.19 50.48 49.88 49.02 46.25 46.61 45.53 44.26 40.23 38.98 36.85 40.37 35.91 37.27 36.27 38.86 38.93 36.10 35.45 39.87 41.98 41.72 42.33 42.19 41.85 41.44 39.93 39.42 39.76
44.73 44.28 44.40 44.78 45.09 45.07 44.30 43.77 44.38 45.42 39.33 37.60 40.64 45.94 48.50 48.75 48.67 48.27 48.44 46.45 44.70 43.09 40.42 39.38 37.49 40.83 40.87 39.98 38.73 36.10 39.29 37.86 36.16 35.78 42.53 41.99 40.81 41.99 43.41 41.40 39.19 39.00 38.71 38.91
44.20 44.20 45.47 45.36 45.38 45.20 42.71 39.41 46.02 46.31 44.55 39.64 37.11 45.89 45.69 46.01 47.63 46.61 45.34 45.62 45.24 43.43 40.56 40.12 42.30 44.58 42.19 36.09 34.32 40.34 41.13 42.82 43.54 41.51 42.81 43.30 42.90 42.84 41.97 39.77 39.00 38.80 38.52 38.37
44.35 45.28 45.98 46.21 45.69 44.01 39.70 39.64 43.56 46.83 45.66 40.78 37.30 39.37 44.76 46.14 45.82 45.49 44.25 45.35 43.80 43.61 42.01 41.40 41.92 41.61 42.72 37.91 33.50 40.18 42.57 43.67 44.07 44.36 43.80 41.58 42.08 40.85 40.14 38.26 37.99 38.77 37.17 36.93
45.22 47.47 47.75 47.02 46.25 45.19 41.53 44.56 46.65 46.99 42.14 42.84 34.46 37.14 40.72 45.12 41.83 40.25 43.80 42.43 43.03 42.45 41.74 42.92 40.73 41.89 42.11 34.43 40.20 42.11 42.90 43.70 43.14 43.47 43.72 42.09 40.94 38.96 37.07 36.02 36.19 35.00 33.58 34.22
45.99 47.45 47.45 44.68 42.32 40.20 42.62 48.56 48.12 45.98 43.51 38.70 37.70 34.60 34.10 44.15 42.63 42.64 42.25 42.50 37.98 42.69 39.62 40.60 41.22 38.97 35.29 38.82 40.95 41.32 41.95 41.14 41.01 40.68 41.15 40.65 39.38 37.08 35.71 35.05 34.84 33.48 33.92 34.13
46.77 45.42 40.93 37.56 42.33 47.76 47.46 44.34 41.61 39.83 43.11 42.40 38.48 41.72 36.89 41.53 41.35 38.93 38.73 39.26 36.40 32.03 37.83 39.55 37.29 37.43 41.70 40.60 39.88 41.07 41.94 41.49 40.62 37.58 34.92 35.60 34.94 36.16 35.55 35.31 35.93 35.42 34.86 33.52
43.32 40.31 38.93 43.25 46.67 45.10 42.57 37.70 38.25 39.33 36.84 41.03 40.47 39.94 37.92 42.07 37.48 37.69 38.50 34.52 34.01 31.80 33.79 34.71 34.17 34.28 37.12 37.38 38.13 38.91 39.94 40.66 40.58 40.78 39.65 39.74 40.37 38.21 37.18 36.56 36.79 35.85 34.41 32.06
41.26 40.64 42.23 42.16 40.61 37.85 35.35 34.28 35.58 35.34 34.20 39.19 38.52 39.27 40.33 40.17 41.09 37.67 36.54 32.91 33.61 31.12 35.84 33.59 31.23 35.41 34.91 35.24 36.25 37.35 38.18 38.78 39.32 39.02 40.34 40.41 41.87 40.10 38.26 36.55 35.30 34.64 33.46 32.47
43.48 40.28 35.56 37.45 36.07 32.36 31.87 30.51 32.69 33.54 35.46 34.91 35.55 35.80 38.69 40.25 39.16 34.88 34.26 32.01 31.96 34.56 31.93 30.49 32.59 32.31 33.45 34.78 35.82 36.23 37.54 38.21 38.28 37.75 39.43 41.01 40.25 39.19 37.58 35.26 34.68 32.99 31.69 31.84
37.00 33.33 32.32 32.60 32.01 33.69 33.49 33.49 33.41 34.34 35.33 35.60 37.07 35.43 35.68 36.90 34.94 34.24 32.21 32.76 32.13 29.73 27.67 26.49 29.32 30.23 31.62 34.18 35.43 36.24 36.34 37.00 37.01 37.19 37.97 38.21 37.59 36.33 35.77 34.36 33.21 32.22 30.84 30.43
33.55 32.85 30.85 32.23 34.14 34.52 34.19 34.05 35.49 35.76 37.17 36.71 35.04 34.55 34.93 33.85 33.14 32.59 31.91 30.71 29.21 28.74 28.13 29.15 29.69 30.42 32.18 32.68 33.57 34.34 34.68 35.40 35.33 36.10 36.02 35.62 35.06 34.03 32.86 33.26 32.67 31.65 30.58 29.21
32.95 32.23 31.33 32.50 32.59 32.12 33.28 32.95 33.56 36.45 37.53 35.25 34.56 33.10 30.98 32.18 32.97 30.62 30.71 28.74 24.35 27.29 27.94 28.79 29.23 29.98 31.06 31.45 32.19 33.54 33.94 33.93 34.12 34.35 34.49 34.44 33.28 32.24 31.43 31.21 30.52 30.32 29.06 27.64
31.72 31.60 32.87 32.94 32.77 32.98 33.31 34.52 34.76 36.65 34.94 33.08 33.05 31.14 29.12 28.82 29.96 29.65 28.11 24.45 25.35 25.27 26.03 27.60 29.61 29.56 30.02 30.77 31.54 32.93 32.81 32.90 32.44 32.82 32.15 31.73 31.31 30.52 29.37 26.67 26.23 27.82 27.53 26.70

GFSNW_sfc_wetblb_057.txt.gz
Wetbulb
48.96 48.79 48.45 48.28 48.62 48.53 46.99 41.37 32.45 44.82 47.60 34.39 35.00 29.65 35.49 39.68 36.17 37.23 39.06 39.20 36.49 33.89 35.75 33.29 33.15 32.39 35.79 39.60 39.15 34.63 36.62 34.27 28.54 31.06 36.93 38.28 35.08 32.08 31.72 19.46 17.41 20.33 18.18 22.52
48.36 48.29 47.97 48.02 48.61 48.25 44.24 37.07 36.82 45.31 44.90 26.59 29.09 34.66 36.47 38.52 34.54 37.35 39.23 38.02 38.64 37.95 36.36 31.75 36.01 35.08 41.17 40.85 39.26 35.69 36.54 30.39 27.13 29.65 33.77 35.87 33.57 34.33 35.67 33.08 31.13 17.41 16.04 22.76
48.10 47.78 47.58 47.75 48.07 48.30 44.29 37.51 30.95 35.14 37.58 37.73 34.54 33.61 34.59 34.71 38.82 40.28 41.09 39.68 39.63 38.07 35.69 38.07 35.67 35.59 40.69 42.43 42.01 44.40 40.47 34.82 26.74 21.56 26.92 33.77 29.73 33.74 35.13 33.48 24.86 23.08 23.25 28.30
47.67 47.66 47.43 47.71 47.37 48.42 44.20 38.47 34.50 36.53 29.14 31.80 34.41 34.62 36.23 34.30 35.57 40.21 41.77 38.63 38.55 37.87 34.93 35.36 34.93 36.70 37.31 40.47 42.79 40.50 36.60 28.77 30.78 32.58 33.94 33.79 33.16 33.08 32.49 30.13 31.54 28.33 28.57 29.63
47.15 47.10 47.27 47.06 47.09 48.31 42.03 36.47 34.46 37.02 35.84 36.71 35.29 35.62 35.15 33.95 38.14 39.49 37.66 37.08 39.85 39.69 36.02 36.62 33.98 36.71 35.12 34.36 38.47 37.42 37.63 29.24 32.24 30.26 33.68 33.27 30.84 33.41 33.84 33.50 33.21 32.36 32.44 31.47
46.08 45.60 45.87 46.29 46.53 46.78 40.89 41.99 41.67 37.90 35.94 36.70 32.61 35.84 35.30 36.12 40.18 41.03 41.84 40.38 38.42 37.54 38.61 40.33 40.63 40.66 39.47 38.21 35.41 34.29 34.22 31.64 31.15 19.44 31.89 30.80 24.80 31.62 32.91 33.14 34.26 34.50 29.88 35.34
45.83 45.37 44.97 45.26 45.78 46.47 43.35 42.75 40.66 36.05 33.72 35.90 35.55 37.48 39.71 39.05 40.60 38.83 41.22 42.00 39.16 40.96 43.96 43.31 41.83 39.69 38.62 38.02 38.93 39.35 34.26 33.82 33.56 24.13 27.77 19.35 31.07 39.61 38.89 36.64 39.36 39.47 39.55 40.71
45.34 45.41 45.18 45.20 45.48 46.53 41.46 44.38 40.79 37.28 32.84 36.12 37.50 38.75 37.41 39.41 42.00 40.50 41.38 42.25 42.83 44.08 41.10 34.98 32.67 32.09 32.51 35.13 38.31 38.06 38.94 35.50 29.53 23.64 23.05 29.17 34.34 38.40 38.27 36.48 37.01 43.63 41.73 43.04
45.32 45.21 45.20 45.18 45.76 46.18 41.75 44.14 44.59 40.00 35.05 33.86 37.74 38.74 38.29 34.88 37.47 37.42 41.75 44.58 44.68 42.77 38.17 35.25 29.33 26.87 29.30 29.11 32.68 38.53 37.91 37.18 32.53 30.14 25.31 22.68 33.43 40.23 43.07 40.78 35.41 44.24 44.52 44.44
45.34 45.07 45.07 45.10 45.26 45.82 41.71 43.67 44.64 40.78 35.26 38.88 40.42 39.04 37.26 41.45 40.16 35.87 38.97 40.29 40.15 41.60 35.58 32.44 30.75 29.58 34.92 26.69 26.68 29.26 32.54 33.34 29.75 26.90 26.68 28.07 35.88 41.42 42.74 32.24 32.86 42.66 45.29 46.17
45.25 45.03 44.73 44.96 45.10 45.26 42.61 41.20 45.55 41.18 36.69 37.73 39.85 44.91 43.35 41.16 39.49 36.20 39.20 36.69 37.69 38.79 33.58 32.61 32.67 29.99 33.89 30.12 30.86 29.83 30.25 29.12 28.60 29.09 24.03 21.21 37.78 40.21 36.85 39.90 41.71 42.67 43.91 42.86
45.59 44.73 44.46 44.74 45.43 45.14 44.31 38.59 45.49 45.61 39.11 38.32 42.43 43.41 45.85 46.97 46.27 41.65 42.48 39.73 37.63 38.91 35.20 35.24 34.99 33.33 33.16 31.17 28.09 32.30 30.17 31.58 29.24 29.35 28.99 36.41 39.83 40.92 43.01 42.26 41.04 40.94 41.17 41.84
45.57 44.96 44.74 44.80 45.37 45.51 43.54 39.86 42.86 42.86 38.68 40.79 42.07 42.74 47.41 49.13 48.47 48.60 40.36 42.36 43.50 41.34 42.51 40.05 38.00 31.81 34.22 29.87 30.13 31.43 33.32 36.67 31.66 32.61 35.96 37.22 39.32 41.11 41.12 41.01 40.13 39.30 39.55 39.72
45.56 45.08 44.85 44.46 44.78 45.30 44.77 39.29 43.33 41.70 39.06 35.79 41.68 48.58 45.40 47.85 48.42 47.70 46.62 44.17 45.24 44.75 43.42 40.20 38.32 36.54 37.60 35.07 35.33 34.96 36.82 36.08 33.24 32.55 36.67 38.56 40.10 40.94 40.97 39.73 38.87 37.95 38.14 38.54
45.09 45.19 44.64 44.36 45.20 45.14 42.74 40.97 42.96 43.66 38.85 36.32 39.14 43.36 46.42 47.19 46.76 45.67 46.90 45.60 44.25 43.03 40.70 39.30 36.42 40.34 39.81 37.43 36.62 34.28 38.31 36.32 33.96 33.12 39.36 40.15 40.90 42.25 41.61 39.32 38.29 37.71 37.67 38.32
44.24 44.25 44.72 45.09 45.96 45.19 40.08 38.02 44.91 44.90 44.14 38.38 35.90 45.07 43.21 45.76 47.33 46.65 46.34 46.58 45.07 43.66 41.03 39.91 41.81 43.64 41.89 37.13 35.89 39.54 39.99 40.25 41.32 39.62 42.10 43.69 42.16 41.37 39.75 38.11 37.50 38.11 38.00 38.20
44.43 45.09 45.98 46.39 45.82 41.78 38.34 39.10 43.38 46.80 45.03 39.45 36.56 38.40 44.26 45.67 44.96 45.39 44.61 45.42 43.51 43.19 41.47 39.88 40.49 41.73 42.50 38.51 32.58 40.15 40.06 41.94 42.32 43.39 43.28 41.51 40.92 39.90 37.42 37.31 37.33 37.72 36.13 36.31
44.60 45.82 47.88 47.47 46.64 44.34 40.75 43.43 45.86 46.67 41.97 41.69 34.22 36.51 38.97 44.31 41.58 40.17 43.51 41.40 42.10 41.88 40.90 42.43 40.76 41.44 41.28 36.72 38.03 40.20 40.82 41.11 40.77 41.08 42.41 41.22 38.64 36.36 34.87 34.88 34.49 33.19 32.93 33.67
44.27 46.64 46.81 42.37 39.53 37.98 41.62 48.40 47.13 45.64 42.32 37.21 37.11 33.85 32.43 43.80 42.03 42.45 41.89 41.95 37.43 42.26 37.77 39.60 41.22 39.04 35.49 37.54 39.10 39.24 40.10 40.21 41.07 40.70 40.05 38.82 37.37 35.28 33.99 33.64 32.98 31.54 31.61 32.50
45.50 44.83 40.45 36.23 40.90 47.85 47.28 44.08 40.41 38.67 40.04 40.69 38.08 41.02 36.15 40.49 40.81 39.03 38.69 39.14 34.85 32.00 37.15 39.56 37.30 37.30 40.58 36.82 36.33 37.33 38.06 39.28 40.62 38.45 36.66 34.67 34.01 34.97 33.58 33.11 33.44 33.65 33.36 32.78
42.98 39.73 38.42 42.45 46.16 44.53 41.69 37.51 37.33 38.16 36.10 40.53 40.43 39.94 37.29 41.71 36.96 37.52 38.57 33.76 32.58 31.32 33.01 33.58 32.43 34.27 34.39 33.46 34.59 36.43 37.32 37.76 38.08 39.18 40.07 40.26 39.47 37.12 34.94 34.42 34.56 34.99 34.06 32.26
39.52 39.28 41.71 41.80 40.09 37.68 34.85 34.07 34.97 34.76 34.08 38.80 37.87 39.07 40.10 39.73 40.73 37.37 36.31 32.06 32.44 30.56 36.09 33.05 31.00 33.33 32.10 32.69 34.58 35.98 36.24 37.70 37.38 38.07 39.54 40.46 41.46 39.85 38.05 36.51 35.20 34.21 32.74 31.76
42.36 39.78 35.06 36.42 35.06 31.79 31.68 29.90 32.12 32.73 34.83 34.52 35.11 35.26 37.40 39.80 38.81 34.68 33.93 31.72 31.72 35.03 31.91 30.28 30.99 30.79 32.05 33.15 34.38 35.30 36.62 37.01 36.48 36.77 38.47 40.32 40.29 38.66 37.59 35.28 34.21 33.07 31.82 31.67
36.22 32.80 31.08 32.28 31.45 32.37 32.98 32.03 32.06 31.41 33.56 34.95 36.48 34.69 35.44 36.85 34.76 34.12 31.99 32.85 32.09 29.15 27.54 26.41 29.07 29.62 30.59 32.64 33.09 33.94 34.00 34.71 34.93 35.66 36.87 37.30 36.94 36.08 35.89 34.51 33.54 32.33 30.59 29.89
32.98 32.06 29.89 32.05 33.05 32.98 32.80 33.35 34.36 34.83 36.29 36.06 35.12 33.45 34.40 33.29 32.82 32.92 31.88 30.48 28.19 28.86 29.37 27.61 28.05 29.39 30.12 30.66 31.10 31.77 32.73 33.36 33.71 34.27 34.75 34.58 34.09 32.89 31.40 32.06 32.39 32.11 30.20 28.75
32.42 31.86 30.52 32.08 32.22 31.81 32.33 32.28 32.67 35.47 36.89 34.53 34.13 32.72 31.88 31.73 32.14 30.29 29.92 28.82 27.25 26.27 26.48 26.04 26.68 28.08 28.91 29.34 30.34 31.47 32.21 32.19 32.04 32.77 33.31 34.13 33.31 32.24 30.59 30.46 30.34 30.15 28.87 27.34
31.04 30.18 32.17 31.42 31.69 32.37 32.53 33.45 34.22 35.73 34.83 32.69 32.71 30.81 29.49 27.93 28.96 28.92 29.75 25.51 28.19 24.19 23.20 23.93 25.80 26.43 27.77 28.88 29.69 30.52 30.49 30.82 30.39 30.50 30.21 30.74 30.50 29.78 28.57 26.57 26.17 27.06 27.36 27.60

GFSNW_sfc_wetblb_060.txt.gz
Wetbulb
48.35 48.65 48.08 48.00 48.69 48.82 46.80 40.67 32.32 44.92 47.33 32.84 32.76 28.62 34.47 38.86 35.93 36.65 35.62 39.13 36.07 33.46 34.02 32.59 31.90 31.89 34.20 38.68 38.07 33.16 35.04 31.96 29.45 30.93 35.89 37.88 34.55 31.70 30.72 18.80 16.76 18.81 19.55 23.48
48.25 48.22 48.17 48.11 48.02 49.08 43.79 36.22 36.82 44.24 39.85 24.13 26.73 34.99 33.69 37.50 35.17 35.45 39.17 37.40 37.05 36.81 35.12 31.42 33.87 33.57 38.80 39.45 37.59 34.74 35.12 29.39 22.09 28.72 32.20 35.23 33.02 33.37 33.71 30.71 28.57 18.57 17.25 23.44
47.83 47.66 47.82 47.60 47.70 48.98 43.74 36.86 29.06 32.06 35.13 36.42 34.08 33.81 34.99 34.34 38.05 37.61 40.29 37.67 38.37 36.46 35.29 36.82 34.41 34.32 39.51 40.22 39.39 43.66 40.05 32.46 26.80 22.26 26.22 31.29 27.62 32.37 33.41 30.75 23.81 21.59 23.20 25.80
46.89 46.62 46.62 47.01 47.29 48.43 43.90 35.78 33.33 35.90 30.31 30.05 32.38 35.10 35.43 33.92 35.40 41.04 40.65 37.12 37.94 37.09 34.07 34.09 33.39 35.94 36.89 39.75 42.63 38.97 35.26 28.67 30.42 31.48 33.11 32.99 32.14 31.12 32.19 28.91 30.43 25.62 26.81 28.68
46.58 46.10 45.67 46.04 46.76 47.91 42.11 35.99 34.79 36.94 35.48 36.73 34.05 34.43 34.24 35.00 38.71 39.46 37.38 36.58 39.36 38.39 35.28 35.87 33.70 35.78 34.89 33.98 38.14 37.25 37.01 28.20 31.03 28.50 32.57 32.21 29.60 31.88 32.31 32.58 32.72 31.88 32.13 31.36
45.99 45.86 45.57 45.54 46.22 45.84 39.26 41.91 41.41 37.74 35.90 36.00 32.45 35.41 35.90 37.83 40.43 40.84 42.00 40.56 38.26 36.56 37.42 39.46 39.75 39.63 38.63 37.52 35.14 34.50 34.88 31.50 28.79 21.06 30.08 29.12 23.92 30.13 31.83 32.53 33.93 34.29 30.29 34.43
45.67 45.44 45.68 45.56 45.99 46.15 41.29 42.42 40.64 35.97 33.06 35.21 35.50 37.43 38.71 38.32 40.83 38.71 41.44 41.90 38.79 40.46 42.99 42.02 40.87 39.28 38.10 37.78 37.66 37.82 32.45 32.57 33.19 22.22 26.12 19.01 29.41 36.66 35.47 33.91 35.30 37.44 37.20 38.58
45.87 45.50 45.49 45.51 45.87 46.40 39.66 43.73 40.59 37.06 32.56 35.14 35.87 36.79 37.70 39.28 40.61 40.09 39.88 40.87 41.76 42.90 39.91 34.12 32.98 32.97 34.26 35.47 37.84 37.23 37.66 34.98 28.98 24.53 23.62 27.74 31.40 37.40 37.43 35.71 35.64 42.53 41.78 42.71
45.71 45.32 45.15 45.22 45.29 46.12 39.68 43.42 44.30 40.00 34.93 33.24 36.69 35.91 36.93 33.57 34.44 36.57 40.51 43.37 43.79 41.59 36.49 33.27 26.67 27.14 29.42 29.44 32.72 38.26 37.85 37.72 32.34 29.50 25.22 21.27 31.10 38.19 41.93 40.04 33.97 41.67 43.69 43.49
45.52 45.41 45.07 44.75 45.22 45.36 40.41 40.93 44.62 40.85 35.16 38.01 39.50 36.35 35.88 38.02 36.78 34.02 36.96 39.11 39.19 39.98 33.15 28.64 29.42 29.67 33.98 25.82 25.95 29.63 33.15 33.65 29.61 29.24 27.10 27.06 34.00 37.00 41.14 33.18 32.51 40.61 43.81 45.47
45.57 46.03 44.78 44.42 44.85 45.52 40.50 38.01 44.78 41.02 36.75 37.72 38.70 42.09 41.35 40.14 38.51 36.33 37.99 36.07 36.50 35.99 31.70 32.05 29.21 28.62 31.02 28.18 29.36 28.72 29.43 28.07 28.94 29.83 26.23 21.43 35.79 38.67 35.40 39.84 40.17 41.11 41.73 44.24
45.35 45.72 45.23 44.66 44.95 45.67 42.96 35.53 45.38 45.14 39.26 37.89 42.01 42.67 43.88 44.03 45.89 42.73 40.37 37.77 37.01 36.46 34.66 31.82 31.62 32.31 30.87 29.22 27.50 30.91 29.73 31.22 28.28 28.78 28.27 34.98 36.28 38.00 42.14 41.60 39.77 39.17 40.03 41.23
45.40 45.41 45.65 45.07 44.76 44.92 43.93 37.00 41.31 41.19 38.52 38.93 40.43 40.82 46.97 45.75 45.06 49.58 41.63 40.91 43.11 40.94 40.93 39.12 37.21 33.07 32.00 29.14 28.66 29.17 32.35 35.88 30.61 31.33 34.50 35.62 37.83 39.00 41.35 41.79 39.65 39.55 38.95 38.74
45.48 45.54 45.45 45.17 44.86 44.77 44.82 38.22 42.38 40.79 38.04 34.61 40.45 48.04 44.20 46.99 47.38 46.48 45.32 43.18 44.12 44.28 43.24 39.32 38.16 36.40 37.20 34.94 35.68 35.20 35.68 35.12 32.40 31.13 34.95 36.67 38.99 39.91 42.05 40.21 39.16 38.28 37.88 38.02
45.13 45.38 44.79 44.89 45.02 45.32 42.60 40.07 42.33 42.76 37.29 35.27 38.27 43.37 44.69 45.85 45.59 44.63 46.41 45.00 44.08 42.93 40.41 39.41 37.10 40.14 38.38 35.28 34.57 32.68 36.66 34.53 31.63 31.72 37.48 37.83 39.48 42.60 42.96 40.14 39.08 38.11 37.57 38.14
44.89 44.45 45.02 45.47 45.45 45.32 39.60 36.35 42.19 43.54 42.09 36.76 34.92 43.18 41.82 45.63 47.08 46.27 45.86 45.61 44.58 43.76 41.39 39.95 41.54 42.90 39.77 36.33 35.44 38.82 38.66 39.07 39.43 38.04 39.62 41.03 41.53 41.96 40.02 37.78 37.52 37.41 37.60 38.57
44.44 44.68 45.76 46.32 46.27 41.55 35.85 38.38 42.98 45.46 44.51 37.89 35.95 37.64 43.92 45.67 45.33 45.12 44.97 45.32 43.87 43.31 41.33 39.92 40.10 41.14 41.89 38.37 31.58 38.74 39.19 40.08 41.55 41.84 42.33 40.06 40.79 40.59 37.79 37.12 36.73 37.38 35.38 35.95
44.16 45.55 47.43 47.30 46.74 43.95 39.47 42.69 45.13 46.46 41.64 40.82 33.47 36.31 36.04 42.73 41.57 40.14 43.59 40.91 42.13 41.93 40.60 41.44 39.87 40.80 39.81 36.04 38.72 40.24 40.42 40.62 39.91 40.07 39.93 39.14 38.06 36.43 34.92 34.32 34.16 33.16 32.56 32.62
43.75 45.51 45.62 41.51 39.15 37.13 40.77 47.65 46.76 45.25 41.59 36.35 36.66 33.87 28.93 43.62 41.95 42.27 41.45 41.66 36.51 41.58 38.12 39.01 40.89 38.32 34.53 33.69 34.48 36.28 37.27 37.47 38.68 40.86 40.74 38.34 38.00 36.09 33.54 32.79 32.26 31.54 31.16 31.47
45.36 43.94 39.93 36.00 38.89 47.17 45.88 43.23 38.87 37.91 39.56 39.12 37.06 40.82 36.44 40.39 39.18 39.24 38.94 39.01 34.32 31.96 37.13 39.63 37.43 36.95 34.91 33.88 35.34 35.47 35.02 35.90 36.49 35.85 38.08 35.97 35.41 35.59 33.49 32.49 32.65 32.41 31.76 31.05
42.66 39.16 37.75 41.96 45.75 44.15 41.23 36.71 35.85 36.57 35.19 39.75 40.26 39.17 37.58 41.47 36.40 37.38 38.80 33.58 32.44 30.69 33.08 33.46 32.15 32.49 31.21 32.53 32.06 34.12 34.72 35.23 35.91 36.76 37.89 39.44 39.75 39.28 35.78 33.45 33.32 33.08 32.38 32.37
38.93 38.72 40.94 41.10 39.54 37.58 34.32 33.45 35.05 35.08 33.70 39.21 37.65 37.99 39.95 39.95 40.70 37.42 36.28 32.06 32.13 30.07 35.24 32.54 30.83 30.90 30.76 31.28 32.35 34.23 36.07 36.45 36.98 37.12 37.22 38.58 40.36 40.94 38.47 36.45 35.14 34.32 33.34 32.76
41.68 39.00 34.65 36.26 34.70 30.64 30.89 29.19 31.54 32.41 34.92 34.75 35.14 35.23 36.70 39.61 38.56 34.84 33.93 31.34 31.57 35.15 31.69 29.75 28.85 30.35 31.03 31.13 32.16 32.71 35.19 35.45 35.61 35.61 36.91 39.11 40.01 38.87 37.33 35.33 34.58 32.95 32.01 32.10
35.63 32.38 30.20 31.62 31.15 31.58 28.04 25.97 28.98 33.03 34.43 34.94 36.52 34.80 35.42 36.88 34.65 34.52 31.97 32.62 32.12 28.92 26.79 26.69 28.42 28.99 29.92 31.03 31.85 31.65 32.68 33.69 34.05 33.97 35.42 36.68 37.41 36.82 36.54 34.92 33.77 32.55 31.16 31.20
32.76 31.75 28.80 31.78 33.13 32.86 32.66 33.40 34.54 34.87 36.09 35.91 34.77 34.12 34.33 33.20 32.55 33.05 31.89 29.82 26.82 29.24 28.98 27.76 28.26 28.75 29.27 29.61 30.08 30.71 31.78 32.35 32.46 32.63 33.00 33.95 34.20 33.69 32.75 32.71 33.30 32.52 30.47 28.74
32.37 31.79 29.60 31.82 32.02 32.06 32.24 32.31 32.56 35.14 36.44 34.35 33.81 32.66 31.94 31.68 32.07 30.25 29.66 28.49 26.87 28.64 27.70 26.11 25.89 27.38 28.06 28.50 29.35 30.44 31.12 31.13 30.61 31.18 31.70 33.01 33.19 32.08 30.46 30.79 30.09 30.25 29.58 27.73
30.44 26.96 32.05 31.67 31.60 31.95 32.37 33.48 34.10 35.31 34.74 32.35 32.69 30.84 29.79 30.21 28.88 28.72 29.97 29.44 28.92 22.92 22.23 24.10 25.31 25.67 26.79 27.54 28.50 29.03 29.56 30.11 29.67 29.08 28.83 28.73 29.34 29.17 28.07 26.21 25.88 26.40 27.26 27.24

GFSNW_sfc_wetblb_063.txt.gz
Wetbulb
48.32 48.38 48.11 48.44 48.08 49.22 44.72 37.35 28.47 41.67 44.34 29.86 33.11 25.65 33.68 37.19 36.31 38.11 36.42 37.59 35.12 32.15 32.74 31.32 31.16 30.82 33.88 38.36 37.43 32.22 33.54 31.56 28.62 27.72 34.65 36.83 33.91 31.17 30.05 19.73 17.06 20.17 17.16 22.27
47.48 47.20 46.94 47.44 47.74 48.87 42.03 33.87 33.45 40.58 39.39 22.90 26.69 34.10 35.14 36.92 36.17 36.57 38.09 35.77 36.77 37.04 33.83 29.75 32.66 32.78 37.14 38.57 36.91 34.13 34.74 27.89 21.70 27.40 31.47 34.99 33.46 33.09 32.19 29.14 25.87 14.51 15.74 22.19
47.05 47.00 46.52 46.61 47.17 48.57 40.81 35.03 28.96 32.67 33.45 33.38 32.84 32.16 33.82 34.86 39.51 37.76 38.55 36.61 37.67 35.50 34.53 35.71 32.97 32.87 38.73 38.78 38.39 43.06 39.40 30.91 26.58 22.37 25.78 30.36 27.64 31.33 32.33 29.38 23.32 20.53 21.39 24.86
46.77 46.28 46.38 46.21 46.93 48.00 40.05 37.09 30.12 35.68 30.11 30.21 34.56 34.22 33.85 33.61 36.40 39.78 39.49 37.25 37.22 35.80 32.85 33.59 32.98 35.14 35.97 38.85 42.33 37.35 34.92 28.07 29.98 30.47 32.05 32.23 31.28 30.75 31.24 26.86 29.21 23.16 24.42 27.58
46.82 45.82 46.17 46.03 46.69 47.42 41.86 34.96 34.21 37.13 34.97 36.23 36.25 35.94 35.14 36.80 37.84 38.15 35.79 36.02 37.57 37.52 33.97 34.63 33.14 35.21 34.27 33.65 36.23 34.73 34.48 28.37 30.28 27.70 31.43 31.69 29.63 31.56 31.77 31.78 31.45 30.63 31.11 30.55
46.78 45.96 45.86 45.97 46.31 45.18 39.01 41.14 41.52 37.72 35.29 35.83 32.41 36.38 37.70 38.30 40.18 40.85 41.57 39.81 37.29 35.63 36.63 38.07 38.78 39.19 37.17 36.72 34.67 33.21 33.20 29.85 27.40 19.60 28.93 28.86 23.88 29.09 30.83 31.00 32.03 33.04 28.97 34.10
46.79 45.88 45.57 45.92 45.82 45.78 38.49 41.79 40.83 35.73 32.15 34.43 33.22 36.30 38.77 38.88 40.59 38.95 41.26 41.27 37.72 39.59 42.17 40.66 40.04 39.16 37.73 37.59 36.87 37.72 32.27 32.83 31.39 22.84 25.76 16.74 28.17 34.20 34.31 32.67 34.01 36.08 37.24 38.69
46.44 45.90 45.27 45.07 45.53 45.90 38.35 42.82 40.47 36.95 31.68 33.85 34.05 35.96 38.16 39.23 39.91 40.09 39.80 41.20 41.46 42.20 38.96 33.90 32.71 33.04 34.25 35.53 37.49 36.71 37.29 33.51 27.92 22.28 24.78 26.86 30.35 35.30 35.68 33.34 35.37 39.33 37.55 40.03
45.86 45.94 45.65 44.91 44.79 45.57 38.58 41.75 44.11 39.91 34.57 31.41 36.52 36.24 35.80 34.56 33.75 36.13 39.30 42.53 42.75 39.86 34.65 31.24 25.45 24.13 28.10 29.01 32.78 38.03 37.33 37.11 28.17 26.67 23.72 20.43 30.93 37.02 40.30 38.99 32.50 40.64 43.08 43.72
46.16 45.85 46.22 44.87 44.40 45.04 39.55 38.33 44.34 40.35 35.15 36.85 38.36 37.02 37.78 37.15 35.02 33.61 36.00 37.85 38.63 38.62 31.30 26.67 24.32 26.63 31.95 26.02 25.92 30.15 33.05 34.07 29.93 28.36 26.94 26.23 32.64 36.40 40.00 30.75 32.70 41.25 42.21 43.21
46.42 45.64 45.71 45.73 44.68 45.04 40.44 37.12 41.92 40.78 36.14 37.22 38.62 40.22 40.55 41.28 37.14 33.68 36.57 34.59 35.17 34.58 29.10 28.09 28.10 28.32 29.20 27.32 28.52 28.08 29.58 28.12 27.29 28.88 26.08 19.85 34.19 37.66 33.42 39.89 41.10 40.37 39.65 39.86
46.12 46.08 45.69 45.88 45.50 44.97 43.05 36.51 42.37 44.56 37.73 37.66 41.37 41.88 43.15 43.04 45.76 41.60 39.43 36.39 36.25 35.73 33.49 30.70 31.08 30.34 29.57 28.06 25.75 29.72 27.75 30.22 27.78 28.82 27.84 33.94 34.60 38.89 41.35 40.63 39.67 39.32 37.97 38.86
45.93 46.04 46.02 45.95 45.71 45.29 43.39 39.21 37.49 38.49 37.27 38.29 39.03 38.20 45.10 45.16 43.28 45.95 40.50 41.74 42.00 40.25 39.34 35.68 34.74 30.63 30.57 27.99 30.80 28.21 32.14 34.04 30.19 31.03 33.16 34.49 36.71 38.22 38.70 40.51 41.13 39.92 37.91 36.93
45.69 45.58 45.66 45.89 45.73 45.50 44.48 40.51 39.11 38.30 37.67 33.39 38.33 46.60 44.85 48.41 46.50 46.53 45.58 42.95 43.09 42.91 42.87 38.80 37.45 35.30 36.98 31.50 34.04 33.53 34.86 35.25 32.78 30.55 33.90 35.39 37.24 38.51 39.68 41.34 40.78 38.49 37.62 37.13
45.49 45.24 45.55 45.07 45.29 45.31 43.37 39.13 39.83 41.35 36.61 33.86 36.46 40.99 44.40 45.80 45.00 44.28 44.43 43.79 43.37 42.55 40.16 38.79 35.51 36.95 37.85 33.93 34.52 30.94 34.82 33.17 30.71 31.24 36.97 37.32 37.18 41.23 41.87 40.24 39.99 37.93 37.21 37.09
44.81 44.84 44.95 44.96 45.51 45.31 40.91 32.42 39.25 42.63 40.99 35.41 33.93 43.00 43.75 45.81 46.69 45.65 44.86 45.40 44.24 43.54 41.11 40.16 41.25 42.27 38.92 34.80 32.40 37.40 39.04 40.04 37.63 36.60 38.02 38.85 40.43 41.30 39.20 38.54 37.30 37.23 37.30 36.83
44.58 44.68 44.91 45.32 46.05 42.13 33.43 34.72 42.21 44.02 41.95 36.17 34.38 36.31 43.15 45.41 45.03 44.58 44.31 45.00 44.46 43.65 41.69 39.99 40.32 40.32 41.29 37.89 33.44 37.27 38.25 37.88 38.99 40.72 40.84 39.63 38.92 38.86 37.24 37.38 36.57 36.89 35.09 35.65
44.23 44.17 46.13 47.53 46.69 43.67 38.63 42.16 44.26 45.12 39.66 40.04 33.15 35.55 35.09 43.87 40.78 40.20 43.85 40.60 42.17 42.01 40.32 40.84 39.62 40.64 40.11 34.29 36.23 36.04 37.13 37.51 38.71 37.76 38.97 38.52 37.35 35.53 34.39 34.91 34.50 33.16 33.03 32.86
43.87 44.24 45.67 40.70 37.87 36.39 39.42 44.28 46.39 45.45 40.99 35.61 36.23 33.82 29.10 43.14 41.96 42.13 41.28 41.52 36.78 40.99 37.64 38.26 40.07 37.57 34.13 33.09 32.98 34.13 35.18 35.12 35.87 36.95 38.46 40.24 37.78 37.44 34.84 33.82 32.54 32.31 31.49 31.77
44.29 42.87 38.70 35.26 38.15 45.52 45.93 42.46 37.87 37.06 38.84 38.59 35.77 40.33 36.29 40.21 37.57 38.65 39.16 39.10 34.70 31.86 36.85 39.78 36.20 34.31 34.44 33.75 33.74 34.43 34.39 34.80 33.92 33.71 33.73 37.45 36.91 36.41 36.31 33.95 33.21 32.93 31.91 31.07
42.19 38.43 37.00 41.28 45.50 42.96 40.18 35.22 34.54 35.64 34.22 37.87 38.90 38.97 36.53 41.28 36.87 36.84 38.99 33.53 32.48 30.19 33.35 33.64 32.55 31.58 31.38 33.04 32.18 31.92 35.27 36.21 36.07 36.54 35.97 35.85 36.70 38.19 38.44 36.37 33.70 32.57 31.44 30.57
36.86 37.09 39.75 40.56 39.02 36.80 32.73 32.43 34.76 34.01 33.32 38.56 38.23 38.22 39.11 39.53 40.91 37.39 36.30 32.28 31.89 28.95 34.96 31.96 30.40 30.10 30.75 30.30 29.72 31.08 34.14 35.47 35.08 35.86 36.19 35.95 37.65 39.28 40.03 37.92 35.31 34.29 32.97 32.36
40.76 37.86 33.87 35.24 34.47 30.29 31.28 28.71 31.18 32.16 35.27 34.99 35.26 34.76 37.02 39.18 38.93 34.96 33.83 30.82 31.06 34.97 31.51 29.58 29.46 30.37 30.65 30.08 29.90 30.37 33.66 34.94 34.60 34.43 35.03 36.35 39.21 38.84 37.37 35.21 34.35 33.55 32.85 32.78
35.18 32.15 29.51 30.86 30.45 31.86 31.79 29.86 25.18 33.38 34.38 35.05 36.56 34.64 33.69 36.89 34.63 34.78 31.76 32.63 32.16 28.20 27.14 27.84 29.14 28.68 29.36 30.05 30.83 30.44 31.59 33.18 32.91 33.05 33.50 34.93 35.75 36.91 36.70 35.12 34.34 33.08 31.73 32.01
32.49 31.92 27.49 31.12 32.71 32.77 32.61 33.41 34.40 34.98 36.47 36.03 34.17 33.74 34.34 32.70 32.35 33.03 31.82 30.00 24.70 28.54 28.05 28.30 28.02 28.38 28.74 28.91 29.41 30.05 30.86 31.21 31.42 31.69 31.61 32.44 33.61 33.50 34.20 33.99 33.72 32.93 32.17 30.77
32.12 31.73 28.06 29.67 31.69 31.95 32.10 32.30 32.48 34.75 36.22 34.16 33.57 31.86 31.73 31.33 31.93 30.39 29.42 27.92 25.08 26.42 27.14 25.21 24.87 27.24 28.14 28.13 28.69 29.30 29.71 30.33 30.33 30.23 30.38 30.61 30.51 31.39 30.78 31.53 32.32 31.62 29.95 28.10
29.58 28.91 31.89 31.07 30.02 31.93 32.29 33.90 34.00 35.33 34.80 31.53 32.65 30.27 29.80 30.72 29.05 28.30 30.68 29.82 29.40 22.91 21.32 23.34 24.98 25.37 25.70 26.25 27.65 29.14 28.55 28.62 29.06 29.57 29.32 28.27 28.23 29.13 28.32 26.94 25.83 27.11 29.47 29.45

GFSNW_sfc_wetblb_066.txt.gz
Wetbulb
48.09 47.45 47.61 47.27 47.76 48.98 44.35 35.50 24.08 39.69 41.10 27.11 32.24 29.29 34.71 36.96 37.11 38.83 37.53 36.86 34.80 32.88 31.69 30.97 30.65 29.91 33.32 37.61 37.12 31.74 33.08 30.95 28.86 30.86 34.99 35.90 33.20 30.42 28.67 19.95 17.60 18.90 15.66 20.57
47.77 47.05 47.16 47.04 47.73 48.67 43.13 34.36 31.99 39.24 37.66 23.33 28.53 33.54 35.39 37.36 37.30 37.57 37.14 34.28 36.76 36.27 32.84 30.12 31.68 31.59 37.11 38.68 36.79 33.76 33.98 27.30 25.87 27.18 30.60 33.44 31.82 32.18 30.87 27.84 25.11 16.01 17.46 21.87
47.68 46.76 46.61 46.66 47.43 48.32 39.89 36.08 28.19 32.30 32.74 34.77 33.13 32.56 33.43 34.62 39.92 38.13 38.50 35.80 36.92 34.83 32.79 34.06 31.49 33.15 37.74 38.21 38.07 42.40 38.51 29.52 25.60 20.77 24.39 29.76 27.46 30.89 30.57 28.07 20.05 20.89 20.56 24.06
47.57 46.84 46.30 46.61 46.99 47.58 40.25 36.87 31.03 36.10 29.39 32.92 35.28 35.58 33.71 34.57 36.15 38.48 38.71 36.59 36.41 34.46 31.29 32.33 32.44 34.84 35.32 38.16 40.96 36.62 34.10 27.22 29.13 29.60 31.45 31.43 30.54 30.57 30.53 26.42 26.83 23.50 24.37 25.33
47.56 46.68 45.99 46.41 46.60 46.68 41.30 35.41 34.13 37.11 34.79 36.05 35.98 37.62 36.71 36.72 37.16 36.57 35.64 34.75 36.59 36.36 33.11 34.06 32.33 34.03 33.08 32.21 35.46 33.84 33.44 28.08 28.52 26.90 30.95 31.30 29.62 31.35 31.49 31.16 30.42 29.10 29.85 29.67
47.59 46.57 45.94 45.64 46.22 44.84 38.73 40.76 41.74 37.82 35.42 35.20 32.86 35.68 37.73 37.86 39.38 40.62 40.59 38.18 35.97 34.62 35.85 37.07 37.51 37.17 36.20 35.83 33.82 31.90 31.53 29.16 26.66 19.95 28.58 28.64 23.35 28.74 30.31 30.18 31.21 31.55 26.93 32.92
46.92 46.52 46.02 45.41 45.65 43.82 38.32 41.00 40.44 35.82 31.37 32.67 33.14 35.23 38.63 38.33 39.92 38.50 40.02 40.00 36.66 38.97 41.50 40.01 40.12 38.81 37.54 36.79 36.27 36.28 31.52 30.99 29.03 22.94 24.77 16.19 27.99 32.94 33.90 32.27 33.21 34.38 36.38 37.95
46.88 46.27 46.45 45.72 44.93 45.67 37.67 41.61 40.30 36.84 32.00 33.16 33.96 35.18 37.01 38.94 39.83 39.31 39.20 40.47 41.34 41.84 38.18 34.10 32.65 32.76 32.42 35.16 37.39 36.47 36.89 32.35 27.20 21.53 20.92 25.50 29.49 34.20 33.48 32.27 35.75 37.71 35.79 38.60
47.26 46.47 46.16 46.28 45.07 44.76 37.80 38.32 43.73 39.15 33.74 31.97 35.99 35.64 35.53 33.18 34.23 35.91 38.97 42.06 42.27 39.18 34.63 31.55 26.46 23.77 27.95 29.23 33.29 37.80 36.61 33.95 26.38 22.84 20.86 19.05 29.66 35.19 38.84 37.66 32.40 40.21 40.18 41.69
46.74 46.82 46.02 45.90 45.81 44.78 38.81 36.79 41.86 39.24 35.03 36.42 37.11 36.46 37.23 37.26 34.21 33.42 35.06 37.75 37.98 37.35 30.45 26.69 24.26 25.43 29.90 25.03 25.06 30.64 30.73 32.29 27.12 26.10 21.65 25.88 31.72 35.24 37.23 28.41 32.77 40.56 39.57 39.33
46.23 46.35 46.28 46.15 45.87 45.52 40.09 37.73 38.77 40.02 36.20 36.90 38.52 39.23 38.56 40.27 38.61 33.75 35.91 33.91 34.67 33.91 28.49 26.96 27.27 27.47 27.78 25.28 26.76 27.51 28.45 27.24 26.28 28.37 23.33 18.23 32.86 34.80 32.08 38.64 39.98 39.23 39.67 39.01
45.86 46.56 45.93 46.47 46.19 45.92 42.50 35.79 40.16 43.70 36.39 36.97 40.65 40.74 42.20 41.87 43.09 41.86 39.51 35.63 34.84 34.96 31.43 30.02 30.31 29.54 29.07 26.50 24.10 28.31 26.66 29.11 26.50 27.26 26.74 32.94 33.53 38.60 40.16 39.30 38.90 39.23 39.22 38.31
45.64 45.70 46.00 45.91 46.11 46.35 44.39 39.09 38.42 38.66 32.83 34.60 38.27 37.18 41.58 43.85 42.78 44.76 39.91 40.81 41.26 39.65 37.72 33.33 32.76 29.78 29.91 27.43 30.12 27.09 30.49 33.18 29.71 30.45 32.60 33.63 35.51 36.71 37.03 37.89 38.31 41.08 39.70 37.72
45.43 45.66 45.79 45.46 45.96 45.60 44.92 38.87 40.11 38.94 34.81 32.70 34.91 45.59 43.21 47.97 44.20 43.83 45.88 42.06 41.99 41.68 41.90 36.47 36.09 33.95 34.69 31.50 31.63 30.63 32.53 33.51 32.53 30.34 34.30 35.84 37.97 38.99 38.07 40.42 39.99 39.37 38.36 37.44
45.55 45.28 45.00 45.10 45.42 45.27 43.34 40.20 41.22 40.61 35.97 32.43 34.67 39.54 42.27 46.41 46.49 45.54 46.05 43.76 42.40 40.98 39.90 38.13 35.66 36.91 36.62 32.51 32.82 29.78 33.50 32.57 30.51 30.59 36.15 35.38 36.08 37.98 40.97 40.67 40.01 38.07 37.06 37.15
44.37 44.72 44.80 45.00 45.25 45.14 39.76 36.42 37.79 41.57 40.97 34.53 31.80 42.33 42.25 45.47 46.30 45.52 45.25 45.10 43.75 43.23 41.27 39.94 40.42 39.63 37.97 33.60 32.98 35.08 37.35 39.44 38.11 35.22 36.89 37.76 38.47 39.10 38.74 38.00 37.63 37.22 37.15 36.33
44.40 44.19 44.63 44.39 44.87 43.68 36.39 31.47 41.03 43.58 41.46 34.83 33.13 36.34 42.14 45.40 45.18 45.03 44.28 44.94 43.94 43.48 41.91 39.99 40.13 40.11 40.80 37.42 32.50 34.96 35.41 37.06 37.99 38.99 39.53 39.23 39.05 36.98 36.72 36.32 36.07 36.41 34.87 34.85
44.22 44.42 44.31 46.18 46.77 44.06 39.37 39.78 43.95 43.80 37.43 37.61 32.18 35.41 35.66 44.65 41.39 40.17 43.57 40.73 41.80 41.99 40.58 40.60 39.36 40.40 40.15 34.01 35.06 34.47 33.96 35.19 35.93 35.95 37.36 36.68 37.84 36.23 35.70 34.08 34.28 33.44 33.80 33.21
44.51 43.83 45.22 41.90 39.02 37.38 36.98 44.99 44.19 43.64 38.79 33.78 35.21 33.56 31.25 42.50 41.76 41.82 41.35 41.40 36.63 41.01 37.85 37.55 39.58 36.93 33.42 33.68 32.97 33.62 32.70 33.58 34.83 35.96 36.45 37.61 38.46 38.94 37.39 33.26 32.98 32.28 32.58 32.34
43.50 42.79 37.85 33.46 35.82 44.78 43.01 41.98 36.36 36.66 37.55 37.71 34.87 39.64 35.61 40.40 39.84 36.30 39.15 39.04 35.47 31.83 36.40 39.86 35.60 34.54 34.69 33.88 33.31 33.77 33.49 34.69 35.44 33.62 33.38 33.95 34.42 36.18 36.99 37.39 35.69 33.43 33.16 32.31
39.24 37.52 35.06 40.38 44.96 41.06 38.24 33.13 32.81 34.27 33.42 37.05 36.84 35.71 36.03 41.57 36.51 36.44 38.97 33.67 32.59 29.97 33.44 33.48 32.44 32.01 32.25 32.49 31.91 32.42 32.78 35.42 35.90 35.50 35.67 36.09 36.08 34.64 36.39 37.95 37.47 33.87 32.84 31.50
34.68 35.82 38.71 39.19 38.26 34.84 31.63 31.19 34.06 33.08 31.38 37.85 37.81 38.61 38.50 39.34 40.95 37.37 36.28 32.29 31.81 27.39 35.29 31.78 30.17 29.93 30.43 30.14 29.21 29.55 30.54 34.49 34.65 35.31 34.76 35.14 36.01 35.85 36.97 38.78 38.30 34.98 33.60 32.59
40.22 36.63 32.91 33.77 33.56 28.99 30.33 27.20 30.75 31.79 35.17 34.96 35.40 34.90 37.80 39.01 39.30 34.99 33.45 30.84 30.72 34.83 31.06 28.89 28.75 30.41 30.85 30.15 30.32 29.81 30.90 34.55 34.01 33.98 34.35 34.75 35.60 38.82 37.08 35.25 34.88 33.59 32.67 32.45
34.87 31.82 28.85 30.00 29.92 31.71 32.10 30.42 30.33 33.45 34.48 35.17 36.62 34.78 34.55 36.86 34.74 34.85 31.58 32.95 32.17 25.84 22.87 24.19 29.19 28.80 29.09 29.76 30.17 30.76 31.20 32.71 32.71 32.94 33.33 32.99 33.93 35.37 36.40 35.04 34.38 33.61 32.35 32.56
32.42 31.66 27.34 29.69 32.72 32.80 32.73 33.46 34.24 35.09 36.47 36.06 33.85 33.51 34.24 32.90 32.38 32.84 31.86 30.18 23.63 27.20 26.30 27.75 28.18 28.53 29.07 28.91 29.20 29.36 29.55 30.13 30.76 31.07 31.04 31.45 31.65 32.86 32.96 33.87 33.67 33.28 32.72 31.86
31.87 31.47 29.30 29.90 30.76 31.83 31.95 32.28 32.51 35.09 36.46 34.73 33.09 31.71 30.08 29.82 32.00 30.30 28.82 27.61 22.35 25.39 25.69 25.04 25.43 27.47 28.03 27.40 28.28 29.16 29.01 29.02 29.27 29.90 30.01 29.91 29.36 30.06 30.96 32.14 32.61 32.29 30.94 29.97
28.85 29.05 31.87 31.00 30.74 31.20 32.03 33.87 34.33 35.53 34.96 28.18 32.25 27.88 26.80 30.18 29.20 27.91 30.32 29.02 28.84 28.15 21.24 22.55 25.04 25.72 25.44 25.58 26.76 27.87 27.96 27.26 28.28 28.86 28.74 28.80 28.84 29.17 28.25 26.68 27.18 27.67 30.78 29.66

GFSNW_sfc_wetblb_069.txt.gz
Wetbulb
48.87 48.14 47.50 47.81 47.85 48.99 43.66 33.67 24.83 38.62 40.03 30.45 29.17 30.35 33.90 37.81 37.69 39.47 37.70 36.27 34.23 31.40 31.32 29.87 29.67 30.45 34.03 38.68 37.31 32.08 33.74 31.86 28.89 30.98 35.50 36.13 33.62 31.25 29.28 22.32 20.64 19.78 19.61 24.68
48.63 48.06 47.29 47.38 47.70 48.45 40.98 34.86 33.36 38.35 37.17 28.84 29.64 33.13 34.96 38.06 36.93 37.24 36.99 34.93 36.04 34.72 31.87 29.26 31.06 32.22 37.63 38.58 36.65 33.65 33.92 28.68 25.86 27.06 31.11 34.25 32.47 32.59 30.97 28.49 26.84 20.90 20.55 25.38
48.28 47.92 47.11 46.68 47.32 48.01 38.14 31.46 24.89 32.10 35.80 35.65 34.21 33.45 34.09 34.66 39.18 37.76 37.76 35.36 36.04 33.72 32.15 34.18 31.06 33.22 37.02 38.53 39.37 41.70 37.75 29.68 26.99 23.12 26.11 31.09 29.38 31.17 31.10 29.69 24.35 23.69 23.50 26.70
48.49 47.70 46.87 46.32 46.89 47.29 39.79 33.43 26.72 35.94 30.63 34.06 35.23 35.77 35.73 35.41 34.32 37.50 37.93 35.54 35.40 33.17 30.62 32.05 32.03 33.95 34.75 38.16 39.41 36.51 34.09 27.94 29.57 30.57 31.98 31.97 31.15 31.22 30.40 27.94 28.52 26.49 26.91 27.10
48.29 47.47 46.65 46.09 46.52 46.46 37.61 35.93 35.00 37.29 35.00 35.77 35.55 37.12 36.64 36.43 36.22 36.01 34.78 33.78 35.24 35.13 32.75 33.04 31.57 33.63 32.36 31.98 35.29 33.41 33.40 28.89 29.76 27.78 30.90 31.42 30.23 31.65 31.82 31.10 30.93 29.09 29.50 29.92
47.76 47.21 46.80 46.25 45.89 44.09 34.37 40.39 41.35 37.85 34.95 34.26 34.07 34.21 35.79 37.45 39.85 40.52 39.28 37.23 35.05 34.06 34.83 36.25 36.59 36.91 36.13 35.68 33.38 31.63 31.20 28.95 27.32 22.13 29.00 28.96 24.38 29.39 30.89 31.19 32.04 32.24 28.39 33.22
47.64 46.97 46.58 46.53 45.40 43.24 36.64 40.43 39.37 35.50 30.61 33.20 32.51 35.32 37.38 38.67 39.62 38.16 39.17 38.90 36.18 38.55 40.72 39.71 38.75 38.19 37.39 37.25 36.01 35.74 31.49 30.33 29.64 24.48 25.52 17.24 28.33 33.47 34.31 33.10 33.52 34.40 36.30 37.84
46.95 47.26 46.52 46.32 45.86 45.17 38.00 38.27 39.97 36.28 30.83 32.93 34.02 34.40 36.42 38.02 39.81 37.80 37.87 39.67 40.46 41.27 37.55 33.95 31.60 31.08 31.83 35.47 37.36 36.43 36.64 31.39 27.68 23.09 22.23 25.15 31.30 33.88 32.36 32.20 36.02 37.27 35.62 37.44
46.74 46.99 46.90 45.93 46.26 45.26 38.69 36.11 39.84 37.88 33.55 31.95 35.49 34.87 36.44 34.53 33.48 35.06 37.30 40.39 41.03 39.19 35.00 31.39 26.70 23.49 27.26 28.89 33.33 37.70 36.10 32.92 27.57 24.71 21.72 19.47 31.07 36.64 38.89 38.78 34.57 40.75 38.14 41.08
46.43 46.42 46.59 46.44 46.21 45.74 39.77 37.02 39.07 34.56 34.72 35.73 36.27 35.29 35.34 40.52 34.16 33.32 34.88 37.30 37.13 36.72 30.76 27.66 25.21 25.29 29.06 25.15 25.05 28.88 30.04 30.65 25.82 25.89 23.02 25.97 31.70 35.97 38.59 29.84 33.44 41.17 39.56 39.45
46.20 46.12 46.66 46.05 46.73 46.21 39.61 37.31 38.22 36.65 35.13 35.61 37.77 38.67 36.76 38.13 39.99 35.51 35.78 33.46 34.39 33.26 28.45 27.08 27.37 27.35 26.96 25.00 26.40 27.11 26.97 26.96 26.51 28.41 24.36 19.05 33.54 35.10 34.07 37.51 40.06 41.14 40.13 40.34
46.10 45.92 45.88 45.96 46.10 46.21 42.51 37.79 39.55 41.70 34.70 34.30 38.26 38.66 40.93 41.08 41.05 39.77 38.95 34.94 34.43 34.59 31.16 29.82 30.29 29.47 28.08 25.86 23.91 27.90 26.06 28.37 26.22 27.09 26.97 33.06 33.86 38.54 41.12 39.18 38.05 39.02 39.67 40.71
45.80 45.66 45.66 45.97 45.79 46.13 44.56 39.87 39.64 36.60 33.99 32.02 33.75 34.36 40.00 42.14 41.17 43.73 37.98 38.72 39.60 38.99 38.13 32.84 31.52 29.41 29.79 27.42 28.99 26.48 29.60 32.29 29.48 29.84 32.19 33.52 35.96 37.05 36.78 37.46 37.58 39.50 40.61 39.87
45.61 45.71 45.83 45.43 45.25 45.38 45.13 40.41 39.72 38.52 34.29 29.10 34.10 43.91 40.68 45.78 43.27 42.26 42.08 42.87 43.12 40.89 41.08 35.69 34.72 33.43 32.80 30.79 31.16 29.75 31.94 32.45 30.88 30.00 33.93 35.16 36.36 38.10 41.39 40.84 40.01 39.79 39.19 38.53
45.33 45.36 44.82 45.05 45.01 45.41 43.15 40.71 40.70 40.88 33.72 31.14 32.12 37.47 41.26 44.18 43.24 41.94 42.70 44.25 42.81 41.75 39.77 37.85 35.45 37.87 36.66 31.33 31.16 29.14 32.80 32.23 30.91 30.82 35.32 34.73 36.02 37.46 39.51 39.89 39.92 39.41 38.13 37.90
45.04 44.85 44.12 44.53 44.75 44.58 40.36 35.75 39.33 40.46 39.76 33.69 29.33 40.85 41.00 45.03 45.85 45.45 45.03 44.66 43.39 43.02 41.08 39.56 40.19 40.19 37.30 30.15 32.74 34.01 34.94 36.91 36.96 34.67 36.58 37.57 38.45 38.35 37.41 36.80 37.34 37.93 37.65 37.54
44.81 43.95 44.18 44.42 44.49 43.57 36.40 33.63 40.38 42.81 41.76 34.46 30.91 34.62 40.15 45.38 45.53 44.98 44.54 45.54 43.92 43.01 41.72 40.15 39.67 39.35 40.30 36.87 31.82 34.13 34.74 34.17 36.35 37.84 38.25 38.90 39.00 36.55 37.08 35.73 36.33 36.46 35.55 36.13
44.90 44.65 44.63 44.58 45.69 44.81 39.41 41.55 44.38 43.32 37.99 35.80 30.29 34.52 36.85 44.56 41.45 39.97 43.81 40.78 41.86 41.56 39.82 40.29 38.76 39.88 39.16 34.32 36.68 32.98 33.34 33.59 34.28 34.55 35.52 35.81 36.34 36.05 36.64 35.28 34.46 34.17 33.94 34.10
45.13 44.50 44.98 43.04 38.80 37.25 37.07 44.62 44.70 43.08 37.25 31.93 33.58 32.72 27.89 42.69 40.66 41.53 41.31 41.51 36.44 40.94 37.88 37.88 38.97 36.77 33.61 35.18 33.99 33.90 33.84 33.60 33.57 34.40 35.10 36.17 36.37 36.55 37.54 37.24 35.95 33.53 33.50 33.38
42.90 43.12 38.08 33.74 35.62 43.74 42.22 39.26 35.72 34.67 35.67 35.85 33.41 38.58 35.30 40.08 39.99 38.38 38.69 39.04 35.61 32.05 36.09 39.44 35.55 34.86 34.34 33.66 33.26 33.52 33.17 33.69 35.43 33.90 33.54 33.98 33.96 34.15 35.29 36.01 36.44 37.41 35.83 33.69
35.35 35.86 34.95 38.86 43.31 39.44 35.64 32.27 31.46 32.86 31.77 35.66 36.44 34.67 35.78 40.13 36.56 36.26 39.02 33.39 33.24 29.82 32.95 33.65 32.37 32.61 33.23 32.23 31.75 32.10 32.07 32.95 35.22 35.83 35.16 33.75 33.87 33.81 34.39 34.45 36.23 38.05 36.80 33.91
34.47 34.69 37.51 37.61 36.89 33.48 30.51 30.35 32.76 31.90 30.89 37.16 36.29 35.64 36.23 38.43 40.98 37.14 36.33 32.16 31.66 27.78 35.57 31.79 29.20 31.21 30.63 29.80 29.08 29.17 28.92 33.14 34.30 34.79 34.49 34.64 34.56 35.47 36.90 35.59 36.60 38.27 36.40 34.20
38.90 35.97 32.72 33.14 32.77 27.73 28.30 27.51 30.76 31.40 35.16 34.73 35.56 34.89 38.29 38.73 39.54 34.63 33.41 30.61 30.23 34.98 30.72 28.38 27.67 28.49 29.61 28.58 29.49 30.09 32.91 33.43 33.30 33.22 33.78 34.15 34.32 36.05 36.98 35.07 33.99 34.42 33.48 32.93
34.59 31.78 27.71 29.49 29.01 31.11 32.14 30.56 30.89 33.36 34.35 35.36 36.86 35.00 35.34 37.14 34.78 34.66 31.48 32.96 32.21 27.51 23.04 25.69 27.54 27.77 28.40 29.92 30.82 30.46 30.41 31.09 31.48 31.30 32.14 32.66 32.70 33.34 34.72 34.97 34.66 33.99 32.60 32.54
31.90 31.81 26.12 28.80 31.94 32.94 32.59 32.78 33.57 35.08 36.24 35.94 32.99 33.41 34.16 32.99 32.34 32.41 31.96 30.04 25.12 27.11 27.40 28.98 28.10 28.18 29.14 29.35 30.01 29.78 29.47 29.68 29.84 30.67 30.34 30.55 30.93 31.93 32.41 32.85 33.83 33.29 33.00 32.31
31.51 30.91 29.04 29.78 30.05 31.20 32.05 31.88 32.03 35.23 36.49 35.14 33.16 31.62 31.27 29.77 31.81 30.23 29.04 27.19 25.31 26.86 27.82 27.23 28.00 28.93 28.31 27.72 28.44 28.83 28.37 27.80 28.83 29.77 29.86 29.81 29.04 28.99 30.24 31.60 30.68 31.38 31.21 30.71
25.17 24.56 31.14 31.04 30.45 30.33 31.79 32.86 33.43 35.03 34.85 31.80 31.38 28.72 24.77 29.51 26.96 27.71 28.01 24.79 26.17 26.91 24.72 24.55 26.01 26.05 25.45 25.98 26.26 26.13 25.72 26.11 27.23 28.72 29.39 29.27 29.00 29.02 27.97 26.32 26.58 27.39 29.62 30.97

GFSNW_sfc_wetblb_072.txt.gz
Wetbulb
49.41 49.09 48.39 47.82 47.94 48.62 46.56 40.44 37.46 44.54 45.94 38.13 37.67 34.59 34.61 38.66 38.61 40.48 38.47 38.30 37.80 35.40 35.45 35.12 35.43 34.22 37.39 40.93 40.25 36.56 38.30 37.20 31.50 32.58 37.83 39.20 37.41 35.47 34.44 32.45 27.61 28.12 29.81 31.10
49.36 48.95 47.99 47.72 47.72 48.06 44.60 36.24 37.71 45.33 45.49 32.62 33.27 35.96 36.36 38.29 38.76 39.15 38.61 37.59 39.32 38.93 35.98 33.67 36.20 36.65 39.87 41.13 39.88 37.97 38.83 34.59 28.65 30.04 34.30 37.21 34.87 35.48 34.65 34.10 32.77 28.69 29.56 30.76
49.09 48.43 47.64 47.37 47.20 47.57 45.34 39.08 34.41 39.67 40.90 37.29 34.69 34.38 35.64 36.25 41.75 40.16 40.05 38.93 39.90 38.07 36.52 38.27 35.26 36.32 39.81 41.88 41.12 41.38 41.35 34.21 31.77 29.27 30.71 35.21 32.46 34.27 35.34 34.60 31.73 30.50 32.34 32.89
48.53 48.37 47.56 47.31 46.81 46.83 45.32 39.83 34.24 36.49 33.16 34.86 35.27 37.31 38.06 36.74 36.16 41.12 41.48 39.21 38.57 37.08 34.19 35.37 34.92 36.78 38.02 40.61 40.71 40.11 39.56 32.62 34.46 34.39 34.59 34.50 33.54 33.79 33.65 32.81 33.67 31.69 32.57 33.76
48.13 48.34 47.27 47.23 46.46 46.10 42.45 35.70 34.38 36.91 34.41 36.84 36.71 36.37 35.70 36.80 38.43 39.12 37.77 36.95 38.50 39.59 36.34 36.12 34.41 36.73 36.91 36.89 39.53 38.16 38.49 33.10 34.23 30.81 33.25 33.55 32.01 33.85 34.51 34.21 34.22 34.18 34.30 34.66
47.81 48.31 47.24 47.11 46.36 45.02 39.70 40.59 41.15 37.58 35.62 35.24 34.34 33.53 35.08 37.46 40.53 41.02 41.02 39.45 38.97 37.56 37.56 39.35 40.37 41.28 40.55 39.84 37.92 35.98 35.93 34.27 32.71 28.01 31.58 31.34 28.86 32.72 34.17 34.56 35.95 35.93 32.09 37.83
47.44 47.50 47.59 46.70 46.60 44.22 42.49 40.79 39.18 35.12 31.57 34.32 33.35 35.03 36.09 37.16 40.01 38.81 40.90 41.82 39.48 41.12 44.47 43.29 43.62 42.79 41.42 41.12 39.57 39.57 35.54 34.46 34.23 30.01 30.60 23.46 32.16 36.97 37.50 36.15 37.36 38.19 38.54 39.78
47.22 47.34 47.29 47.04 46.58 45.61 42.93 42.40 39.41 36.16 29.90 34.06 34.95 34.95 36.08 38.99 40.78 40.13 40.69 42.27 43.55 44.60 41.58 38.68 34.98 35.71 36.19 37.37 39.37 38.77 39.81 36.32 31.63 28.71 28.24 30.15 34.69 35.75 35.09 35.71 37.22 40.13 39.11 41.60
46.59 46.68 46.94 47.12 46.77 46.04 43.16 42.01 43.22 38.39 33.46 34.18 35.46 33.94 35.81 36.21 38.06 39.66 40.73 44.09 45.28 43.03 40.00 36.29 30.13 29.48 31.09 30.25 34.06 39.59 38.34 38.06 34.43 30.80 25.06 23.40 35.38 40.19 42.44 41.19 34.57 41.65 41.41 42.60
46.80 46.43 46.35 47.23 46.45 46.43 43.68 42.18 42.65 39.20 33.02 37.00 37.19 34.98 34.26 38.08 38.63 38.00 39.64 40.95 40.86 41.39 38.00 33.84 31.94 31.12 33.58 29.50 29.24 30.69 32.90 33.56 30.60 30.44 28.28 31.06 37.02 38.13 40.82 32.50 36.17 43.28 43.87 43.96
46.53 46.42 46.16 46.16 46.30 46.35 43.95 42.15 42.46 39.99 34.87 35.21 37.39 38.31 36.35 36.46 39.12 36.32 40.19 39.07 39.23 39.30 35.06 33.78 33.45 33.15 33.43 32.11 32.60 32.11 31.11 29.87 28.96 30.10 27.83 25.54 38.72 39.32 36.59 41.17 42.96 42.90 44.54 43.90
46.23 46.09 45.93 45.92 46.29 46.01 44.60 40.43 42.18 43.90 37.53 35.20 39.79 39.73 40.85 40.51 39.86 37.79 39.45 39.55 39.21 40.06 37.16 36.46 36.60 34.30 34.05 32.46 30.77 34.71 31.40 34.78 33.61 33.68 33.93 38.14 39.52 40.70 43.61 42.91 41.93 42.49 42.45 43.57
46.02 45.65 45.88 46.05 45.82 45.68 44.87 41.98 42.76 40.09 35.87 35.38 35.01 35.09 40.39 41.20 40.02 42.75 36.78 42.57 42.70 41.59 42.02 39.24 37.47 33.65 37.06 32.93 33.91 34.08 36.07 37.35 35.50 34.30 38.00 39.25 41.35 43.04 42.82 43.16 42.99 42.76 43.61 43.53
46.04 46.09 45.81 45.49 44.64 45.08 44.97 41.70 43.23 40.73 36.11 29.35 32.90 43.26 40.89 45.47 44.52 41.40 41.97 42.83 44.99 44.00 43.70 40.26 38.00 35.58 37.89 35.47 35.76 35.77 38.18 37.33 36.24 36.21 39.36 40.99 41.19 41.47 43.27 44.10 44.88 44.13 43.87 42.63
45.51 45.49 45.62 44.93 44.35 44.76 45.25 44.14 43.45 43.54 36.12 29.35 31.74 37.02 40.94 42.66 43.84 42.00 40.98 40.94 41.01 42.68 41.17 40.19 37.91 40.30 38.04 38.29 37.82 36.04 38.63 38.10 36.16 36.09 39.53 39.92 40.99 42.47 42.61 42.74 42.46 42.31 41.74 41.86
45.02 45.18 45.22 44.23 44.34 44.64 42.15 35.98 42.12 43.33 41.22 33.94 27.84 39.04 39.87 44.06 45.09 42.77 42.24 42.09 43.02 44.36 42.78 41.61 42.33 42.38 40.09 35.88 34.40 39.44 40.43 40.78 40.54 39.72 41.11 41.78 42.79 42.79 41.58 40.84 41.09 41.32 41.14 40.94
45.14 45.57 45.45 45.03 44.87 43.60 36.22 34.41 41.22 43.16 42.19 34.20 29.91 32.73 41.12 44.22 44.92 44.95 44.64 45.62 44.69 44.31 42.24 40.84 41.31 41.62 41.41 37.87 33.00 39.37 40.86 41.38 40.18 40.84 40.19 39.83 39.94 39.19 40.32 40.75 40.76 40.02 40.05 40.25
45.36 45.86 45.84 45.08 45.16 44.14 39.42 42.18 44.21 43.83 37.90 36.28 29.71 32.07 37.75 44.85 41.44 40.81 45.71 42.38 43.01 43.01 41.04 41.21 39.44 40.67 39.71 34.39 38.74 37.93 37.88 37.86 38.39 38.26 38.49 38.42 38.63 39.40 40.60 41.23 40.03 39.24 39.61 39.67
45.55 45.01 44.56 44.45 41.18 38.07 38.22 44.21 44.60 44.12 38.08 31.56 32.61 31.97 32.79 43.13 41.38 42.54 41.81 43.07 36.53 42.54 38.37 38.59 39.17 37.12 33.86 37.20 38.71 37.76 35.62 35.20 35.50 36.39 37.23 38.36 38.21 37.96 38.32 38.01 38.14 38.00 39.71 39.88
42.66 43.03 38.69 34.72 37.93 43.61 42.97 38.91 34.71 34.19 35.05 34.25 31.51 37.31 35.40 39.93 39.97 38.99 39.05 39.72 36.54 32.47 36.92 40.06 35.91 34.91 36.63 35.12 34.52 34.62 34.02 34.68 35.47 34.65 34.89 35.46 35.24 35.78 36.44 36.71 37.80 38.51 39.26 40.08
37.63 33.59 35.26 38.74 42.03 39.09 35.29 32.15 31.13 32.42 30.80 34.11 35.13 37.10 35.97 41.50 36.27 36.41 39.26 34.48 34.27 31.32 33.87 34.87 33.21 32.78 33.62 33.56 33.26 33.11 32.89 33.00 35.06 35.98 36.08 36.48 36.20 35.78 35.98 36.94 38.59 39.24 39.76 39.84
38.64 37.39 39.34 37.69 35.40 33.27 30.34 30.43 32.53 31.38 30.68 36.45 35.45 36.49 38.31 39.53 41.68 37.38 36.89 33.24 32.83 28.95 36.36 32.68 30.32 32.66 31.74 31.89 31.25 32.05 33.01 34.48 34.72 35.23 34.84 35.34 35.20 35.81 35.84 37.37 37.83 37.60 38.30 39.31
39.48 35.96 32.46 32.90 32.84 28.19 27.79 27.47 31.10 31.64 35.23 35.21 36.30 34.96 38.95 39.77 40.35 34.82 34.07 31.50 31.21 35.94 32.06 29.74 31.91 31.22 31.14 31.42 32.20 32.61 33.75 33.57 33.52 33.13 33.46 33.98 34.25 35.09 35.14 34.98 35.38 35.70 35.78 35.30
33.78 31.84 28.46 29.94 29.48 30.97 32.76 32.25 32.26 33.58 33.02 33.95 37.11 35.33 36.03 37.57 34.16 34.67 31.61 34.10 33.27 29.97 27.58 29.25 31.39 31.52 30.54 31.84 32.28 32.76 31.50 31.72 31.68 31.85 32.18 31.81 31.86 33.21 34.44 33.99 34.50 34.33 34.38 33.34
30.41 31.64 27.24 29.20 32.44 33.05 32.40 32.88 33.15 34.31 34.49 35.75 35.59 35.29 35.69 33.02 32.20 32.90 32.71 31.10 29.11 29.34 30.01 33.14 31.27 30.99 31.45 31.26 31.29 31.03 30.43 30.49 31.01 31.51 31.32 31.41 31.26 31.08 31.77 33.02 32.95 33.29 33.23 32.81
31.48 30.05 27.90 31.76 30.34 31.15 32.27 32.16 32.04 33.27 33.50 35.91 34.85 32.58 32.33 31.97 33.40 31.24 31.05 29.39 28.43 31.52 33.00 31.34 31.14 30.86 30.44 30.16 29.66 29.07 28.26 28.66 29.81 30.52 30.92 31.25 30.45 30.26 30.51 31.27 29.76 30.14 31.36 30.64
25.32 26.50 31.03 30.84 31.05 30.23 32.02 33.18 32.87 34.46 33.61 32.36 32.87 30.38 29.02 32.37 30.38 29.51 32.30 31.04 33.13 32.02 28.54 29.59 30.70 29.61 28.06 27.80 27.22 26.55 27.03 27.42 27.82 28.37 29.01 29.67 30.53 30.82 30.09 28.55 28.71 28.60 28.53 29.64

GFSNW_sfc_wetblb_075.txt.gz
Wetbulb
49.30 49.33 48.89 48.71 48.46 48.96 47.40 42.98 40.31 48.13 49.79 40.09 38.86 35.76 36.26 38.68 39.25 41.76 39.78 40.02 39.44 37.76 38.38 37.11 36.98 36.03 38.50 42.53 42.29 38.05 41.01 37.99 32.25 33.22 38.90 41.44 40.10 37.72 36.82 33.27 30.37 31.68 31.51 31.45
48.87 49.17 48.72 48.53 48.18 47.64 44.74 39.79 40.86 49.25 48.72 33.67 34.10 39.01 38.83 39.90 39.57 40.77 40.32 39.28 41.07 41.25 38.25 35.31 38.25 38.58 41.82 43.15 41.64 39.34 40.70 36.50 29.63 30.97 36.01 38.69 36.52 37.80 37.32 35.94 35.31 31.95 31.28 31.00
48.60 49.10 48.41 48.21 47.80 47.39 46.10 40.12 33.54 41.52 43.80 39.12 35.48 34.91 36.23 37.77 43.18 41.63 42.06 40.86 41.91 40.11 38.49 40.67 37.27 37.80 41.11 43.05 41.65 42.42 43.08 37.16 34.61 30.74 33.28 37.31 33.70 35.89 36.77 35.87 33.39 31.65 34.00 33.42
48.50 48.59 48.19 47.84 47.56 47.13 46.00 39.90 34.90 36.67 33.95 36.60 37.05 37.43 37.73 37.55 37.79 42.82 43.18 40.32 40.41 38.71 35.87 37.60 36.62 38.74 39.84 42.00 42.49 42.14 41.64 34.34 36.11 36.13 36.76 36.56 35.37 35.08 35.80 33.48 35.62 32.62 34.25 35.25
48.48 48.00 48.24 47.53 47.30 47.29 42.60 36.53 34.67 36.27 34.80 38.13 36.94 36.23 36.55 35.75 39.49 40.27 38.90 38.71 40.59 41.07 37.52 37.89 36.13 38.42 39.19 38.57 41.47 40.20 41.24 34.37 35.88 32.56 35.24 35.15 33.22 35.39 36.29 36.02 36.29 35.52 35.51 35.63
48.01 47.83 48.02 47.52 47.18 45.97 40.55 40.29 41.77 37.58 35.94 36.90 35.17 34.18 34.44 36.02 40.65 42.11 42.52 41.26 40.80 38.74 38.88 41.53 42.68 43.37 42.85 41.86 40.06 38.38 38.25 36.02 34.00 29.76 33.64 33.11 30.24 34.54 35.75 36.33 37.75 37.57 33.27 38.60
47.61 47.53 47.48 47.68 47.18 45.84 42.58 41.33 40.02 36.03 31.51 34.71 34.23 35.44 36.00 37.37 39.65 39.75 42.34 43.40 41.13 42.27 46.34 45.32 45.26 44.15 42.85 42.11 41.10 41.72 37.23 36.45 35.96 31.94 32.10 25.04 34.15 38.77 38.92 37.73 38.62 40.03 39.83 40.65
47.12 47.21 47.22 47.50 47.47 46.97 43.98 42.89 39.43 35.45 30.47 34.13 35.57 34.69 35.61 38.43 41.43 40.99 41.60 43.16 44.92 46.53 43.81 39.57 36.08 36.57 37.06 38.34 40.53 40.12 41.15 37.86 33.36 30.24 30.24 32.05 34.94 36.61 36.27 36.40 37.60 41.95 40.31 42.02
47.20 47.08 47.07 46.87 47.26 47.37 45.12 44.08 43.67 38.20 31.49 33.95 36.07 34.38 35.92 35.77 37.74 40.40 41.92 45.93 47.27 45.29 42.01 38.30 31.38 30.34 32.71 31.37 34.24 40.88 39.41 39.81 35.48 31.99 27.23 24.92 36.73 40.83 43.25 42.38 34.24 42.42 43.36 43.24
47.10 46.81 46.78 46.64 46.67 46.77 45.27 44.19 44.32 39.33 33.31 36.96 37.21 34.31 34.48 37.45 38.08 37.87 41.68 42.11 42.56 44.46 39.59 35.67 33.50 32.77 35.67 30.87 30.60 32.28 34.02 34.86 32.34 31.95 30.02 32.32 39.55 40.07 42.25 33.16 35.91 44.33 44.75 44.86
46.69 46.43 46.35 46.28 46.35 46.74 45.11 43.26 45.74 39.83 34.57 36.01 37.78 37.92 35.53 36.23 37.86 35.57 38.53 40.80 41.20 41.31 36.67 35.63 35.10 34.20 35.64 33.96 35.01 33.80 32.85 32.05 31.89 32.22 29.33 26.62 40.94 41.21 37.27 41.66 44.71 44.76 45.25 45.90
46.57 46.34 45.90 46.26 46.35 46.35 45.08 41.42 45.09 44.07 37.82 36.13 40.71 40.40 41.08 40.00 40.02 37.33 38.04 38.59 40.96 41.48 38.86 39.08 38.01 35.19 36.30 34.67 31.80 37.36 32.84 36.28 34.56 35.02 34.60 39.96 41.68 41.66 43.93 43.93 43.01 44.12 44.20 45.43
46.28 46.17 46.33 46.18 46.01 45.31 44.86 42.76 44.02 42.00 36.87 37.14 37.66 37.06 42.25 43.33 41.65 44.04 35.87 42.85 44.03 43.52 43.93 41.08 39.44 34.95 38.31 33.54 34.90 35.95 38.26 39.89 36.76 36.18 39.87 40.59 42.72 44.61 45.34 45.25 45.23 44.63 44.56 44.72
46.01 45.82 46.13 46.10 45.82 45.10 44.51 42.29 44.30 41.79 37.60 30.78 33.59 42.48 41.41 45.32 45.38 41.78 40.80 42.39 42.41 44.40 45.22 41.58 39.34 36.36 40.14 36.53 37.00 36.40 39.22 39.31 38.04 38.11 40.96 42.30 43.36 43.84 44.41 44.98 45.74 45.66 45.69 44.48
46.37 45.98 45.40 45.71 45.35 44.12 44.94 44.31 44.21 44.05 37.43 30.74 32.46 38.21 41.31 43.30 41.72 43.72 42.63 39.51 39.90 40.35 40.94 40.46 38.29 41.79 39.39 40.28 38.86 36.38 40.18 38.63 37.11 37.11 41.57 41.75 42.54 43.96 44.25 44.24 43.93 43.99 43.49 43.77
46.25 45.90 45.46 46.00 45.52 44.97 42.25 36.25 43.77 44.04 42.53 34.80 29.02 38.71 38.49 43.83 44.19 43.62 42.08 40.21 40.37 41.63 42.25 40.63 42.82 43.87 40.97 36.01 34.18 40.91 42.46 43.39 43.62 40.97 43.26 43.39 44.06 44.87 43.77 42.14 43.00 43.36 43.17 43.15
45.84 45.60 45.75 46.15 46.05 44.91 38.21 35.67 41.10 43.56 42.74 34.27 29.96 31.17 39.77 42.11 43.71 43.55 42.78 43.54 42.99 43.26 42.30 41.30 41.75 42.05 41.64 38.06 33.90 40.54 42.20 43.24 43.37 43.60 42.83 42.50 41.34 41.00 41.23 42.53 43.12 43.12 42.62 42.81
45.52 45.86 46.26 45.29 45.14 43.95 39.71 43.00 43.53 44.20 37.97 36.18 28.24 30.42 35.55 44.04 40.35 39.74 44.85 41.90 42.52 42.42 41.04 41.98 40.35 41.30 40.23 35.06 39.01 41.93 42.03 41.98 41.26 41.31 40.83 40.58 41.27 41.00 41.11 41.45 41.94 41.02 41.81 42.89
45.89 45.61 44.16 44.62 41.79 38.80 39.75 43.52 44.23 44.02 37.99 31.75 31.74 29.80 32.21 42.99 41.25 42.24 41.84 42.95 36.70 42.08 38.57 38.71 40.65 37.90 34.16 37.63 39.56 41.18 40.01 37.67 37.58 37.35 37.71 38.26 38.96 39.77 39.65 39.55 39.37 39.01 39.67 41.41
43.92 42.99 40.04 34.53 38.61 43.37 43.41 39.89 35.44 34.74 35.16 34.99 29.93 34.57 31.67 39.55 39.50 38.68 38.19 39.67 36.67 32.86 36.31 40.81 36.10 35.84 40.66 37.13 36.18 36.05 35.45 35.25 35.77 35.36 36.27 36.60 36.22 36.90 37.30 38.00 39.14 39.28 39.19 40.27
40.40 35.02 34.93 38.97 41.98 38.98 35.96 32.12 31.20 32.18 29.84 32.08 32.65 33.68 33.71 41.32 36.26 36.10 40.23 34.51 34.92 31.13 34.93 34.70 34.29 33.34 35.82 35.69 34.16 34.14 34.19 34.32 35.04 36.12 36.58 36.79 36.62 36.46 36.98 37.63 38.67 39.38 40.50 40.52
39.85 38.99 40.38 38.55 34.47 33.47 30.19 30.43 32.51 31.01 28.70 35.51 34.42 36.48 37.79 39.18 41.70 36.89 36.44 33.82 33.35 29.98 37.03 33.01 29.91 33.80 33.28 33.54 33.07 33.66 34.79 35.56 35.51 35.98 35.52 35.69 35.61 36.14 36.18 36.40 37.10 37.01 36.63 38.22
40.54 36.27 32.60 32.82 32.77 27.84 27.68 27.18 29.83 31.32 33.73 33.83 35.11 35.06 39.01 39.48 40.34 35.64 34.20 31.86 31.11 36.54 31.86 29.95 33.06 33.34 33.56 33.98 34.40 33.90 34.59 34.73 34.48 33.86 34.08 33.95 33.86 34.84 35.03 34.48 35.28 35.06 35.79 36.43
33.25 31.39 26.49 29.57 29.47 30.85 31.99 30.81 31.52 34.23 32.55 32.75 33.72 32.95 35.75 37.26 34.40 34.37 31.66 34.46 33.65 30.09 28.77 30.03 32.99 32.98 32.61 33.75 32.92 33.46 32.33 32.57 32.39 32.61 33.21 33.05 32.43 33.02 34.42 33.86 33.63 33.64 33.67 34.21
30.39 30.71 25.16 29.00 33.49 34.20 33.78 34.26 33.66 34.07 33.44 32.66 33.21 33.33 34.97 32.53 32.15 33.38 32.97 30.79 29.47 30.59 30.80 33.56 33.87 32.59 33.21 32.59 32.52 32.29 31.81 31.79 31.92 32.22 31.88 31.97 32.16 32.32 32.74 32.87 31.74 31.84 32.49 32.55
30.94 29.52 27.17 31.47 31.47 32.70 33.03 32.96 32.41 34.82 33.06 33.28 33.28 32.67 32.24 32.38 33.38 31.21 31.43 30.38 29.58 32.79 33.85 33.39 33.31 33.23 32.72 32.31 31.71 30.31 29.60 30.11 30.42 30.61 31.10 31.78 31.67 31.41 31.51 32.57 31.63 31.02 30.26 30.06
26.80 28.57 31.94 30.32 30.11 29.96 31.71 32.54 32.44 35.00 33.20 31.58 32.38 31.04 30.39 33.13 31.38 29.67 33.96 32.48 34.68 34.43 31.64 32.73 33.37 32.12 31.57 29.88 28.92 28.27 28.45 28.55 28.49 28.80 28.71 28.83 30.63 31.48 30.92 29.48 30.60 30.88 30.39 30.17

GFSNW_sfc_wetblb_078.txt.gz
Wetbulb
49.62 49.28 49.45 49.24 48.93 49.46 47.19 43.64 39.08 48.52 50.41 37.37 38.74 35.21 37.59 39.87 39.59 42.03 40.13 40.11 39.32 36.79 37.86 36.48 35.16 33.75 36.73 41.93 41.49 37.07 39.98 36.66 31.56 33.58 39.06 40.23 39.10 35.79 35.72 30.78 27.81 29.01 27.89 25.14
49.30 48.97 49.07 48.97 48.75 48.24 44.08 39.28 40.31 49.40 47.05 31.86 33.45 36.72 38.05 41.08 40.00 40.17 40.14 39.00 40.44 40.78 37.64 34.52 37.42 37.36 41.85 42.70 40.23 36.96 39.50 34.05 29.00 30.70 34.60 38.63 36.01 37.90 37.45 35.47 33.31 29.78 27.20 24.76
49.27 48.62 48.88 48.49 48.84 48.52 45.55 39.77 32.64 39.09 43.02 39.78 35.94 34.66 35.65 37.04 43.62 41.98 42.22 40.81 41.93 39.43 37.72 39.57 36.42 36.96 40.67 42.23 40.78 42.79 41.76 35.43 31.60 28.07 31.51 34.56 31.50 35.46 36.58 34.33 30.47 30.11 28.55 30.19
49.01 48.55 48.36 48.25 48.68 49.03 45.26 38.78 34.50 35.76 32.47 35.66 35.39 37.57 37.01 35.08 36.91 41.74 42.72 40.04 39.80 38.28 35.05 36.37 35.53 37.79 38.84 41.15 43.30 39.94 39.00 31.37 33.54 34.46 35.74 36.29 34.66 34.18 34.50 28.55 33.56 28.58 30.67 31.92
48.64 48.21 48.01 48.18 48.37 48.60 40.65 34.85 33.72 36.16 34.28 36.62 36.87 36.09 34.36 33.80 37.04 39.35 38.25 38.06 39.95 38.98 35.41 36.49 34.93 37.42 37.21 36.08 38.90 36.85 38.15 30.80 33.13 30.25 34.77 34.83 32.21 34.98 34.99 34.80 34.48 33.10 33.38 32.63
48.13 47.89 47.64 48.01 47.79 46.95 39.37 39.16 39.75 37.20 34.55 35.16 34.88 34.20 34.67 35.22 37.98 41.56 42.40 40.99 39.80 37.49 38.21 40.76 40.99 40.52 39.75 38.26 37.00 35.59 35.23 31.99 30.22 23.37 32.41 31.35 24.66 32.70 34.12 34.26 35.13 34.83 29.70 34.38
47.84 47.63 47.54 47.43 47.73 46.62 42.67 39.98 39.39 34.36 28.97 32.51 33.62 35.08 35.61 36.40 37.58 38.17 41.45 42.57 40.21 41.72 45.22 44.12 42.86 40.35 40.20 39.63 37.74 38.98 34.35 33.15 32.35 24.37 27.56 18.49 30.45 36.85 37.21 35.97 36.76 37.08 38.09 39.23
47.62 47.56 47.38 47.20 47.27 47.37 43.48 42.14 38.02 34.29 27.88 30.71 33.59 32.70 35.18 36.95 39.86 40.45 41.18 42.33 43.46 44.75 41.93 38.31 34.64 33.80 35.27 36.54 38.28 37.46 37.67 34.25 28.83 23.87 23.47 27.86 31.20 34.93 34.40 33.96 35.35 39.15 37.86 39.82
47.54 47.24 47.02 46.92 46.97 46.95 44.25 42.53 42.44 36.69 31.12 31.63 34.70 32.46 35.98 34.18 35.29 38.19 41.55 45.03 45.61 43.36 38.93 35.68 30.06 28.59 29.76 28.81 33.36 37.61 37.67 35.72 29.93 26.15 23.46 21.73 34.15 37.55 40.58 40.21 32.25 39.96 40.81 41.15
47.32 46.98 46.65 46.64 46.71 46.80 44.89 42.91 44.30 38.68 31.33 34.68 34.55 30.32 31.01 36.88 35.54 34.73 40.01 39.37 41.02 42.19 36.16 32.37 29.30 29.69 32.66 28.10 27.29 31.15 31.05 31.05 26.81 27.41 24.36 28.28 36.52 37.48 39.62 31.19 34.03 41.51 43.42 42.77
47.02 46.77 46.39 46.37 46.53 46.67 44.54 41.71 44.92 39.43 34.29 34.00 36.19 37.40 33.62 34.73 33.91 34.04 37.52 38.00 39.75 38.58 33.90 31.78 30.99 30.40 30.89 29.61 30.89 30.01 29.38 27.31 26.36 28.14 24.41 21.18 38.02 37.97 34.83 40.48 43.49 44.28 42.34 43.07
46.88 46.74 46.42 46.74 46.38 46.21 45.12 39.15 44.71 44.03 36.76 34.26 38.86 38.47 39.42 37.91 37.92 35.09 37.16 37.00 39.22 39.70 36.39 35.80 33.71 32.02 31.47 30.49 28.30 32.74 28.81 31.69 29.47 30.65 30.03 36.82 38.44 38.85 40.57 40.75 40.42 40.56 39.88 41.95
46.71 46.34 46.40 46.69 46.58 46.21 44.44 40.65 42.00 41.29 36.46 34.39 35.36 35.55 40.54 42.64 40.83 41.62 35.03 40.93 42.68 42.49 42.31 37.58 36.09 32.21 33.57 29.54 30.55 31.33 34.01 36.24 32.05 33.50 35.75 36.78 39.21 42.08 42.62 42.70 41.73 41.94 41.77 41.90
46.34 46.64 46.75 45.92 46.20 46.18 43.99 39.73 41.72 40.99 37.35 30.64 31.18 40.71 38.06 42.95 43.11 40.21 39.81 39.21 40.52 41.25 43.29 38.44 38.02 35.05 36.77 32.98 33.64 32.24 34.79 35.03 34.66 34.23 36.63 38.06 39.70 40.93 41.36 42.34 43.06 42.97 42.59 41.31
46.52 46.73 46.59 46.09 45.85 46.23 44.10 42.80 42.66 43.18 37.15 29.83 30.86 36.42 38.98 41.18 39.55 39.91 40.33 37.67 35.58 38.58 38.77 38.20 36.14 38.74 36.38 35.99 35.40 31.96 35.91 33.94 32.04 31.76 37.32 37.53 38.25 40.54 41.42 41.32 41.18 41.36 41.17 40.83
46.54 46.33 46.03 45.98 46.28 46.38 41.33 35.48 42.36 43.40 42.43 34.46 27.80 36.36 35.80 38.26 39.93 37.29 40.98 40.91 37.83 39.92 39.84 39.54 40.48 42.44 38.48 32.04 32.28 36.99 38.36 39.59 39.69 37.01 40.11 40.52 40.76 41.56 40.15 39.53 40.36 40.73 39.53 39.74
46.11 45.92 45.99 45.99 46.25 43.53 37.52 34.62 40.80 43.52 42.46 34.05 28.15 28.86 38.02 40.20 41.79 42.21 42.39 41.06 41.00 40.86 41.02 38.84 38.91 40.30 39.93 35.51 30.41 36.81 38.16 39.60 40.66 40.68 40.03 39.27 38.40 37.02 38.64 39.77 40.70 41.40 40.21 39.78
45.89 46.18 46.01 45.22 44.94 44.37 39.96 42.76 44.73 43.55 38.23 36.17 26.58 26.48 32.23 41.65 39.21 38.56 43.31 40.53 41.04 41.78 39.96 40.72 38.42 39.62 38.94 33.25 36.54 37.59 38.63 39.19 38.73 38.47 37.94 37.51 38.71 38.12 39.82 38.65 39.90 38.86 38.03 38.93
46.03 45.62 43.91 43.40 41.80 38.84 39.75 44.20 43.59 43.51 37.15 30.88 30.12 26.53 26.94 37.86 40.20 40.30 40.84 41.73 35.27 41.24 37.77 38.17 38.15 36.80 33.46 35.74 36.58 38.58 37.20 35.77 35.42 37.02 37.65 38.15 38.03 38.48 37.38 37.02 36.77 35.95 36.48 37.50
44.80 41.72 38.84 34.99 38.35 43.26 43.15 39.75 35.08 34.54 35.31 34.55 28.41 32.46 29.01 34.83 38.27 37.03 37.16 39.01 35.87 32.00 36.00 38.21 33.61 33.84 37.41 34.73 33.73 33.44 33.41 33.79 35.80 35.16 35.84 36.23 35.61 35.98 36.40 36.29 36.48 36.38 36.58 37.49
39.62 35.55 33.09 38.26 42.04 37.37 35.90 31.29 30.40 31.25 28.92 31.30 31.51 31.44 30.24 38.42 33.34 34.90 39.09 33.99 33.88 30.36 33.57 33.20 31.32 30.72 35.12 34.72 32.58 33.64 34.17 34.37 35.12 35.63 35.69 36.10 36.16 35.52 35.65 36.12 36.37 36.59 37.95 38.04
38.84 37.89 39.06 38.48 33.54 31.58 29.37 28.71 31.77 30.03 28.31 34.10 32.83 34.73 35.16 36.48 40.85 35.77 35.88 32.53 32.96 29.00 36.43 32.70 28.36 31.33 32.34 32.67 32.36 33.54 33.96 35.10 34.96 35.43 34.59 34.90 35.02 35.32 35.02 35.15 35.61 35.87 35.94 36.01
39.23 35.47 32.76 32.25 31.60 25.27 26.24 25.77 29.10 29.29 32.36 32.45 32.40 31.46 36.38 37.82 38.88 34.60 33.77 31.43 30.43 35.89 31.01 28.18 29.89 30.53 31.83 31.84 32.92 33.00 33.84 34.31 33.85 33.23 33.66 33.59 33.26 34.14 34.47 34.00 34.10 34.27 34.34 35.70
31.60 26.23 17.67 28.00 27.76 29.62 30.43 29.93 29.81 33.46 32.07 32.14 31.78 30.94 32.73 36.64 33.75 33.37 30.98 33.48 32.81 27.57 27.01 25.42 29.70 33.22 31.66 32.72 33.30 33.18 31.56 32.14 32.43 32.26 32.99 32.86 33.01 33.11 34.03 33.59 33.22 32.79 32.45 33.20
26.10 26.79 16.20 24.87 31.94 32.48 32.96 32.34 32.48 33.91 34.01 31.83 30.82 31.49 32.93 31.91 31.61 32.10 32.03 29.89 27.12 27.99 28.25 31.83 32.46 32.64 32.53 32.18 32.41 31.87 31.08 30.09 29.15 30.92 30.70 30.45 29.77 31.15 31.25 32.44 32.53 31.69 31.13 31.39
29.90 28.38 22.32 27.33 24.70 25.19 25.30 29.79 30.24 33.81 32.53 33.03 31.87 31.11 31.36 31.46 31.75 30.42 30.13 27.51 25.53 30.71 31.91 31.93 31.90 31.86 32.66 32.35 31.01 29.40 29.18 28.86 28.27 28.44 28.85 30.07 29.87 30.15 28.87 29.59 28.84 28.99 29.31 29.11
26.43 25.59 29.62 28.20 27.84 27.82 29.60 31.59 31.55 33.94 31.88 29.34 30.25 29.32 28.15 31.45 30.06 28.96 31.75 30.97 31.91 31.60 30.01 31.32 31.66 31.74 31.31 29.84 28.83 27.95 27.25 26.57 25.78 26.00 26.14 25.75 27.04 29.55 27.64 25.67 27.14 27.75 28.47 26.89

GFSNW_sfc_wetblb_081.txt.gz
Wetbulb
50.05 49.28 49.23 49.44 49.34 50.22 44.68 37.01 30.63 44.10 45.52 32.75 36.61 33.30 36.13 40.32 39.02 42.26 39.88 38.58 37.78 35.61 35.93 34.35 32.82 33.53 36.56 41.93 41.26 36.99 37.15 34.93 29.45 33.20 38.57 39.79 37.62 33.51 32.66 23.62 23.34 21.75 25.56 24.33
49.72 49.11 48.89 49.32 48.99 49.60 41.34 35.31 33.99 43.50 40.94 30.07 33.25 36.39 36.80 39.95 39.21 39.77 39.62 37.75 39.34 40.27 35.66 32.19 35.21 35.75 40.80 41.05 39.22 37.14 38.67 31.91 26.03 28.75 34.57 37.95 36.42 36.10 36.10 32.84 29.22 19.23 20.70 27.24
49.41 48.78 48.58 49.11 49.55 49.72 41.51 35.20 29.47 33.35 36.54 37.98 35.40 34.82 34.28 35.31 41.83 40.65 41.69 40.02 39.62 38.01 35.50 36.83 34.31 35.42 39.50 41.51 39.88 43.73 42.09 35.42 30.71 23.65 28.42 35.27 33.25 35.19 35.48 31.55 23.52 26.92 25.30 28.59
49.08 48.53 48.30 48.92 49.47 49.66 39.24 33.19 31.72 34.99 30.20 30.40 33.71 35.78 35.26 33.52 35.86 40.38 40.80 38.33 37.75 35.76 33.13 34.04 33.53 35.99 36.88 39.91 41.99 39.07 37.32 31.17 33.91 34.63 35.35 35.36 34.82 35.14 34.30 28.18 31.95 28.92 30.66 32.59
48.93 48.41 48.14 48.43 48.73 48.35 34.76 28.99 29.05 34.57 33.34 35.08 35.29 33.62 32.66 33.79 35.67 37.40 37.00 36.37 38.44 36.85 33.32 34.22 32.63 34.99 34.38 33.26 37.41 35.84 36.11 30.52 31.00 29.46 34.38 34.28 32.25 34.85 34.98 35.06 34.88 33.56 33.02 32.93
48.80 48.34 47.94 47.78 48.05 45.26 33.81 34.45 35.04 35.11 32.13 31.42 33.08 31.05 34.11 33.35 36.20 39.44 41.30 39.22 39.37 35.59 37.09 39.05 39.21 38.44 37.52 35.76 34.26 33.47 32.95 31.03 28.65 21.18 31.28 30.25 25.17 31.84 33.03 33.34 35.52 33.94 28.93 33.30
48.61 48.20 47.71 47.61 47.48 46.26 38.44 35.92 34.37 29.83 24.75 27.15 27.38 32.63 32.74 34.73 36.14 35.60 40.67 41.06 39.10 39.99 42.89 41.67 40.23 37.96 37.78 37.86 36.30 36.24 32.12 31.25 30.36 22.15 25.54 16.84 29.80 35.00 36.55 34.69 35.65 35.67 36.50 37.29
48.34 47.90 47.45 47.31 47.22 47.37 39.18 39.47 34.16 30.79 25.66 27.88 29.82 30.45 32.55 35.76 37.81 38.18 40.07 41.46 41.95 42.60 39.94 35.07 32.73 31.89 32.60 34.24 36.25 35.64 34.79 31.64 27.00 23.06 21.58 26.46 29.87 33.34 33.29 32.60 32.80 37.33 36.36 38.60
48.10 47.49 47.16 46.88 47.00 47.12 40.35 38.51 40.98 32.64 29.15 26.65 31.22 29.09 33.95 32.61 33.29 34.90 39.73 44.24 42.50 41.50 36.96 33.28 27.48 24.28 27.74 26.88 30.04 36.94 36.31 33.19 27.75 23.69 22.11 20.74 33.52 35.56 38.81 39.27 30.38 38.93 38.79 39.27
47.87 47.18 47.00 46.34 46.98 46.93 41.67 38.66 40.55 35.22 29.31 30.49 31.79 27.14 28.59 34.84 33.91 31.60 36.53 36.50 37.97 40.12 33.58 28.50 25.29 27.95 30.92 25.58 26.30 29.20 28.63 29.21 24.75 25.34 22.45 26.92 35.43 35.52 39.70 30.30 30.63 41.13 41.53 41.62
47.36 47.08 47.07 46.71 47.03 46.67 41.74 38.25 40.65 38.30 32.71 31.50 33.95 36.03 31.86 31.97 32.29 30.16 35.50 35.89 38.46 36.80 32.66 29.89 28.76 28.41 29.02 27.52 29.34 27.65 28.28 24.92 24.86 27.22 24.22 19.64 36.65 37.39 34.22 39.55 42.52 43.55 42.38 42.77
47.14 47.11 46.87 46.80 47.10 46.98 44.59 34.77 40.23 41.27 36.95 31.83 36.29 37.22 37.90 36.32 35.29 33.58 35.21 35.48 35.92 39.53 36.08 34.20 30.93 30.79 29.42 27.74 27.09 31.33 27.79 30.64 28.87 29.69 29.38 35.37 36.96 37.32 38.88 39.83 40.12 39.13 39.33 40.72
47.06 46.76 46.71 47.23 46.34 46.67 44.61 36.39 37.48 36.53 35.42 33.27 31.20 31.68 37.87 41.07 39.17 39.87 31.79 38.08 40.13 38.21 40.67 36.12 33.46 29.66 31.06 27.67 29.60 29.12 32.39 34.54 31.09 32.26 33.47 34.86 38.32 40.17 41.10 41.57 40.64 40.61 40.75 40.59
46.48 46.58 47.03 47.16 46.70 46.15 46.08 36.22 37.58 38.74 36.60 29.84 28.99 37.75 35.07 39.51 39.71 39.87 38.83 37.88 38.54 38.92 40.05 38.91 33.60 32.73 34.48 31.06 32.09 30.63 32.82 33.98 32.84 32.50 34.71 36.96 38.73 39.19 39.88 41.17 41.51 41.05 40.94 39.95
46.34 46.82 46.91 46.77 46.34 46.41 45.00 40.15 39.28 41.06 36.23 28.70 30.49 34.85 36.87 37.69 37.17 37.02 37.84 36.44 35.45 34.99 36.83 38.01 33.62 36.22 35.21 34.25 33.53 30.19 33.58 32.48 31.24 30.72 36.08 35.80 36.66 38.19 39.69 39.76 39.58 39.72 39.68 39.36
46.54 46.46 46.40 46.31 46.45 46.48 41.25 31.84 40.04 41.16 42.02 34.03 25.94 32.92 33.12 35.38 36.37 35.78 36.78 37.07 36.92 37.57 38.36 38.35 39.11 40.29 37.57 30.50 28.71 34.82 35.67 37.03 38.18 36.42 38.64 39.57 39.06 38.38 38.40 38.61 39.08 39.34 38.02 37.90
46.23 46.16 46.16 46.46 46.18 42.10 34.03 30.99 38.17 43.11 40.88 33.86 27.18 25.53 33.67 39.41 38.37 34.95 35.53 41.25 39.20 39.12 39.36 37.88 38.04 38.19 39.87 34.84 28.27 34.94 36.52 38.60 39.24 39.44 40.11 37.75 37.52 36.53 37.66 38.30 38.75 39.58 38.65 38.98
46.16 46.29 46.13 45.82 44.74 43.73 39.75 40.65 43.77 43.78 38.13 35.49 27.10 24.26 28.98 39.16 37.65 37.11 42.18 38.03 39.32 40.22 39.61 40.07 38.02 39.87 38.99 32.70 35.09 35.90 37.45 37.55 37.13 36.44 37.45 37.32 37.44 37.33 37.83 38.06 38.50 37.89 37.89 37.92
46.12 45.56 44.86 40.50 39.42 37.76 38.56 43.88 43.56 43.21 37.11 28.78 28.10 21.35 23.37 37.25 35.46 38.31 39.69 40.89 34.72 40.61 36.66 37.41 38.08 34.17 31.98 34.21 35.28 35.12 35.34 34.99 34.88 35.45 36.70 37.97 37.95 37.83 37.53 36.88 35.18 34.08 35.01 35.83
44.95 39.05 34.74 30.69 34.87 42.66 41.89 39.55 35.18 34.47 34.67 34.29 27.57 31.29 27.31 32.39 34.33 35.18 37.21 38.24 35.23 31.35 35.83 39.31 35.84 34.78 36.29 32.85 31.90 32.30 33.72 34.61 34.90 33.14 33.85 35.63 35.20 35.32 35.83 36.07 36.41 34.95 35.19 35.94
35.90 31.30 29.90 35.16 41.14 34.37 35.23 29.57 29.08 29.79 27.76 31.54 31.48 31.80 28.93 36.10 31.73 33.05 37.60 33.50 33.70 29.42 30.58 31.83 31.12 31.30 31.31 31.52 30.93 33.02 34.17 34.92 35.25 35.58 34.76 34.59 35.41 34.74 34.80 35.28 35.89 36.33 36.62 36.23
37.02 36.07 37.04 36.87 33.63 29.20 27.07 21.48 29.56 28.59 27.45 33.78 31.65 33.68 34.55 34.87 38.11 33.65 34.77 32.24 32.64 27.90 35.87 32.07 28.07 29.95 30.21 30.86 32.31 33.13 33.55 34.05 33.85 34.10 33.07 33.82 34.26 34.08 34.19 34.63 34.68 34.61 35.00 35.32
38.21 33.85 31.18 31.82 30.85 22.27 16.86 12.83 20.64 21.37 30.24 32.53 32.62 29.96 34.38 36.64 37.53 33.93 32.65 30.23 29.22 34.77 31.04 28.98 28.86 28.50 29.66 29.65 30.81 31.62 33.16 33.31 33.08 32.90 33.22 33.16 33.04 34.05 34.36 33.17 33.32 33.25 33.50 34.34
27.34 24.10 12.81 20.49 14.11 22.74 25.19 24.81 26.20 28.05 32.34 31.81 31.66 29.92 31.49 34.99 32.31 33.31 30.67 33.52 32.87 27.82 25.47 25.95 28.15 30.42 31.33 31.02 32.48 32.68 31.88 32.44 32.13 32.01 32.38 31.94 31.93 32.40 33.18 32.85 32.20 31.16 30.67 32.02
20.72 22.48 11.81 13.14 23.56 22.74 29.88 31.55 30.57 31.49 31.68 31.92 29.29 30.56 31.65 31.39 30.87 31.93 31.55 28.77 26.72 28.07 27.91 31.90 32.51 32.51 32.98 32.42 32.32 31.82 31.34 30.36 29.85 30.50 29.26 30.26 30.58 30.49 27.39 30.71 29.51 28.92 29.28 29.78
20.36 24.36 21.88 21.30 17.40 16.24 16.48 18.17 28.30 32.93 31.75 30.46 31.68 28.62 29.97 30.81 31.16 30.08 29.63 26.53 23.82 30.01 31.89 31.96 31.88 31.93 32.05 32.61 30.19 28.86 29.24 28.80 27.87 27.50 26.35 26.33 25.64 26.24 25.08 25.47 25.09 25.27 24.36 24.14
26.00 24.44 27.69 21.39 21.84 22.08 19.63 22.94 24.94 33.73 27.89 25.09 27.42 27.00 26.58 30.40 28.99 28.34 31.66 30.07 31.41 30.14 29.32 31.12 31.61 31.80 31.53 30.16 29.76 28.98 27.72 26.39 25.14 24.99 24.77 23.87 23.81 25.33 23.43 22.81 24.63 24.82 24.76 23.15

GFSNW_sfc_wetblb_087.txt.gz
Wetbulb
50.19 49.92 49.37 49.43 49.40 49.44 42.89 34.53 28.65 40.96 42.26 30.41 36.02 32.90 35.33 39.21 38.75 40.79 38.84 38.75 36.43 35.24 35.91 34.22 28.58 29.22 31.45 35.69 35.23 29.29 32.46 28.65 19.20 29.50 36.77 37.80 36.47 33.58 32.04 22.62 21.23 18.67 17.50 23.56
49.91 49.59 48.97 49.08 49.06 48.53 37.96 32.23 30.51 39.18 39.16 27.78 31.66 35.37 35.23 38.17 38.22 38.65 39.10 37.48 38.38 39.04 34.32 32.23 34.90 35.38 37.95 36.14 34.87 30.66 32.90 26.00 18.36 28.10 34.21 37.04 33.85 35.26 35.46 30.47 26.46 17.89 19.36 23.88
49.76 49.12 48.57 48.56 48.64 47.88 36.96 30.13 22.32 28.54 33.57 37.35 33.54 32.62 32.11 32.30 39.58 38.90 38.52 38.79 38.12 35.50 33.75 34.77 33.31 34.82 37.70 35.72 35.94 38.60 36.60 34.07 26.35 22.10 27.23 33.51 31.97 33.83 34.25 31.90 19.42 21.59 21.71 25.79
49.52 48.76 48.25 48.26 48.15 47.03 34.99 28.58 28.96 28.50 26.08 28.30 32.06 34.12 33.03 31.10 32.39 37.19 38.51 37.13 36.28 34.46 30.38 31.54 31.66 35.35 35.98 40.15 42.33 40.60 36.98 31.72 30.64 32.36 34.30 34.84 33.75 33.69 32.80 27.47 30.44 24.93 27.25 28.95
49.20 48.34 47.91 47.94 47.67 44.81 32.84 27.04 25.13 28.56 26.47 28.93 30.22 31.32 29.93 30.05 31.14 33.86 35.44 35.58 36.79 36.54 31.42 32.84 32.49 34.14 33.92 32.78 36.01 35.69 35.99 30.63 29.42 27.95 33.98 33.87 32.25 34.74 34.09 31.56 31.34 30.77 29.42 29.15
48.92 47.89 47.64 47.72 47.56 42.69 32.36 32.04 31.79 31.86 27.15 24.94 23.99 24.34 29.01 29.06 32.31 35.63 37.81 36.94 36.31 35.69 35.40 37.17 37.92 37.56 37.28 36.17 32.41 32.56 32.24 30.30 26.74 20.04 31.52 32.35 28.86 31.85 32.25 32.05 33.75 32.50 27.53 31.90
48.39 47.44 47.11 47.60 47.66 43.12 35.61 33.24 30.77 25.73 22.56 24.65 25.61 26.82 28.40 29.22 30.34 32.40 36.06 38.63 38.47 38.56 40.22 39.38 37.26 35.45 35.83 34.66 33.78 34.06 30.81 29.73 28.60 23.09 27.07 17.71 27.55 33.25 36.59 34.25 34.47 35.46 34.50 34.63
47.79 47.02 46.63 47.34 47.41 46.43 37.14 36.02 32.01 27.72 23.23 25.75 26.44 26.34 26.66 28.33 32.56 32.12 34.02 39.36 40.55 39.70 36.71 33.49 32.31 32.97 30.20 31.47 33.18 33.76 33.18 30.47 26.42 23.34 23.22 26.26 28.92 32.11 32.89 32.33 32.44 36.40 35.76 36.77
47.51 46.69 46.64 46.91 47.29 46.68 37.80 36.18 36.53 31.33 27.68 23.44 28.00 25.88 25.50 24.39 27.75 28.59 33.80 35.93 38.16 38.79 34.53 30.78 26.48 20.86 25.46 25.73 28.81 33.09 33.26 31.53 27.15 24.15 21.42 19.56 30.97 34.70 37.86 36.76 28.54 36.29 37.30 37.86
47.46 46.58 46.50 46.75 47.06 46.51 38.62 36.17 37.63 33.31 26.16 28.25 28.23 24.12 24.42 28.48 27.35 25.52 30.60 30.46 30.98 38.34 31.78 28.15 24.35 24.77 28.12 24.11 24.00 26.36 26.81 27.32 23.06 25.13 21.27 25.36 32.96 35.33 37.63 26.91 27.72 36.16 38.39 38.54
47.42 46.63 46.10 46.51 46.48 46.36 39.98 36.15 38.02 33.29 27.27 28.61 31.66 32.49 27.26 28.68 27.42 24.43 30.25 30.48 34.63 36.16 31.72 29.92 27.07 26.19 26.45 24.14 25.87 24.74 25.71 23.72 23.18 25.03 21.71 18.04 34.14 34.87 31.10 35.21 38.37 40.13 39.37 39.73
47.37 46.58 45.86 46.61 46.48 46.10 41.98 35.30 40.11 40.81 35.12 30.46 34.17 35.26 36.10 34.56 33.73 30.35 30.16 30.73 30.46 35.68 33.87 33.66 31.46 27.83 26.74 24.48 22.98 28.54 25.63 28.80 26.60 27.33 26.89 32.94 34.65 35.11 38.96 37.88 39.96 39.77 41.72 40.59
47.26 46.18 46.21 46.54 46.52 46.02 44.25 38.22 39.03 38.45 34.90 31.43 29.34 29.28 33.16 36.93 36.55 37.35 29.24 31.39 36.32 34.75 36.31 33.86 34.74 29.44 28.22 24.73 27.46 25.62 28.20 31.71 28.69 30.28 31.11 32.28 35.65 37.64 39.46 39.34 38.91 39.02 39.43 39.36
46.66 46.24 46.24 45.81 45.83 46.09 45.09 39.36 39.25 39.61 35.24 28.35 27.26 35.81 33.37 37.09 37.11 36.58 36.03 34.56 37.16 36.97 36.35 35.03 35.60 31.10 31.77 28.15 29.59 28.42 30.59 32.36 31.49 31.23 32.47 33.54 35.51 36.56 37.81 38.51 39.12 39.31 39.51 39.11
46.29 46.12 45.65 45.55 45.76 46.39 41.87 38.98 37.88 38.18 34.22 27.80 29.12 33.44 34.03 34.98 34.86 35.11 35.25 33.97 32.57 34.53 31.60 34.38 35.37 35.99 34.06 31.37 30.42 28.25 31.83 31.49 30.03 29.35 34.34 34.87 35.83 37.79 39.04 38.40 37.93 38.32 38.49 38.16
46.36 45.84 45.38 45.44 45.68 44.99 37.18 29.50 39.24 41.61 38.84 32.64 25.13 30.85 32.49 33.96 35.52 33.00 32.65 33.62 32.79 33.67 34.11 34.35 38.34 39.66 35.53 30.30 27.32 33.34 34.56 35.46 36.34 35.57 37.51 37.88 37.91 37.99 37.71 37.68 37.86 38.21 37.54 37.19
46.03 45.78 45.71 45.15 44.86 40.52 32.40 29.97 35.83 42.39 41.54 33.77 26.53 24.72 30.63 34.72 38.58 32.30 32.61 33.93 35.63 35.19 34.70 35.99 35.88 35.58 39.12 35.46 28.38 33.92 36.10 36.99 37.69 38.36 38.67 36.73 35.87 35.90 37.07 37.73 37.60 38.49 36.99 36.64
45.53 45.35 44.62 44.50 44.93 42.00 35.94 39.76 42.75 41.68 37.19 34.27 22.07 22.91 25.17 34.35 32.48 33.41 33.94 31.60 34.39 36.47 36.70 38.74 36.68 38.46 38.97 33.41 34.58 34.69 34.88 35.81 36.10 36.13 36.78 36.18 36.44 36.37 36.30 36.32 36.55 35.87 35.69 35.80
44.61 44.11 45.06 38.25 35.48 33.29 34.28 42.66 42.98 41.53 36.60 24.40 24.43 19.58 16.94 32.73 30.80 33.41 35.68 37.35 32.30 37.92 35.50 36.25 36.45 33.69 31.92 33.26 33.51 33.36 33.73 33.59 34.82 34.87 35.89 36.41 36.20 35.74 35.53 35.43 35.74 34.85 34.89 35.20
43.03 36.47 32.16 28.53 32.56 40.81 39.99 37.96 32.43 33.63 34.50 33.73 26.95 26.93 23.32 30.07 31.38 31.00 34.12 36.16 34.10 31.00 33.53 35.94 33.35 31.30 34.01 30.98 30.22 30.78 32.03 33.80 35.49 34.91 34.22 33.53 34.13 34.52 34.65 35.00 35.38 35.26 35.21 35.48
33.68 29.11 29.01 32.57 38.88 32.71 32.58 29.08 28.20 29.32 25.90 29.37 28.97 29.72 28.10 31.53 28.53 27.69 35.19 32.45 33.12 29.13 31.89 33.40 29.62 29.90 27.92 29.01 29.27 30.88 33.24 34.87 34.68 35.28 34.79 34.56 34.65 33.93 33.75 34.32 34.93 34.81 34.54 34.22
34.29 32.98 34.94 33.69 30.60 24.72 22.14 20.14 26.80 27.56 19.97 30.99 30.30 30.39 30.86 31.86 36.11 31.91 31.40 31.36 31.53 27.07 36.01 32.42 26.18 30.26 28.31 29.03 31.87 32.63 32.90 33.33 32.33 33.16 32.22 33.25 33.62 34.03 34.13 33.92 33.02 32.67 33.09 34.12
33.65 30.95 27.29 24.98 27.14 14.21 15.92 15.77 12.25 13.24 23.60 29.28 29.07 26.65 30.28 32.51 34.77 32.66 31.92 29.54 28.06 35.98 31.00 26.29 28.40 29.35 28.04 28.15 31.83 31.91 32.91 33.44 33.20 32.43 33.36 33.60 33.35 33.49 32.66 31.42 31.34 31.30 31.25 31.49
26.09 16.19 12.48 13.76 11.13 23.31 24.69 21.30 15.82 22.48 20.33 25.25 29.11 27.93 24.17 30.46 30.48 31.43 29.56 33.26 32.14 25.23 24.65 23.94 27.18 29.11 29.72 31.59 31.74 32.49 32.20 32.04 31.01 30.36 31.05 30.74 31.21 30.69 31.03 30.03 27.83 26.80 26.33 27.92
19.54 18.20 12.62 13.64 19.89 23.71 29.92 30.85 27.37 23.85 23.00 29.44 27.80 27.50 28.35 25.36 28.34 30.89 31.05 29.19 23.14 26.12 26.55 31.17 32.17 33.49 31.31 30.39 32.65 32.40 31.45 27.13 24.47 23.89 23.59 24.45 25.91 27.09 26.87 26.38 25.46 26.02 25.49 25.13
18.57 21.33 16.73 18.43 15.44 11.68 15.22 24.22 19.25 21.63 23.20 23.71 28.64 26.06 25.33 22.48 29.14 28.37 27.90 27.17 22.46 28.05 29.93 30.56 31.20 32.08 32.29 32.53 33.18 32.15 30.38 28.83 27.96 26.64 25.14 24.64 25.14 25.48 23.02 21.72 20.60 20.92 20.36 19.38
25.25 23.10 26.63 22.68 23.76 22.40 15.90 18.10 21.03 27.96 27.05 22.76 23.44 20.33 17.00 25.29 24.80 27.24 28.96 26.32 28.12 29.54 30.06 29.13 30.95 31.22 32.16 30.73 30.41 30.98 29.26 26.24 25.58 24.94 24.69 22.82 23.53 22.53 21.63 20.43 21.37 19.99 20.96 19.19